Date StartTime U_cm/s V_cm/s W_cm/s Ustd_cm/s Vstd_cm/s Wstd_cm/s Uvar_(cm/s)^2 Vvar_(cm/s)^2 Wvar_(cm/s)^2 KE_(m/s)^2 TurbulentKE_(m/s)^2 HorizWindSpeed_cm/s FrictionSpeec_cm/s DragCoef SpeedOfSound_m/s SonicTemperature_C Pressure_mb 
09/15/2014  00:00:00      -79.191        2.683      -13.615       36.882       44.966       25.731     1360.258     2021.964      662.094        0.525        0.202       79.236       15.556        0.039      342.938       18.697      861.503
09/15/2014  00:01:00     -111.698       15.447       -7.627       66.129       42.610       32.727     4373.016     1815.592     1071.070        1.002        0.363      112.761       32.273        0.082      342.943       18.706      861.492
09/15/2014  00:02:00     -152.111       22.110      -12.661       62.536       36.951       26.007     3910.690     1365.371      676.367        1.487        0.298      153.709       21.726        0.020      342.909       18.647      861.480
09/15/2014  00:03:00     -207.973       40.866      -16.804       21.907       22.023       14.519      479.935      485.020      210.793        2.319        0.059      211.950       13.348        0.004      342.975       18.760      861.475
09/15/2014  00:04:00     -171.435        7.058      -12.489       29.041       28.968       18.874      843.357      839.126      356.223        1.582        0.102      171.580       12.780        0.006      342.800       18.463      861.468
09/15/2014  00:05:00     -155.870      -13.376      -18.258       28.333       37.903       19.180      802.764     1436.645      367.863        1.371        0.130      156.443       14.017        0.008      342.722       18.329      861.469
09/15/2014  00:06:00     -141.984       -8.724      -14.798       21.344       25.710       16.458      455.545      661.014      270.856        1.092        0.069      142.252        9.268        0.004      342.735       18.353      861.457
09/15/2014  00:07:00     -144.648      -29.859       -9.960       26.150       27.136       16.410      683.831      736.384      269.286        1.180        0.084      147.698       14.246        0.009      342.702       18.296      861.458
09/15/2014  00:08:00     -153.532      -46.633      -10.561       24.081       20.680       16.633      579.883      427.655      276.650        1.357        0.064      160.458       11.813        0.005      342.834       18.522      861.476
09/15/2014  00:09:00      -92.377      -30.644       -0.246       42.583       25.193       18.397     1813.338      634.676      338.442        0.613        0.139       97.328       20.005        0.042      342.870       18.582      861.479
09/15/2014  00:10:00      -97.453      -43.808        1.205       28.448       19.821       12.581      809.313      392.854      158.281        0.639        0.068      106.847       12.414        0.013      342.878       18.595      861.489
09/15/2014  00:11:00      -43.108      -41.422        5.277       40.495       30.477       19.442     1639.823      928.824      377.984        0.327        0.147       59.784       19.185        0.103      342.870       18.581      861.492
09/15/2014  00:12:00      -83.487      -41.491       -1.889       26.839       19.769       14.079      720.352      390.797      198.214        0.500        0.065       93.229       15.793        0.029      342.920       18.666      861.502
09/15/2014  00:13:00      -51.580      -34.984        1.307       39.029       24.124       15.057     1523.300      581.958      226.700        0.311        0.117       62.325       17.117        0.075      342.873       18.586      861.521
09/15/2014  00:14:00      -43.283      -53.441       10.816       43.805       39.683       26.010     1918.891     1574.708      676.525        0.451        0.209       68.770       27.309        0.158      342.810       18.481      861.539
09/15/2014  00:15:00     -128.564      -86.102       -3.897       50.001       49.615       23.566     2500.061     2461.667      555.358        1.474        0.276      154.733       15.084        0.010      342.902       18.636      861.554
09/15/2014  00:16:00     -166.318      -59.017       -7.586       45.590       37.781       25.287     2078.457     1427.433      639.417        1.767        0.207      176.479       20.256        0.013      342.967       18.747      861.544
09/15/2014  00:17:00     -101.898      -50.109       -7.609       36.443       29.649       17.422     1328.096      879.079      303.514        0.773        0.126      113.552       16.759        0.022      342.920       18.667      861.532
09/15/2014  00:18:00     -120.942      -30.766       -7.164       41.843       26.190       22.340     1750.803      685.910      499.078        0.928        0.147      124.794       22.503        0.033      343.049       18.889      861.538
09/15/2014  00:19:00      -75.825      -45.903        5.039       33.847       26.984       18.336     1145.591      728.139      336.224        0.505        0.110       88.637       16.137        0.033      342.976       18.763      861.527
09/15/2014  00:20:00     -110.002      -47.788        4.570       35.758       28.320       21.029     1278.605      801.996      442.205        0.846        0.126      119.934       17.744        0.022      343.083       18.945      861.531
09/15/2014  00:21:00     -116.855      -44.791       -0.567       33.433       20.652       18.573     1117.737      426.502      344.957        0.878        0.094      125.145       17.430        0.019      343.051       18.891      861.539
09/15/2014  00:22:00     -107.646      -46.297        4.634       30.615       29.306       18.333      937.261      858.848      336.115        0.794        0.107      117.179       13.569        0.013      342.943       18.706      861.541
09/15/2014  00:23:00      -83.840      -32.185        1.986       34.619       35.363       16.780     1198.490     1250.531      281.561        0.540        0.137       89.806       16.312        0.033      342.867       18.578      861.557
09/15/2014  00:24:00      -85.217       -3.463       -3.143       36.782       26.262       15.187     1352.894      689.705      230.632        0.478        0.114       85.287       15.163        0.032      342.694       18.282      861.566
09/15/2014  00:25:00      -82.783      -18.999       -2.455       25.070       27.148       13.028      628.514      737.028      169.726        0.438        0.077       84.935       13.989        0.027      342.714       18.317      861.565
09/15/2014  00:26:00      -66.903      -24.509       -2.975       19.683       23.639       12.422      387.430      558.782      154.303        0.309        0.055       71.251        9.722        0.019      342.697       18.288      861.579
09/15/2014  00:27:00      -90.223      -31.712        1.303       31.613       25.386       15.698      999.378      644.465      246.429        0.552        0.095       95.634       11.541        0.015      342.787       18.441      861.589
09/15/2014  00:28:00     -123.089      -42.798       -0.187       51.442       26.264       19.291     2646.302      689.810      372.154        1.034        0.185      130.317       25.725        0.039      342.817       18.492      861.605
09/15/2014  00:29:00     -154.000      -55.048       -7.186       46.690       24.622       17.898     2179.999      606.236      320.356        1.495        0.155      163.543       20.186        0.015      342.905       18.640      861.624
09/15/2014  00:30:00     -136.476      -54.856       -0.444       71.407       52.053       25.303     5099.016     2709.535      640.240        1.504        0.422      147.088       31.949        0.047      342.885       18.608      861.634
09/15/2014  00:31:00     -161.978      -56.201        1.335       89.825       58.228       28.939     8068.548     3390.542      837.448        2.084        0.615      171.451       34.586        0.041      343.037       18.865      861.634
09/15/2014  00:32:00     -144.130      -50.207        2.272       68.866       48.665       34.543     4742.477     2368.262     1193.214        1.580        0.415      152.624       37.591        0.061      342.946       18.712      861.641
09/15/2014  00:33:00     -156.669      -23.041       -0.018       58.984       45.450       29.574     3479.124     2065.665      874.639        1.575        0.321      158.354       28.979        0.033      342.922       18.669      861.651
09/15/2014  00:34:00     -138.513      -45.242       -3.353       38.914       34.324       27.233     1514.318     1178.130      741.613        1.234        0.172      145.715       20.819        0.020      342.977       18.765      861.648
09/15/2014  00:35:00     -126.416      -14.761      -10.760       24.486       22.710       15.732      599.580      515.729      247.489        0.884        0.068      127.275       10.046        0.006      342.796       18.455      861.641
09/15/2014  00:36:00      -81.777      -17.272      -13.056       26.441       20.719       16.018      699.119      429.267      256.562        0.427        0.069       83.581       13.910        0.028      342.682       18.263      861.643
09/15/2014  00:37:00     -103.369      -37.457       -4.643       36.808       22.638       18.497     1354.859      512.492      342.150        0.716        0.110      109.946       21.081        0.037      342.698       18.288      861.653
09/15/2014  00:38:00     -132.913      -46.931       -9.925       16.371       13.881       10.225      268.000      192.690      104.561        1.027        0.028      140.956        5.247        0.001      342.732       18.348      861.667
09/15/2014  00:39:00     -107.485      -39.166       -0.182       24.808       23.815       13.235      615.435      567.140      175.175        0.722        0.068      114.398       13.788        0.015      342.734       18.351      861.672
09/15/2014  00:40:00     -116.214      -48.796       -2.121       22.989       18.746       13.211      528.494      351.427      174.530        0.847        0.053      126.043       13.610        0.012      342.720       18.326      861.686
09/15/2014  00:41:00     -148.521      -44.501        1.342       35.505       23.986       18.132     1260.604      575.338      328.756        1.310        0.108      155.044       14.369        0.009      342.729       18.342      861.697
09/15/2014  00:42:00     -144.012      -53.697       -3.020       30.929       24.448       17.217      956.578      597.696      296.425        1.274        0.093      153.698       13.447        0.008      342.666       18.236      861.698
09/15/2014  00:43:00     -113.030      -38.746       -0.722       30.653       32.959       15.799      939.595     1086.293      249.606        0.828        0.114      119.487       14.733        0.015      342.674       18.249      861.696
09/15/2014  00:44:00     -131.010       -5.670      -11.648       32.137       22.102       13.882     1032.784      488.477      192.703        0.952        0.086      131.133       13.536        0.011      342.760       18.395      861.695
09/15/2014  00:45:00     -145.164       18.460      -12.952       28.259       14.636       13.411      798.592      214.208      179.857        1.139        0.060      146.333        6.834        0.002      342.902       18.637      861.679
09/15/2014  00:46:00      -88.939       -5.187      -10.038       27.734       20.087       12.370      769.159      403.493      153.015        0.468        0.066       89.090        5.908        0.004      342.777       18.424      861.664
09/15/2014  00:47:00      -73.946      -12.233       -5.497       25.198       20.877       15.793      634.954      435.868      249.408        0.348        0.066       74.951       13.236        0.031      342.781       18.429      861.658
09/15/2014  00:48:00      -80.423      -26.372      -11.666       17.536       25.163       12.900      307.495      633.176      166.422        0.420        0.055       84.637        8.586        0.010      342.768       18.409      861.661
09/15/2014  00:49:00      -37.573      -51.558       -1.046       48.536       31.481       27.480     2355.760      991.068      755.173        0.409        0.205       63.796       30.053        0.222      342.657       18.218      861.680
09/15/2014  00:50:00      -85.099      -61.818      -16.053       25.385       24.808       19.779      644.386      615.420      391.226        0.649        0.083      105.182        7.812        0.006      342.617       18.152      861.690
09/15/2014  00:51:00      -77.569      -35.426        1.479       37.029       24.868       15.920     1371.159      618.426      253.440        0.476        0.112       85.275       18.454        0.047      342.571       18.072      861.694
09/15/2014  00:52:00      -68.771      -40.970       -2.464       25.800       21.749       14.285      665.657      473.018      204.047        0.388        0.067       80.050       11.804        0.022      342.728       18.340      861.680
09/15/2014  00:53:00      -71.047      -21.359       -0.273       24.485       23.511       13.363      599.517      552.776      178.583        0.342        0.067       74.188       15.870        0.046      342.693       18.282      861.675
09/15/2014  00:54:00      -79.225      -14.746       -7.576       16.846       27.812       11.183      283.776      773.514      125.065        0.387        0.059       80.585       10.563        0.017      342.806       18.474      861.680
09/15/2014  00:55:00      -26.610      -30.908       -4.969       28.640       24.017       16.687      820.223      576.803      278.453        0.168        0.084       40.785       13.642        0.112      342.842       18.535      861.697
09/15/2014  00:56:00      -13.511       -8.169       12.724       29.611       24.589       16.167      876.836      604.618      261.374        0.108        0.087       15.788       20.490        1.684      342.768       18.410      861.718
09/15/2014  00:57:00      -26.265      -33.255        0.287       20.617       24.511       17.515      425.076      600.803      306.765        0.156        0.067       42.376       17.930        0.179      342.956       18.729      861.734
09/15/2014  00:58:00       -4.103      -18.358        1.652       21.378        8.190        7.616      457.017       67.069       57.999        0.047        0.029       18.811        7.460        0.157      342.982       18.774      861.750
09/15/2014  00:59:00        6.757      -25.413       -7.907        8.355       11.718        6.840       69.803      137.302       46.780        0.050        0.013       26.296        3.910        0.022      343.087       18.952      861.759
09/15/2014  01:00:00      -39.407      -25.886        0.996       29.793       17.896       12.475      887.634      320.252      155.616        0.179        0.068       47.149       13.188        0.078      342.885       18.607      861.771
09/15/2014  01:01:00      -72.824      -51.019       -2.492       22.610       20.274       15.282      511.216      411.031      233.553        0.453        0.058       88.918        6.478        0.005      342.792       18.449      861.776
09/15/2014  01:02:00      -49.954      -64.449       -0.999       26.401       16.658       12.521      697.017      277.498      156.782        0.389        0.057       81.542       10.084        0.015      342.713       18.315      861.780
09/15/2014  01:03:00      -71.942      -52.587       -4.556       15.226       18.684       13.965      231.846      349.075      195.029        0.437        0.039       89.113        7.085        0.006      342.693       18.279      861.784
09/15/2014  01:04:00      -50.527      -29.421        1.057       36.914       20.530       16.500     1362.643      421.495      272.252        0.274        0.103       58.469       11.929        0.042      342.629       18.173      861.789
09/15/2014  01:05:00      -47.645      -17.505       -1.247       19.682       23.650        9.507      387.371      559.345       90.391        0.181        0.052       50.759        7.470        0.022      342.586       18.099      861.782
09/15/2014  01:06:00      -55.049      -26.650       -3.988       14.331       21.392        9.952      205.367      457.602       99.048        0.226        0.038       61.161        7.901        0.017      342.587       18.101      861.775
09/15/2014  01:07:00      -33.927      -38.376        6.073       26.520       25.726       16.043      703.291      661.844      257.366        0.214        0.081       51.222       16.153        0.099      342.629       18.173      861.775
09/15/2014  01:08:00      -50.329      -51.442        8.656       41.581       28.311       21.241     1728.998      801.486      451.171        0.412        0.149       71.967       22.895        0.101      342.630       18.174      861.773
09/15/2014  01:09:00      -57.866      -57.110        3.931       43.019       26.086       23.380     1850.666      680.488      546.646        0.485        0.154       81.302       21.911        0.073      342.578       18.085      861.773
09/15/2014  01:10:00      -75.000      -56.545        3.080       32.702       27.232       18.197     1069.431      741.604      331.128        0.549        0.107       93.927       12.418        0.017      342.540       18.022      861.773
09/15/2014  01:11:00      -49.816      -52.608        2.875       46.149       31.339       18.843     2129.723      982.160      355.067        0.436        0.173       72.452       22.586        0.097      342.526       17.999      861.781
09/15/2014  01:12:00      -89.705      -93.813       -0.065       37.998       32.002       25.417     1443.874     1024.096      646.020        0.998        0.156      129.799       23.795        0.034      342.586       18.100      861.800
09/15/2014  01:13:00      -96.180      -86.006       -4.159       30.430       27.837       17.714      925.961      774.888      313.796        0.934        0.101      129.026       15.810        0.015      342.553       18.043      861.815
09/15/2014  01:14:00      -98.316      -58.239       -2.867       32.396       27.968       18.047     1049.517      782.229      325.686        0.761        0.108      114.270       15.670        0.019      342.531       18.006      861.817
09/15/2014  01:15:00     -108.640      -70.484       -5.060       23.883       27.110       16.184      570.404      734.956      261.908        0.918        0.078      129.501       12.995        0.010      342.629       18.171      861.814
09/15/2014  01:16:00     -121.344      -64.717      -11.192       22.479       21.709       13.757      505.307      471.288      189.262        1.010        0.058      137.524       10.573        0.006      342.615       18.148      861.811
09/15/2014  01:17:00     -102.196      -52.581        2.859       22.374       23.352       13.261      500.617      545.316      175.851        0.722        0.061      114.930       12.089        0.011      342.558       18.052      861.822
09/15/2014  01:18:00      -72.651      -44.226        5.116       34.401       23.999       16.529     1183.403      575.932      273.221        0.465        0.102       85.054       14.873        0.031      342.496       17.948      861.838
09/15/2014  01:19:00     -104.020      -51.883       -1.497       35.434       24.734       16.356     1255.592      611.761      267.517        0.782        0.107      116.241       19.178        0.027      342.523       17.994      861.836
09/15/2014  01:20:00     -104.796      -51.691       -0.048       25.596       27.548       13.107      655.132      758.882      171.806        0.762        0.079      116.851        9.636        0.007      342.484       17.926      861.820
09/15/2014  01:21:00     -117.236      -15.741       -5.040       22.431       20.128       18.372      503.150      405.147      337.544        0.763        0.062      118.288       14.309        0.015      342.365       17.723      861.805
09/15/2014  01:22:00     -106.952      -10.539       -5.616       41.355       25.806       17.019     1710.211      665.964      289.647        0.712        0.133      107.470       19.661        0.033      342.109       17.289      861.810
09/15/2014  01:23:00      -77.418        1.754        3.217       54.171       33.232       27.764     2934.460     1104.335      770.835        0.541        0.240       77.438       30.916        0.159      342.040       17.172      861.805
09/15/2014  01:24:00      -76.912      -24.715        2.815       38.894       28.576       23.923     1512.716      816.567      572.296        0.472        0.145       80.785       25.264        0.098      342.046       17.180      861.797
09/15/2014  01:25:00     -104.909      -29.996        1.248       34.902       21.374       14.974     1218.149      456.857      224.234        0.690        0.095      109.113       13.301        0.015      342.101       17.277      861.790
09/15/2014  01:26:00     -104.231      -28.124        3.440       41.843       25.579       18.973     1750.869      654.264      359.978        0.722        0.138      107.958       22.344        0.043      342.082       17.243      861.782
09/15/2014  01:27:00     -130.812      -35.144       -5.886       22.973       17.077       12.283      527.743      291.616      150.878        0.968        0.049      135.450        7.748        0.003      342.134       17.330      861.790
09/15/2014  01:28:00      -91.553      -12.547       -3.521       36.414       24.182       18.456     1325.986      584.759      340.617        0.540        0.113       92.409       19.847        0.046      342.086       17.250      861.790
09/15/2014  01:29:00      -77.025      -17.054        3.502       36.700       24.131       17.120     1346.887      582.287      293.096        0.423        0.111       78.890       19.759        0.063      342.022       17.140      861.781
09/15/2014  01:30:00      -97.620      -35.363        2.087       43.492       23.833       12.201     1891.525      568.035      148.868        0.670        0.130      103.827       13.194        0.016      342.144       17.348      861.769
09/15/2014  01:31:00      -97.843      -44.793        0.064       34.645       32.762       17.240     1200.282     1073.349      297.218        0.707        0.129      107.609       18.213        0.029      342.188       17.422      861.774
09/15/2014  01:32:00     -118.300      -75.650       -5.580       43.109       28.569       20.288     1858.425      816.210      411.610        1.142        0.154      140.420       18.769        0.018      342.188       17.424      861.776
09/15/2014  01:33:00      -86.913      -66.539        4.191       42.242       39.073       24.497     1784.381     1526.687      600.086        0.795        0.196      109.459       17.885        0.027      342.185       17.418      861.768
09/15/2014  01:34:00      -91.954      -54.106        5.552       43.729       39.600       30.892     1912.192     1568.181      954.309        0.792        0.222      106.691       26.581        0.062      342.213       17.465      861.763
09/15/2014  01:35:00      -94.524      -58.424        0.016       45.531       34.093       20.181     2073.033     1162.311      407.282        0.799        0.182      111.122       20.932        0.035      342.173       17.397      861.756
09/15/2014  01:36:00     -130.527      -57.449       -0.543       26.611       18.411       16.392      708.139      338.960      268.705        1.083        0.066      142.610       13.660        0.009      342.169       17.390      861.755
09/15/2014  01:37:00     -124.138      -48.198       -0.404       29.497       26.059       17.107      870.083      679.093      292.636        0.979        0.092      133.166       13.628        0.010      342.164       17.383      861.739
09/15/2014  01:38:00     -119.397      -74.285       -2.124       34.148       25.093       18.524     1166.076      629.668      343.141        1.096        0.107      140.619       14.320        0.010      342.198       17.439      861.726
09/15/2014  01:39:00     -129.516      -73.455       -4.164       36.538       17.797       13.562     1334.994      316.731      183.931        1.201        0.092      148.896       10.319        0.005      342.227       17.490      861.725
09/15/2014  01:40:00     -124.394      -57.808        0.231       30.846       26.660       15.525      951.488      710.757      241.024        1.036        0.095      137.170        9.146        0.004      342.162       17.377      861.734
09/15/2014  01:41:00     -112.259      -65.628        5.203       35.114       30.847       20.132     1232.986      951.551      405.279        0.976        0.129      130.035       19.921        0.023      342.133       17.330      861.731
09/15/2014  01:42:00     -117.799      -63.536       -1.367       30.001       26.911       18.402      900.069      724.217      338.652        0.994        0.098      133.841       11.471        0.007      342.228       17.492      861.722
09/15/2014  01:43:00      -91.958      -72.542        1.459       40.741       37.501       21.463     1659.806     1406.359      460.641        0.862        0.176      117.126       20.551        0.031      342.216       17.470      861.725
09/15/2014  01:44:00      -75.759      -44.762       11.443       46.783       28.067       25.644     2188.649      787.783      657.627        0.575        0.182       87.994       27.882        0.100      342.155       17.367      861.738
09/15/2014  01:45:00      -55.329      -66.376        5.461       53.595       52.088       28.600     2872.388     2713.202      817.988        0.695        0.320       86.412       30.483        0.124      342.191       17.426      861.757
09/15/2014  01:46:00     -158.323     -124.293      -18.142       56.856       42.794       33.583     3232.621     1831.305     1127.839        2.352        0.310      201.283       31.894        0.025      342.232       17.495      861.779
09/15/2014  01:47:00     -144.244     -143.960       -7.681       59.309       77.899       30.526     3517.505     6068.295      931.845        2.605        0.526      203.791       25.761        0.016      342.207       17.452      861.793
09/15/2014  01:48:00     -118.605     -132.631        0.158       52.093       52.663       33.707     2713.639     2773.348     1136.140        1.914        0.331      177.928       22.857        0.017      342.184       17.413      861.791
09/15/2014  01:49:00     -112.540     -146.600       -7.669       46.828       72.371       28.007     2192.888     5237.559      784.379        2.121        0.411      184.816       37.127        0.040      342.163       17.378      861.792
09/15/2014  01:50:00      -97.230     -128.970        3.969       55.144       76.789       34.781     3040.895     5896.492     1209.703        1.812        0.507      161.514       29.295        0.033      342.135       17.332      861.802
09/15/2014  01:51:00     -125.165     -133.577       -8.694       43.635       79.228       27.996     1903.982     6277.060      783.803        2.127        0.448      183.055       14.848        0.007      342.120       17.305      861.806
09/15/2014  01:52:00     -119.377      -76.311       -4.193       60.020       65.102       30.739     3602.453     4238.242      944.895        1.444        0.439      141.683       33.495        0.056      342.020       17.138      861.793
09/15/2014  01:53:00     -150.063      -68.598       -1.497       60.377       40.979       31.066     3645.326     1679.262      965.098        1.676        0.314      164.999       29.125        0.031      342.039       17.169      861.795
09/15/2014  01:54:00      -93.224      -59.274       -6.845       45.240       43.528       21.020     2046.694     1894.728      441.822        0.832        0.219      110.472       20.041        0.033      342.073       17.227      861.809
09/15/2014  01:55:00     -123.070      -53.574      -12.714       30.394       33.560       16.837      923.770     1126.269      283.491        1.026        0.117      134.225       15.067        0.013      342.106       17.285      861.819
09/15/2014  01:56:00     -148.509      -47.499      -20.102       38.336       40.567       21.721     1469.642     1645.686      471.798        1.415        0.179      155.920       18.726        0.014      342.111       17.291      861.809
09/15/2014  01:57:00      -45.603      -21.035        6.746       27.631       35.013       19.946      763.480     1225.940      397.824        0.248        0.119       50.221       20.072        0.160      342.057       17.201      861.785
09/15/2014  01:58:00      -69.650       31.675       -2.837       36.265       25.258       20.324     1315.169      637.978      413.077        0.411        0.118       76.514       16.760        0.048      341.968       17.048      861.763
09/15/2014  01:59:00      -68.152       29.154       -1.282       27.801       37.829       16.330      772.880     1431.021      266.685        0.398        0.124       74.126       12.956        0.031      342.050       17.188      861.751
09/15/2014  02:00:00      -30.061      -35.370        0.485       26.935       21.000       18.360      725.493      441.011      337.084        0.183        0.075       46.418       13.464        0.084      342.059       17.206      861.764
09/15/2014  02:01:00      -11.949      -15.907       12.288       18.872       16.024       13.996      356.159      256.779      195.882        0.068        0.040       19.895        9.416        0.224      342.006       17.114      861.792
09/15/2014  02:02:00       -7.534       -8.135        5.042       16.072       13.375        9.782      258.295      178.879       95.691        0.034        0.027       11.087        9.266        0.698      341.996       17.095      861.789
09/15/2014  02:03:00       13.165       12.480        0.650        7.284        7.525        5.456       53.054       56.618       29.772        0.023        0.007       18.140        3.192        0.031      342.031       17.154      861.782
09/15/2014  02:04:00       14.969       33.607       -1.009       10.189       17.451        9.447      103.810      304.542       89.255        0.093        0.025       36.790       11.364        0.095      341.951       17.021      861.799
09/15/2014  02:05:00       18.866       27.042       -6.463        6.358       14.211        5.579       40.423      201.940       31.126        0.070        0.014       32.973        5.305        0.026      341.996       17.096      861.806
09/15/2014  02:06:00       17.834       12.704       -1.216        8.557       12.262       13.228       73.225      150.353      174.986        0.044        0.020       21.896        8.939        0.167      342.015       17.130      861.808
09/15/2014  02:07:00       26.078       -1.676        0.729       14.992       13.725        6.097      224.759      188.389       37.168        0.057        0.023       26.132        5.878        0.051      341.990       17.087      861.823
09/15/2014  02:08:00       -2.054      -10.173        7.507        7.914       11.059        9.224       62.632      122.305       85.080        0.022        0.014       10.378        6.632        0.408      342.020       17.138      861.834
09/15/2014  02:09:00       11.707       25.189       30.187       24.582       22.916       15.906      604.298      525.155      252.988        0.153        0.069       27.777       15.296        0.303      341.950       17.020      861.836
09/15/2014  02:10:00       32.321       24.754       25.555       37.306       25.758       25.407     1391.741      663.475      645.530        0.251        0.135       40.711       24.355        0.358      341.851       16.850      861.848
09/15/2014  02:11:00       -1.797       35.653       55.068        9.651       18.908       12.399       93.137      357.508      153.747        0.246        0.030       35.699       12.655        0.126      341.891       16.917      861.863
09/15/2014  02:12:00       34.636       44.576       46.183       38.224       23.530       21.205     1461.074      553.644      449.657        0.389        0.123       56.451       17.715        0.098      341.880       16.900      861.881
09/15/2014  02:13:00       66.632       40.502       26.690       40.264       27.927       28.591     1621.164      779.925      817.442        0.500        0.161       77.976       25.177        0.104      341.949       17.016      861.906
09/15/2014  02:14:00       67.111       33.548       14.402       28.807       28.465       19.069      829.821      810.260      363.633        0.392        0.100       75.029       14.915        0.040      341.877       16.894      861.918
09/15/2014  02:15:00       31.450       27.098        0.730       21.682       20.609       10.069      470.092      424.730      101.380        0.136        0.050       41.514        7.711        0.034      341.751       16.681      861.920
09/15/2014  02:16:00       13.029       12.802       -4.455        7.573        8.910        7.681       57.358       79.387       59.002        0.027        0.010       18.266        4.917        0.072      341.694       16.586      861.907
09/15/2014  02:17:00        6.276        9.361       -2.868        8.141        9.114       11.130       66.283       83.056      123.876        0.020        0.014       11.270        7.569        0.451      341.753       16.684      861.895
09/15/2014  02:18:00       10.435       12.019       -1.974        5.124        6.539        3.748       26.256       42.755       14.048        0.017        0.004       15.917        2.941        0.034      341.935       16.992      861.875
09/15/2014  02:19:00       -4.832       14.123       -1.209       12.213        9.541        7.777      149.166       91.040       60.486        0.026        0.015       14.927        7.175        0.231      341.877       16.895      861.859
09/15/2014  02:20:00      -27.428       -3.637       -4.302       14.239        5.876        6.581      202.737       34.528       43.313        0.053        0.014       27.668        5.755        0.043      341.871       16.884      861.847
09/15/2014  02:21:00      -51.850      -10.418       -4.702        7.691        8.033        4.637       59.145       64.523       21.504        0.148        0.007       52.887        3.149        0.004      341.842       16.835      861.831
09/15/2014  02:22:00      -53.747      -18.562       -3.319       14.921        9.374       10.944      222.626       87.864      119.773        0.184        0.022       56.862       10.854        0.036      341.851       16.850      861.821
09/15/2014  02:23:00      -68.258      -24.306       -7.778       10.339        8.145        5.401      106.888       66.347       29.166        0.276        0.010       72.457        3.322        0.002      341.941       17.002      861.816
09/15/2014  02:24:00      -64.997      -31.295       -4.771       15.886       16.757        7.936      252.376      280.782       62.973        0.291        0.030       72.138        5.290        0.005      341.872       16.888      861.820
09/15/2014  02:25:00      -99.731      -32.392       -9.533       16.687       10.991        8.155      278.461      120.808       66.505        0.578        0.023      104.860        5.298        0.003      341.752       16.683      861.828
09/15/2014  02:26:00      -91.907      -44.930       -0.471       27.170       16.010       11.393      738.227      256.315      129.791        0.579        0.056      102.301       11.225        0.012      341.794       16.754      861.831
09/15/2014  02:27:00      -36.087      -29.330        2.512       34.637       22.316       15.315     1199.737      497.995      234.559        0.205        0.097       46.503       17.396        0.140      341.809       16.779      861.829
09/15/2014  02:28:00      -32.163      -33.202        5.230       27.712       22.603       14.355      767.943      510.883      206.080        0.182        0.074       46.226       15.372        0.111      341.876       16.892      861.821
09/15/2014  02:29:00      -64.830      -37.218        5.702       28.309       20.173       15.668      801.413      406.965      245.475        0.354        0.073       74.754       12.736        0.029      341.902       16.937      861.816
09/15/2014  02:30:00      -75.620      -38.303        6.448       35.762       20.971       20.451     1278.889      439.800      418.263        0.468        0.107       84.768       19.940        0.055      341.952       17.023      861.809
09/15/2014  02:31:00      -83.542      -47.985       -0.920       44.713       24.868       17.956     1999.287      618.402      322.401        0.611        0.147       96.342       19.526        0.041      341.949       17.015      861.809
09/15/2014  02:32:00      -86.688      -13.437       -5.551       37.799       30.775       17.570     1428.795      947.101      308.721        0.520        0.134       87.723       17.329        0.039      341.896       16.928      861.801
09/15/2014  02:33:00      -81.300      -35.646        4.952       32.236       20.903       20.100     1039.149      436.943      403.995        0.489        0.094       88.771       19.463        0.048      341.873       16.889      861.796
09/15/2014  02:34:00      -88.623      -35.490       -6.483       35.019       25.531       16.144     1226.327      651.852      260.619        0.565        0.107       95.465       17.982        0.035      341.865       16.873      861.788
09/15/2014  02:35:00      -63.106      -18.590        1.228       25.900       24.835       11.142      670.830      616.784      124.135        0.287        0.071       65.787       10.150        0.024      341.764       16.704      861.777
09/15/2014  02:36:00      -84.507       -2.966       -4.882       23.801       16.410       13.714      566.510      269.284      188.069        0.410        0.051       84.559       13.384        0.025      341.722       16.633      861.772
09/15/2014  02:37:00      -65.704      -18.597       -2.611       20.593       19.533       11.994      424.089      381.556      143.863        0.281        0.047       68.285       10.317        0.023      341.677       16.554      861.775
09/15/2014  02:38:00      -86.174      -42.458       -8.481       18.615       20.045       13.589      346.505      401.819      184.664        0.512        0.047       96.066       12.265        0.016      341.623       16.462      861.776
09/15/2014  02:39:00     -101.900      -42.386       -9.171       26.893       23.651       17.367      723.220      559.358      301.604        0.692        0.079      110.364        9.801        0.008      341.422       16.123      861.784
09/15/2014  02:40:00      -89.053      -35.773       -2.077       43.952       32.513       18.545     1931.814     1057.090      343.918        0.627        0.167       95.969       20.791        0.047      341.351       16.003      861.788
09/15/2014  02:41:00      -61.290      -20.052       -2.707       30.917       26.990       21.134      955.849      728.477      446.663        0.315        0.107       64.487       16.896        0.069      341.242       15.820      861.789
09/15/2014  02:42:00      -64.178      -10.506       -4.851       34.337       26.955       18.108     1179.006      726.574      327.886        0.324        0.112       65.032       10.798        0.028      341.358       16.016      861.789
09/15/2014  02:43:00      -76.321      -17.846       -2.532       28.267       26.867       18.270      799.006      721.822      333.793        0.400        0.093       78.380       17.862        0.052      341.388       16.068      861.787
09/15/2014  02:44:00      -81.815      -48.758        0.198       19.910       18.268       12.964      396.396      333.704      168.059        0.498        0.045       95.241        7.438        0.006      341.383       16.056      861.786
09/15/2014  02:45:00      -30.753      -22.061        2.355       31.658       26.183       15.845     1002.205      685.544      251.051        0.169        0.097       37.848       10.551        0.078      341.389       16.067      861.792
09/15/2014  02:46:00      -88.075      -26.169       -4.140       16.589       19.011       11.780      275.191      361.411      138.766        0.462        0.039       91.880        6.758        0.005      341.461       16.190      861.791
09/15/2014  02:47:00      -60.898      -24.589        3.201       30.933       16.870       13.022      956.837      284.591      169.563        0.287        0.071       65.675       15.877        0.058      341.494       16.245      861.782
09/15/2014  02:48:00      -81.291      -32.096      -11.351        9.703        9.365        7.137       94.148       87.712       50.940        0.400        0.012       87.398        3.424        0.002      341.514       16.279      861.772
09/15/2014  02:49:00      -78.973      -39.574       -8.946       14.910       11.233       10.480      222.323      126.178      109.832        0.417        0.023       88.334        3.691        0.002      341.494       16.243      861.763
09/15/2014  02:50:00      -75.009      -41.488       -3.705       21.947       13.818       12.892      481.688      190.948      166.200        0.410        0.042       85.718        9.926        0.013      341.476       16.215      861.757
09/15/2014  02:51:00      -60.379      -43.931       -0.451       24.724       18.384       16.266      611.271      337.979      264.577        0.339        0.061       74.670       13.438        0.032      341.530       16.304      861.756
09/15/2014  02:52:00      -25.196      -25.190        4.341       30.829       27.258       17.687      950.409      742.985      312.842        0.165        0.100       35.628       22.378        0.394      341.506       16.264      861.765
09/15/2014  02:53:00      -14.706       -9.475        3.278       19.455       14.169       14.162      378.493      200.758      200.566        0.055        0.039       17.494       12.573        0.517      341.464       16.195      861.756
09/15/2014  02:54:00      -54.215      -22.665       -4.459       17.033        9.998       11.984      290.133       99.955      143.623        0.200        0.027       58.762        8.745        0.022      341.568       16.369      861.745
09/15/2014  02:55:00      -44.923      -29.453       -2.445       22.129        8.033        8.550      489.709       64.532       73.098        0.176        0.031       53.717        4.378        0.007      341.503       16.258      861.737
09/15/2014  02:56:00      -67.156      -29.873       -2.286       30.345       13.382       11.394      920.849      179.083      129.831        0.332        0.061       73.501       13.137        0.032      341.537       16.317      861.756
09/15/2014  02:57:00     -109.217      -59.023       -2.375       20.930       17.536       13.589      438.054      307.498      184.654        0.817        0.047      124.146       11.589        0.009      341.462       16.191      861.762
09/15/2014  02:58:00      -61.273      -42.959        2.311       40.159       29.420       24.158     1612.718      865.557      583.604        0.433        0.153       74.832       21.291        0.081      341.405       16.094      861.764
09/15/2014  02:59:00      -64.514      -47.412        5.373       36.769       28.291       22.725     1351.981      800.398      516.447        0.455        0.133       80.062       20.859        0.068      341.383       16.057      861.760
09/15/2014  03:00:00     -124.470      -44.810      -11.700       19.540       19.476       15.358      381.813      379.305      235.873        0.932        0.050      132.290        8.062        0.004      341.433       16.141      861.769
09/15/2014  03:01:00     -104.590      -40.965        2.064       36.864       23.300       21.145     1358.921      542.875      447.128        0.748        0.117      112.326       22.715        0.041      341.382       16.055      861.783
09/15/2014  03:02:00      -20.956      -26.466        9.096       37.040       29.284       20.986     1371.969      857.528      440.420        0.195        0.133       33.758       21.667        0.412      341.425       16.129      861.779
09/15/2014  03:03:00      -59.216      -57.683        0.459       39.894       34.389       17.511     1591.502     1182.600      306.652        0.496        0.154       82.667       16.228        0.039      341.446       16.164      861.778
09/15/2014  03:04:00     -109.070      -66.190       -1.651       29.928       30.214       17.025      895.695      912.908      289.845        0.919        0.105      127.583       13.868        0.012      341.409       16.101      861.772
09/15/2014  03:05:00      -74.177      -48.487        8.761       37.539       24.935       18.210     1409.190      621.749      331.603        0.515        0.118       88.618       18.040        0.041      341.402       16.089      861.770
09/15/2014  03:06:00      -82.124      -49.324        5.786       27.883       21.801       16.022      777.474      475.281      256.711        0.536        0.075       95.798       12.823        0.018      341.420       16.120      861.755
09/15/2014  03:07:00      -58.341      -43.482        0.219       28.706       26.163       16.392      824.040      684.520      268.693        0.354        0.089       72.762       13.583        0.035      341.427       16.131      861.754
09/15/2014  03:08:00      -15.692      -16.176        7.498       38.667       27.800       15.788     1495.102      772.825      249.260        0.154        0.126       22.536       15.734        0.487      341.411       16.104      861.752
09/15/2014  03:09:00      -39.936      -39.906        5.821       37.464       26.927       19.085     1403.526      725.045      364.235        0.286        0.125       56.457       19.357        0.118      341.314       15.941      861.761
09/15/2014  03:10:00      -61.788      -50.348       -1.260       39.033       21.887       18.756     1523.545      479.026      351.783        0.435        0.118       79.704       12.282        0.024      341.305       15.926      861.760
09/15/2014  03:11:00      -91.584      -41.257       -2.994       17.898       10.808        9.833      320.323      116.808       96.689        0.532        0.027      100.448        4.282        0.002      341.332       15.970      861.747
09/15/2014  03:12:00      -77.807      -55.459       -7.880       16.348       15.007       12.468      267.243      225.200      155.453        0.492        0.032       95.549        8.483        0.008      341.426       16.131      861.738
09/15/2014  03:13:00      -92.043      -42.366       -3.975       14.291       16.749       12.433      204.246      280.536      154.586        0.546        0.032      101.325        6.596        0.004      341.427       16.131      861.737
09/15/2014  03:14:00      -39.353      -19.409        7.767       27.980       18.677       15.278      782.888      348.838      233.411        0.168        0.068       43.880       15.140        0.119      341.309       15.932      861.734
09/15/2014  03:15:00      -62.047       -9.598       -4.258       17.826       23.071        9.271      317.778      532.275       85.956        0.245        0.047       62.785        5.852        0.009      341.309       15.933      861.724
09/15/2014  03:16:00      -71.004       -3.569       -2.730       13.989        9.868        9.568      195.696       97.370       91.547        0.272        0.019       71.094        6.723        0.009      341.275       15.875      861.724
09/15/2014  03:17:00      -67.126       -1.505       -4.352       19.152        7.958        7.470      366.781       63.329       55.802        0.251        0.024       67.142        8.276        0.015      341.315       15.941      861.726
09/15/2014  03:18:00      -65.994       -1.442       -6.747       13.786       11.422        8.870      190.065      130.460       78.676        0.240        0.020       66.009        7.826        0.014      341.355       16.010      861.727
09/15/2014  03:19:00      -82.179      -22.826       -5.347       13.514       15.256        8.781      182.628      232.751       77.109        0.390        0.025       85.290        3.953        0.002      341.371       16.037      861.715
09/15/2014  03:20:00      -85.959      -22.123       -2.942       17.880       17.248       11.172      319.699      297.483      124.817        0.431        0.037       88.760        6.756        0.006      341.244       15.823      861.705
09/15/2014  03:21:00      -85.974      -27.851        0.241       21.809       13.684       10.639      475.642      187.252      113.180        0.447        0.039       90.373       11.533        0.016      341.183       15.718      861.719
09/15/2014  03:22:00      -59.490      -32.012       -0.856       20.674       13.560       11.629      427.430      183.877      135.233        0.266        0.037       67.556       10.826        0.026      341.229       15.795      861.731
09/15/2014  03:23:00      -61.290      -39.527        0.135       21.544       13.930       11.575      464.154      194.040      133.976        0.306        0.040       72.930       10.780        0.022      341.230       15.798      861.738
09/15/2014  03:24:00      -48.833      -40.278       -5.842       18.146       12.915       11.290      329.276      166.785      127.460        0.233        0.031       63.301        8.802        0.019      341.297       15.911      861.737
09/15/2014  03:25:00      -62.074      -40.789       -4.912       16.270       11.455       12.600      264.724      131.220      158.764        0.305        0.028       74.276        9.122        0.015      341.251       15.834      861.743
09/15/2014  03:26:00      -65.328      -52.789       -2.315       16.674       15.646       11.164      278.019      244.803      124.628        0.385        0.032       83.990        6.648        0.006      341.310       15.935      861.757
09/15/2014  03:27:00      -50.548      -35.785        0.294       29.812       19.404       13.849      888.730      376.515      191.786        0.265        0.073       61.933       16.555        0.071      341.244       15.822      861.761
09/15/2014  03:28:00      -50.669      -43.797        2.723       40.277       26.757       16.462     1622.240      715.910      270.987        0.355        0.130       66.974       14.570        0.047      341.247       15.826      861.760
09/15/2014  03:29:00      -49.623      -46.182        4.604       40.394       22.239       19.634     1631.646      494.581      385.511        0.356        0.126       67.788       22.528        0.110      341.268       15.864      861.749
09/15/2014  03:30:00      -90.413      -73.597       -7.012       37.191       23.474       18.198     1383.195      551.015      331.169        0.795        0.113      116.580       17.935        0.024      341.376       16.044      861.740
09/15/2014  03:31:00      -61.671      -64.096        7.023       34.235       30.963       22.934     1172.038      958.716      525.956        0.531        0.133       88.947       17.673        0.039      341.370       16.035      861.745
09/15/2014  03:32:00      -26.326      -43.669        3.633       30.805       24.484       16.125      948.960      599.445      260.000        0.221        0.090       50.990       15.744        0.095      341.409       16.101      861.743
09/15/2014  03:33:00     -102.284      -46.755       -7.184       27.131       21.906       17.018      736.084      479.858      289.622        0.710        0.075      112.464       12.429        0.012      341.337       15.980      861.725
09/15/2014  03:34:00     -102.016      -39.834       -6.392       18.193       18.247       13.904      330.975      332.968      193.308        0.645        0.043      109.517        7.757        0.005      341.317       15.944      861.701
09/15/2014  03:35:00      -56.232      -36.929        3.275       39.605       24.201       16.437     1568.573      585.684      270.187        0.348        0.121       67.274       17.860        0.070      341.283       15.889      861.700
09/15/2014  03:36:00      -21.815      -31.001       11.396       28.198       26.217       16.980      795.130      687.351      288.309        0.167        0.089       37.907       15.980        0.178      341.280       15.884      861.720
09/15/2014  03:37:00      -26.879      -32.216        7.340       26.491       25.028       17.050      701.765      626.377      290.695        0.172        0.081       41.956       16.196        0.149      341.370       16.036      861.742
09/15/2014  03:38:00      -30.970      -17.441        9.391       35.418       18.735       16.795     1254.459      350.999      282.084        0.162        0.094       35.543       19.015        0.286      341.228       15.796      861.746
09/15/2014  03:39:00      -84.036      -48.362        0.214       29.220       28.192       16.493      853.816      794.763      272.014        0.566        0.096       96.959       12.548        0.017      341.287       15.896      861.747
09/15/2014  03:40:00      -91.343      -59.079       -3.682       26.437       25.038       19.426      698.925      626.880      377.388        0.677        0.085      108.783       13.116        0.015      341.301       15.919      861.744
09/15/2014  03:41:00      -87.088      -38.105        1.280       42.709       26.606       20.156     1824.101      707.884      406.283        0.599        0.147       95.060       16.635        0.031      341.275       15.875      861.748
09/15/2014  03:42:00     -116.133      -62.811       -3.240       38.121       30.549       19.272     1453.198      933.265      371.406        1.010        0.138      132.031       18.545        0.020      341.285       15.891      861.745
09/15/2014  03:43:00     -106.875      -20.264       -5.993       41.174       27.059       18.989     1695.266      732.186      360.568        0.733        0.139      108.779       21.358        0.039      341.170       15.696      861.722
09/15/2014  03:44:00     -108.934      -15.398       -6.205       35.872       21.326       21.922     1286.783      454.780      480.557        0.718        0.111      110.017       22.562        0.042      340.962       15.343      861.717
09/15/2014  03:45:00     -101.637      -30.511       -1.603       35.564       30.939       18.622     1264.832      957.206      346.779        0.692        0.128      106.118       18.095        0.029      340.951       15.326      861.735
09/15/2014  03:46:00      -84.770      -34.753        3.064       30.727       32.843       17.607      944.157     1078.634      309.995        0.537        0.117       91.617       13.901        0.023      340.926       15.284      861.749
09/15/2014  03:47:00     -132.190      -36.992       -4.293       22.715       19.510       12.485      515.989      380.655      155.866        0.996        0.053      137.269       10.096        0.005      341.001       15.412      861.746
09/15/2014  03:48:00     -115.275      -49.074        3.547       24.348       20.137       13.939      592.819      405.507      194.289        0.845        0.060      125.286       10.000        0.006      340.982       15.379      861.745
09/15/2014  03:49:00     -112.045      -28.341        3.047       34.814       24.496       18.479     1212.013      600.067      341.471        0.776        0.108      115.573       17.864        0.024      341.008       15.424      861.751
09/15/2014  03:50:00     -122.684      -44.166       -1.123       22.747       18.072       16.626      517.443      326.609      276.416        0.906        0.056      130.391       13.879        0.011      341.067       15.524      861.757
09/15/2014  03:51:00     -106.101      -43.334        5.252       39.557       22.238       20.058     1564.754      494.528      402.308        0.781        0.123      114.609       20.010        0.030      341.051       15.495      861.756
09/15/2014  03:52:00      -80.057      -44.274        1.945       40.722       22.958       14.229     1658.244      527.091      202.469        0.538        0.119       91.485       15.688        0.029      341.101       15.581      861.767
09/15/2014  03:53:00      -91.861      -33.544       -0.229       27.126       20.945       15.530      735.798      438.710      241.166        0.549        0.071       97.794       12.523        0.016      341.024       15.450      861.773
09/15/2014  03:54:00      -84.451      -49.694       -3.611       29.337       19.942       15.518      860.662      397.689      240.802        0.556        0.075       97.987       11.930        0.015      340.982       15.378      861.779
09/15/2014  03:55:00      -91.821      -47.515       -1.542       28.724       25.453       16.000      825.062      647.842      256.013        0.621        0.086      103.386       16.672        0.026      340.973       15.363      861.784
09/15/2014  03:56:00      -66.166      -44.045        4.929       35.224       26.014       19.104     1240.699      676.723      364.979        0.431        0.114       79.485       17.490        0.048      340.954       15.332      861.788
09/15/2014  03:57:00      -84.102      -52.674        5.488       37.447       28.221       20.465     1402.247      796.434      418.821        0.625        0.131       99.235       18.889        0.036      340.990       15.391      861.791
09/15/2014  03:58:00      -80.035      -53.643       10.023       54.172       29.639       19.437     2934.596      878.477      377.811        0.679        0.210       96.349       22.077        0.053      340.932       15.294      861.790
09/15/2014  03:59:00     -118.087      -66.238        3.460       39.453       35.510       20.692     1556.565     1260.973      428.153        1.079        0.162      135.395       16.647        0.015      340.953       15.330      861.782
09/15/2014  04:00:00     -102.322      -27.826       -2.000       40.138       28.497       19.939     1611.084      812.102      397.569        0.703        0.141      106.038       21.855        0.042      340.907       15.252      861.782
09/15/2014  04:01:00     -127.289      -30.648      -10.583       18.478       19.328       13.919      341.437      373.554      193.730        0.908        0.045      130.927        9.874        0.006      340.880       15.206      861.774
09/15/2014  04:02:00     -114.123      -41.487       -2.451       30.425       24.815       17.468      925.655      615.797      305.128        0.830        0.092      121.430       17.233        0.020      340.788       15.050      861.763
09/15/2014  04:03:00     -148.253      -50.474       -8.335       21.650       25.122       12.468      468.737      631.132      155.456        1.293        0.063      156.609        6.375        0.002      340.758       14.999      861.757
09/15/2014  04:04:00     -138.301      -51.409       -8.314       16.529       17.657       13.358      273.223      311.781      178.441        1.130        0.038      147.547        9.048        0.004      340.770       15.020      861.750
09/15/2014  04:05:00     -140.724      -43.847      -12.297       14.528       18.194       13.263      211.072      331.030      175.894        1.130        0.036      147.397       10.440        0.005      340.771       15.022      861.741
09/15/2014  04:06:00     -127.440      -48.807       -0.371       27.372       21.310       15.795      749.229      454.100      249.470        1.004        0.073      136.466       11.810        0.007      340.862       15.176      861.738
09/15/2014  04:07:00      -92.973      -64.866        2.347       35.537       22.140       15.959     1262.874      490.159      254.698        0.743        0.100      113.365       14.547        0.016      340.971       15.358      861.750
09/15/2014  04:08:00      -71.568      -52.323        7.201       42.436       27.348       21.600     1800.841      747.887      466.543        0.546        0.151       88.655       21.649        0.060      340.941       15.310      861.766
09/15/2014  04:09:00      -83.372      -55.251        4.019       42.102       31.008       20.573     1772.590      961.487      423.231        0.659        0.158      100.017       16.940        0.029      340.923       15.278      861.773
09/15/2014  04:10:00     -107.901      -61.416       -0.076       40.712       38.513       23.294     1657.502     1483.261      542.589        0.955        0.184      124.156       23.975        0.037      340.889       15.220      861.772
09/15/2014  04:11:00      -92.461      -76.814        1.835       35.212       39.828       21.331     1239.901     1586.308      455.017        0.887        0.164      120.206       17.125        0.020      340.973       15.363      861.775
09/15/2014  04:12:00      -89.226      -78.088        2.649       38.005       41.470       22.305     1444.398     1719.749      497.530        0.886        0.183      118.571       20.989        0.031      341.006       15.418      861.779
09/15/2014  04:13:00      -59.672      -38.217        6.799       44.639       33.239       26.908     1992.647     1104.836      724.025        0.444        0.191       70.862       25.557        0.130      341.032       15.464      861.786
09/15/2014  04:14:00      -89.522      -68.720        5.249       41.229       33.950       18.986     1699.802     1152.601      360.478        0.799        0.161      112.857       19.567        0.030      341.099       15.576      861.789
09/15/2014  04:15:00      -94.979      -37.900       -1.276       24.006       18.231       10.822      576.264      332.366      117.118        0.574        0.051      102.261       11.464        0.013      341.037       15.472      861.775
09/15/2014  04:16:00      -60.754      -25.069        2.414       34.091       14.401       13.335     1162.180      207.384      177.824        0.294        0.077       65.723       13.266        0.041      340.953       15.329      861.766
09/15/2014  04:17:00      -28.141      -25.147       10.624       33.600       21.394       17.298     1128.978      457.714      299.215        0.171        0.094       37.740       18.684        0.245      341.102       15.582      861.784
09/15/2014  04:18:00      -57.087      -32.129        4.241       33.262       20.164       17.250     1106.333      406.587      297.557        0.306        0.091       65.507       19.804        0.091      341.071       15.529      861.789
09/15/2014  04:19:00      -65.746      -52.318        1.468       33.197       28.180       15.917     1102.050      794.098      253.349        0.461        0.107       84.022       15.297        0.033      341.142       15.650      861.779
09/15/2014  04:20:00      -22.851      -27.628        9.946       26.679       22.755       19.050      711.743      517.804      362.912        0.149        0.080       35.853       17.773        0.246      341.146       15.655      861.779
09/15/2014  04:21:00      -38.718      -38.770        0.263       24.741       15.063       14.069      612.136      226.907      197.945        0.202        0.052       54.792        6.899        0.016      341.261       15.852      861.780
09/15/2014  04:22:00      -86.627      -37.026       -2.513       21.462       15.257       13.078      460.606      232.789      171.041        0.487        0.043       94.208        8.124        0.007      341.131       15.630      861.757
09/15/2014  04:23:00      -97.554      -43.049       -8.527       17.541       18.259       15.056      307.679      333.379      226.675        0.616        0.043      106.630        8.229        0.006      341.063       15.517      861.746
09/15/2014  04:24:00      -52.923      -73.849        1.767       38.364       41.897       21.960     1471.807     1755.359      482.244        0.598        0.185       90.854       23.716        0.068      341.055       15.503      861.766
09/15/2014  04:25:00      -64.296      -83.276        7.838       40.143       56.136       30.004     1611.457     3151.302      900.217        0.840        0.283      105.209       28.722        0.075      341.105       15.588      861.786
09/15/2014  04:26:00      -68.272      -17.771        7.187       43.415       33.312       22.821     1884.888     1109.678      520.800        0.427        0.176       70.547       19.176        0.074      341.121       15.614      861.787
09/15/2014  04:27:00     -113.022      -63.178        0.404       49.494       45.246       24.664     2449.657     2047.158      608.335        1.093        0.255      129.482       12.595        0.009      341.149       15.660      861.764
09/15/2014  04:28:00      -97.825      -62.425       -0.199       47.042       43.368       26.435     2212.910     1880.773      698.790        0.913        0.240      116.046       24.557        0.045      341.082       15.547      861.770
09/15/2014  04:29:00     -110.680      -84.911       -7.855       65.981       47.776       28.226     4353.525     2282.537      796.684        1.348        0.372      139.498       35.811        0.066      341.093       15.565      861.781
09/15/2014  04:30:00     -152.181     -100.013      -11.032       47.278       36.792       31.244     2235.210     1353.653      976.198        1.892        0.228      182.104       23.145        0.016      341.078       15.542      861.779
09/15/2014  04:31:00     -162.403      -93.086      -13.942       32.683       39.950       20.324     1068.189     1596.003      413.046        1.916        0.154      187.189       16.174        0.007      341.088       15.558      861.774
09/15/2014  04:32:00      -93.881      -70.173        2.629       42.385       31.939       22.292     1796.529     1020.084      496.936        0.853        0.166      117.209       16.999        0.021      341.072       15.531      861.765
09/15/2014  04:33:00      -20.040      -30.739       11.277       39.186       20.061       21.816     1535.573      402.447      475.950        0.194        0.121       36.695       14.411        0.154      341.103       15.583      861.775
09/15/2014  04:34:00      -15.270      -12.220       15.877       31.699       20.447       18.538     1004.834      418.083      343.641        0.120        0.088       19.558       13.841        0.501      341.082       15.547      861.791
09/15/2014  04:35:00      -54.049      -34.224        4.137       33.858       27.421       18.743     1146.378      751.932      351.286        0.318        0.112       63.973       18.589        0.084      341.047       15.489      861.808
09/15/2014  04:36:00      -25.904      -41.168        7.388       36.157       26.638       18.540     1307.299      709.574      343.728        0.239        0.118       48.640       20.699        0.181      341.113       15.601      861.804
09/15/2014  04:37:00      -35.492      -42.901        4.655       37.608       20.002       19.099     1414.340      400.063      364.772        0.265        0.109       55.679       18.681        0.113      341.079       15.542      861.807
09/15/2014  04:38:00      -42.501      -38.454       -1.114       27.489       25.968       13.459      755.634      674.358      181.144        0.245        0.081       57.315       12.804        0.050      341.082       15.547      861.812
09/15/2014  04:39:00      -63.989      -47.648        4.480       39.686       25.678       19.563     1575.009      659.348      382.713        0.450        0.131       79.781       19.457        0.059      341.052       15.498      861.819
09/15/2014  04:40:00      -87.997      -62.084        1.580       63.290       28.152       21.907     4005.646      792.551      479.897        0.844        0.264      107.693       25.187        0.055      340.987       15.386      861.828
09/15/2014  04:41:00      -87.561      -77.708        0.754       33.088       38.309       28.618     1094.846     1467.567      819.011        0.854        0.169      117.070       23.742        0.041      341.004       15.415      861.853
09/15/2014  04:42:00      -89.417     -104.097      -12.347       38.752       19.507       19.848     1501.738      380.507      393.933        1.063        0.114      137.228       16.879        0.015      341.012       15.428      861.856
09/15/2014  04:43:00     -106.278      -45.633       -2.053       31.701       25.104       18.616     1004.983      630.200      346.561        0.768        0.099      115.661       18.834        0.027      340.952       15.326      861.840
09/15/2014  04:44:00     -102.423      -57.329        2.021       28.795       17.846       12.170      829.156      318.495      148.108        0.754        0.065      117.375       13.118        0.012      340.974       15.365      861.827
09/15/2014  04:45:00     -113.512      -23.942        2.173       34.830       22.292       20.403     1213.119      496.947      416.271        0.779        0.106      116.009       19.226        0.027      340.916       15.268      861.836
09/15/2014  04:46:00      -93.387      -13.099        1.465       32.302       26.339       19.197     1043.418      693.746      368.531        0.550        0.105       94.302       14.937        0.025      340.766       15.013      861.856
09/15/2014  04:47:00      -76.019      -13.101        2.985       29.600       25.536       18.605      876.163      652.096      346.133        0.392        0.094       77.140       12.964        0.028      340.708       14.913      861.855
09/15/2014  04:48:00      -78.948      -22.438        3.848       47.400       27.620       18.964     2246.771      762.842      359.642        0.506        0.168       82.075       22.578        0.076      340.825       15.112      861.853
09/15/2014  04:49:00      -91.210      -35.090        1.414       30.253       20.287       17.451      915.245      411.564      304.533        0.559        0.082       97.727       14.750        0.023      340.779       15.035      861.847
09/15/2014  04:50:00      -95.661      -16.632       -7.497       16.588       15.961       13.340      275.167      254.757      177.959        0.510        0.035       97.096        7.315        0.006      340.708       14.915      861.851
09/15/2014  04:51:00      -90.152      -27.135       -8.406       16.771       14.055       11.711      281.269      197.530      137.143        0.478        0.031       94.147        6.096        0.004      340.750       14.987      861.845
09/15/2014  04:52:00      -31.399      -18.781        1.546       19.909       17.428       13.492      396.373      303.718      182.029        0.111        0.044       36.588       11.321        0.096      340.743       14.975      861.841
09/15/2014  04:53:00      -48.747      -36.125       -5.924       12.444       19.810        8.543      154.846      392.439       72.984        0.217        0.031       60.674        3.358        0.003      340.821       15.105      861.846
09/15/2014  04:54:00       14.701      -27.346        0.495       15.115       18.164        9.025      228.472      329.947       81.457        0.080        0.032       31.047        3.596        0.013      340.823       15.109      861.854
09/15/2014  04:55:00      -27.650      -21.586       -0.371       23.408       17.328       13.460      547.920      300.249      181.173        0.113        0.051       35.079        7.088        0.041      340.834       15.127      861.866
09/15/2014  04:56:00      -68.847      -49.446       -0.492       22.581       16.025       15.700      509.885      256.787      246.502        0.410        0.051       84.764       13.631        0.026      340.730       14.953      861.879
09/15/2014  04:57:00      -75.212      -40.092       -8.256       21.170       13.319       14.408      448.157      177.384      207.584        0.408        0.042       85.230       12.609        0.022      340.759       15.001      861.890
09/15/2014  04:58:00      -59.882      -25.379       -7.428       27.663       16.197       11.931      765.231      262.330      142.338        0.273        0.058       65.038        9.060        0.019      340.807       15.082      861.904
09/15/2014  04:59:00      -60.177      -29.901       -7.641       13.934       13.723        8.760      194.152      188.310       76.733        0.252        0.023       67.196        3.894        0.003      340.911       15.260      861.922
09/15/2014  05:00:00      -56.596      -29.408       -2.458       15.513       14.915        7.734      240.663      222.453       59.815        0.230        0.026       63.780        3.818        0.004      340.901       15.240      861.934
09/15/2014  05:01:00      -15.897      -21.136        8.717       21.046       15.092       14.416      442.914      227.761      207.835        0.083        0.044       26.447       12.356        0.218      340.846       15.148      861.931
09/15/2014  05:02:00      -72.210      -21.613       -0.328       12.610       13.443        7.538      159.016      180.725       56.827        0.304        0.020       75.375        3.609        0.002      340.856       15.165      861.924
09/15/2014  05:03:00      -90.903      -31.380       -2.160       12.516       11.552        8.724      156.660      133.447       76.109        0.481        0.018       96.167        4.995        0.003      340.816       15.098      861.924
09/15/2014  05:04:00      -81.724      -41.819       -0.330       23.202       19.330       14.440      538.329      373.649      208.504        0.477        0.056       91.802        4.353        0.002      340.874       15.196      861.937
09/15/2014  05:05:00      -21.917      -31.192        9.765       34.702       18.037       15.081     1204.215      325.323      227.424        0.165        0.088       38.122       15.066        0.156      340.886       15.215      861.950
09/15/2014  05:06:00      -37.020      -17.614        3.007       27.388       14.590       13.748      750.090      212.867      189.020        0.142        0.058       40.997       14.857        0.131      340.801       15.071      861.968
09/15/2014  05:07:00      -70.663      -20.836       -8.784       18.710       12.991        8.367      350.054      168.778       69.999        0.305        0.029       73.670        4.344        0.003      340.779       15.035      861.985
09/15/2014  05:08:00      -77.869      -47.598       -4.495       18.051       15.874       13.407      325.822      251.974      179.736        0.455        0.038       91.264        9.843        0.012      340.777       15.032      861.980
09/15/2014  05:09:00      -91.521      -28.519       -8.604       13.945       18.046       11.904      194.470      325.675      141.698        0.496        0.033       95.862        9.836        0.011      340.781       15.039      861.973
09/15/2014  05:10:00      -88.888      -19.740       -2.240       25.820       16.420       16.583      666.680      269.613      275.001        0.475        0.061       91.054       16.704        0.034      340.639       14.799      861.974
09/15/2014  05:11:00      -87.785      -31.992       -4.388       28.975       21.779       14.618      839.570      474.307      213.691        0.514        0.076       93.433       12.744        0.019      340.637       14.795      861.993
09/15/2014  05:12:00     -108.241      -45.206        4.447       30.403       17.467       13.261      924.324      305.097      175.865        0.759        0.070      117.301       10.572        0.008      340.693       14.889      862.003
09/15/2014  05:13:00     -112.600      -49.797       -3.053       19.136       19.174       13.831      366.182      367.651      191.297        0.805        0.046      123.120       11.056        0.008      340.703       14.908      862.008
09/15/2014  05:14:00      -85.852      -19.808       -2.268       30.900       18.308       12.945      954.822      335.189      167.560        0.461        0.073       88.108       14.449        0.027      340.684       14.875      861.997
09/15/2014  05:15:00      -75.109      -27.341       -7.362       13.774       18.852        9.695      189.714      355.388       94.000        0.354        0.032       79.931        4.024        0.003      340.805       15.078      861.984
09/15/2014  05:16:00      -48.434       -8.036       -8.052       10.383        9.870        7.751      107.797       97.408       60.078        0.137        0.013       49.096        7.373        0.023      340.773       15.024      861.976
09/15/2014  05:17:00      -58.680      -14.876       -3.367       23.084        8.787        6.946      532.892       77.206       48.252        0.217        0.033       60.536        9.040        0.022      340.797       15.065      861.969
09/15/2014  05:18:00      -95.770      -19.926      -10.930       11.452       10.456        7.375      131.143      109.328       54.391        0.499        0.015       97.821        5.084        0.003      340.799       15.068      861.974
09/15/2014  05:19:00     -111.961      -36.801       -4.266       17.575       19.642       10.664      308.895      385.795      113.727        0.736        0.040      117.854        5.866        0.002      340.687       14.879      861.993
09/15/2014  05:20:00     -120.036      -39.256       -6.619       14.529       17.402       10.439      211.106      302.843      108.966        0.831        0.031      126.292        3.280        0.001      340.581       14.701      862.011
09/15/2014  05:21:00      -76.885      -23.049        2.604       27.843       20.566       13.950      775.252      422.948      194.590        0.392        0.070       80.266       14.438        0.032      340.531       14.616      862.010
09/15/2014  05:22:00      -75.054      -16.439       -3.426       14.910       14.358       11.605      222.304      206.165      134.680        0.324        0.028       76.833        7.223        0.009      340.563       14.669      861.992
09/15/2014  05:23:00      -69.653      -35.397       -6.048       15.033        9.153        9.492      225.982       83.771       90.102        0.327        0.020       78.131        5.305        0.005      340.714       14.925      861.992
09/15/2014  05:24:00      -68.735      -51.554       -9.565       12.068       15.661       10.173      145.636      245.254      103.491        0.398        0.025       85.920        7.970        0.009      340.773       15.024      862.006
09/15/2014  05:25:00      -47.779      -40.541       -1.827       26.387       20.856       15.004      696.268      434.970      225.106        0.264        0.068       62.661       10.122        0.026      340.716       14.929      862.011
09/15/2014  05:26:00      -97.293      -33.416        0.891       21.190       18.560       13.114      449.003      344.489      171.969        0.577        0.048      102.872       10.996        0.011      340.760       15.003      862.020
09/15/2014  05:27:00      -77.162      -37.623       -2.797       24.412       19.403       12.487      595.927      376.458      155.913        0.425        0.056       85.846        9.050        0.011      340.713       14.925      862.012
09/15/2014  05:28:00      -74.711      -21.069       -4.784       20.961       11.628       13.102      439.374      135.214      171.657        0.340        0.037       77.625        9.922        0.016      340.743       14.973      862.007
09/15/2014  05:29:00      -79.732      -29.387      -11.437        9.870       12.232        8.409       97.425      149.618       70.715        0.383        0.016       84.975        5.748        0.005      340.777       15.032      861.995
09/15/2014  05:30:00      -63.690       -4.706       -1.637       13.795        9.899        8.500      190.290       98.000       72.249        0.222        0.018       63.863        6.197        0.009      340.660       14.833      861.988
09/15/2014  05:31:00      -68.121      -20.263       -6.111       11.277        8.769        7.518      127.167       76.904       56.516        0.267        0.013       71.071        5.010        0.005      340.667       14.847      861.995
09/15/2014  05:32:00      -47.496      -25.563        6.302       28.382       14.468       12.188      805.518      209.310      148.551        0.206        0.058       53.938       14.314        0.070      340.611       14.751      862.022
09/15/2014  05:33:00      -63.688      -38.156       -0.871       32.507       19.050       14.511     1056.712      362.897      210.571        0.357        0.082       74.243       15.923        0.046      340.558       14.660      862.057
09/15/2014  05:34:00      -46.458      -46.049        7.108       28.512       18.676       17.899      812.923      348.798      320.376        0.291        0.074       65.413       15.382        0.055      340.561       14.665      862.082
09/15/2014  05:35:00      -80.281      -19.882       -2.666       44.835       20.156       20.906     2010.208      406.253      437.062        0.485        0.143       82.706       12.001        0.021      340.663       14.840      862.089
09/15/2014  05:36:00      -92.747      -53.557        2.144       37.599       29.323       22.732     1413.710      859.833      516.754        0.713        0.140      107.100       20.664        0.037      340.722       14.939      862.083
09/15/2014  05:37:00     -115.912      -66.773       -3.898       54.276       31.419       23.806     2945.874      987.161      566.715        1.120        0.225      133.769       27.078        0.041      340.715       14.927      862.063
09/15/2014  05:38:00     -102.652      -70.240      -10.486       36.381       23.416       20.288     1323.608      548.316      411.617        0.893        0.114      124.383       15.517        0.016      340.674       14.857      862.065
09/15/2014  05:39:00      -72.421      -63.245        0.353       47.477       33.171       22.769     2254.106     1100.299      518.414        0.656        0.194       96.149       19.753        0.042      340.618       14.762      862.080
09/15/2014  05:40:00     -103.922      -55.418        2.209       29.060       24.313       20.931      844.472      591.104      438.096        0.787        0.094      117.775       18.109        0.024      340.577       14.694      862.103
09/15/2014  05:41:00     -108.258      -16.909       -7.885       32.463       27.151       19.666     1053.829      737.154      386.759        0.712        0.109      109.570       17.367        0.025      340.507       14.575      862.115
09/15/2014  05:42:00     -131.189      -32.119       -7.820       22.852       17.305       16.096      522.202      299.457      259.087        0.969        0.054      135.064       13.190        0.010      340.469       14.511      862.115
09/15/2014  05:43:00     -112.383      -42.749       -1.169       36.665       27.715       19.620     1344.322      768.111      384.927        0.848        0.125      120.239       14.873        0.015      340.478       14.525      862.130
09/15/2014  05:44:00      -77.444      -49.524       -7.698       32.753       23.772       17.715     1072.749      565.118      313.837        0.523        0.098       91.925       12.854        0.020      340.427       14.440      862.154
09/15/2014  05:45:00     -103.059      -55.548       -6.214       22.227       22.682       14.353      494.038      514.456      206.021        0.748        0.061      117.076       11.766        0.010      340.375       14.352      862.174
09/15/2014  05:46:00     -131.109      -69.768       -4.155       22.226       24.445       19.224      494.017      597.540      369.554        1.177        0.073      148.517       10.247        0.005      340.448       14.474      862.204
09/15/2014  05:47:00     -131.496      -90.875       -4.156       34.394       27.329       18.189     1182.954      746.893      330.825        1.391        0.113      159.842       13.734        0.007      340.513       14.585      862.217
09/15/2014  05:48:00     -117.018      -44.708        6.112       34.860       33.493       20.734     1215.204     1121.801      429.878        0.925        0.138      125.268       16.133        0.017      340.496       14.556      862.239
09/15/2014  05:49:00     -130.435      -41.680        1.184       29.327       29.553       20.211      860.093      873.361      408.497        1.045        0.107      136.932       19.967        0.021      340.585       14.709      862.247
09/15/2014  05:50:00     -135.375      -52.569        1.039       32.900       31.113       20.687     1082.438      967.997      427.972        1.178        0.124      145.223       16.822        0.013      340.626       14.776      862.251
09/15/2014  05:51:00     -109.100      -33.198        7.525       48.849       33.021       23.929     2386.210     1090.376      572.599        0.855        0.202      114.039       25.226        0.049      340.623       14.771      862.254
09/15/2014  05:52:00     -126.295      -46.173        5.399       49.181       30.036       23.063     2418.798      902.174      531.906        1.098        0.193      134.471       24.551        0.033      340.637       14.796      862.277
09/15/2014  05:53:00      -85.517      -30.990        4.298       52.866       34.914       20.554     2794.771     1218.957      422.449        0.636        0.222       90.959       23.183        0.065      340.658       14.830      862.293
09/15/2014  05:54:00      -98.709      -25.885       -3.825       43.333       28.027       20.009     1877.719      785.525      400.370        0.675        0.153      102.047       25.944        0.065      340.685       14.875      862.291
09/15/2014  05:55:00     -100.606      -23.481        3.080       37.493       28.568       20.779     1405.736      816.141      431.752        0.667        0.133      103.310       18.698        0.033      340.603       14.738      862.281
09/15/2014  05:56:00     -110.856      -35.675        0.617       36.840       28.530       20.017     1357.177      813.977      400.690        0.807        0.129      116.455       18.307        0.025      340.540       14.631      862.281
09/15/2014  05:57:00      -92.847      -43.014        2.524       41.151       27.418       20.562     1693.422      751.726      422.813        0.667        0.143      102.327       19.860        0.038      340.592       14.719      862.289
09/15/2014  05:58:00      -95.298      -36.817        3.489       33.696       28.482       15.080     1135.413      811.231      227.415        0.631        0.109      102.163       13.815        0.018      340.589       14.712      862.310
09/15/2014  05:59:00      -80.780      -32.390        1.517       33.479       19.960       15.798     1120.834      398.419      249.579        0.467        0.088       87.032       15.266        0.031      340.623       14.770      862.337
09/15/2014  06:00:00      -74.913      -21.973        3.531       41.781       28.089       16.645     1745.657      789.000      277.063        0.446        0.141       78.069       19.275        0.061      340.587       14.710      862.353
09/15/2014  06:01:00     -114.254      -45.903       -3.093       33.305       26.731       16.298     1109.200      714.540      265.609        0.863        0.104      123.130       18.217        0.022      340.701       14.902      862.356
09/15/2014  06:02:00     -112.138      -49.015       -0.986       31.170       20.836       16.358      971.542      434.124      267.598        0.833        0.084      122.382       15.717        0.016      340.672       14.855      862.351
09/15/2014  06:03:00      -94.472      -45.128       -1.097       35.235       30.512       15.590     1241.536      930.960      243.053        0.669        0.121      104.697       16.366        0.024      340.657       14.829      862.341
09/15/2014  06:04:00      -77.474      -41.118        1.087       36.324       25.014       15.225     1319.459      625.697      231.794        0.494        0.109       87.709       13.754        0.025      340.681       14.870      862.343
09/15/2014  06:05:00      -88.068      -43.827       -2.682       15.434       19.600       12.541      238.220      384.143      157.283        0.523        0.039       98.370        8.977        0.008      340.638       14.797      862.363
09/15/2014  06:06:00      -63.228      -45.133        2.597       35.338       20.017       18.415     1248.805      400.690      339.116        0.401        0.099       77.684       20.118        0.067      340.646       14.810      862.372
09/15/2014  06:07:00      -73.548      -40.157       -4.249       25.178       19.522       11.984      633.945      381.103      143.627        0.410        0.058       83.797        6.919        0.007      340.617       14.761      862.376
09/15/2014  06:08:00      -54.858      -49.867       -0.612       28.344       25.634       16.412      803.359      657.101      269.365        0.361        0.086       74.136       13.126        0.031      340.568       14.679      862.382
09/15/2014  06:09:00     -103.333      -53.085       -5.219       23.001       28.351       15.081      529.039      803.783      227.421        0.754        0.078      116.171       15.299        0.017      340.511       14.582      862.391
09/15/2014  06:10:00      -64.707      -45.653        2.694       43.583       32.132       17.416     1899.466     1032.474      303.307        0.476        0.162       79.191       14.646        0.034      340.494       14.553      862.421
09/15/2014  06:11:00      -75.358      -41.001       -0.305       29.525       24.939       14.465      871.742      621.942      209.237        0.453        0.085       85.790        7.126        0.007      340.545       14.640      862.461
09/15/2014  06:12:00      -59.598      -37.991        3.508       24.635       19.862       12.727      606.906      394.515      161.985        0.309        0.058       70.677       11.445        0.026      340.572       14.685      862.486
09/15/2014  06:13:00      -61.191      -54.258       -2.909       22.857       14.958       10.901      522.424      223.752      118.834        0.378        0.043       81.782        8.640        0.011      340.717       14.929      862.497
09/15/2014  06:14:00      -72.448      -44.456       -4.899       11.024       13.652       12.086      121.524      186.390      146.078        0.385        0.023       85.001        8.246        0.009      340.706       14.911      862.493
09/15/2014  06:15:00      -56.820      -48.567       -7.985       10.458       10.646        5.715      109.375      113.338       32.667        0.295        0.013       74.748        4.360        0.003      340.686       14.878      862.492
09/15/2014  06:16:00      -29.644      -35.884        1.450       19.610       12.291       13.493      384.556      151.081      182.051        0.144        0.036       46.545        9.876        0.045      340.741       14.971      862.498
09/15/2014  06:17:00      -52.046      -22.586        0.323       20.074       11.507        9.262      402.970      132.422       85.779        0.192        0.031       56.735       10.670        0.035      340.664       14.841      862.519
09/15/2014  06:18:00      -72.263      -37.897       -7.146       12.669       11.320        8.042      160.509      128.151       64.671        0.353        0.018       81.597        4.855        0.004      340.630       14.784      862.535
09/15/2014  06:19:00      -71.908      -21.510      -12.876       12.764       16.665        8.838      162.920      277.707       78.112        0.316        0.026       75.057        5.311        0.005      340.754       14.994      862.537
09/15/2014  06:20:00      -71.207      -43.189      -18.045       15.497        6.244        8.103      240.167       38.986       65.662        0.380        0.017       83.281        4.354        0.003      340.631       14.786      862.536
09/15/2014  06:21:00      -98.286      -46.914      -10.466       16.197       13.966       11.103      262.336      195.060      123.279        0.628        0.029      108.908        5.111        0.002      340.536       14.622      862.543
09/15/2014  06:22:00     -107.448      -45.958       -4.623       22.014       15.462       14.804      484.618      239.063      219.165        0.731        0.047      116.864       10.508        0.008      340.456       14.491      862.560
09/15/2014  06:23:00      -90.636      -41.477        0.159       26.369       19.492       12.876      695.324      379.944      165.780        0.559        0.062       99.676       13.465        0.018      340.496       14.558      862.578
09/15/2014  06:24:00      -81.319      -36.363       -5.492       16.290       13.085       10.213      265.374      171.211      104.304        0.425        0.027       89.079        6.751        0.006      340.528       14.611      862.582
09/15/2014  06:25:00      -48.047      -38.416       -6.845       27.225       14.124       10.491      741.206      199.479      110.064        0.244        0.053       61.517        9.296        0.023      340.592       14.720      862.578
09/15/2014  06:26:00      -13.608      -24.209        4.359       16.097       16.844       11.163      259.128      283.711      124.611        0.073        0.033       27.772        6.729        0.059      340.635       14.793      862.573
09/15/2014  06:27:00      -20.054      -13.592        6.689       12.057        9.752        8.937      145.360       95.105       79.879        0.048        0.016       24.226        6.383        0.069      340.640       14.801      862.569
09/15/2014  06:28:00      -21.950      -20.407        2.000       28.675       11.423       11.370      822.275      130.489      129.276        0.099        0.054       29.970       15.654        0.273      340.674       14.857      862.570
09/15/2014  06:29:00      -41.067      -33.580       -3.862       10.233        9.528        8.114      104.707       90.784       65.840        0.155        0.013       53.048        3.268        0.004      340.718       14.933      862.570
09/15/2014  06:30:00      -60.086      -36.822      -10.707       12.178       10.525        8.582      148.315      110.774       73.643        0.271        0.017       70.471        5.427        0.006      340.747       14.982      862.567
09/15/2014  06:31:00      -75.914      -37.566       -5.885       13.911       11.578        7.771      193.521      134.050       60.384        0.380        0.019       84.700        4.896        0.003      340.675       14.861      862.571
09/15/2014  06:32:00      -68.150      -36.828       -1.193       23.092       14.648       13.319      533.223      214.577      177.406        0.346        0.046       77.464        7.596        0.010      340.609       14.745      862.584
09/15/2014  06:33:00      -45.382      -37.621       -2.882       32.342       24.679       15.489     1045.989      609.044      239.911        0.269        0.095       58.948        7.870        0.018      340.574       14.688      862.608
09/15/2014  06:34:00      -76.060      -63.165       -0.852       46.465       27.772       22.648     2158.999      771.287      512.953        0.661        0.172       98.868       29.281        0.088      340.597       14.727      862.639
09/15/2014  06:35:00      -89.526      -56.607       -5.795       27.223       18.202       16.866      741.087      331.320      284.447        0.630        0.068      105.921       10.794        0.010      340.646       14.810      862.652
09/15/2014  06:36:00      -82.126      -52.998       -0.263       34.064       21.067       17.527     1160.323      443.813      307.178        0.573        0.096       97.742       13.545        0.019      340.654       14.824      862.652
09/15/2014  06:37:00      -83.296      -60.616       -8.195       36.586       25.030       17.768     1338.551      626.518      315.697        0.648        0.114      103.017       12.282        0.014      340.629       14.783      862.663
09/15/2014  06:38:00      -97.577      -47.134        4.332       33.800       36.967       17.277     1142.409     1366.541      298.510        0.728        0.140      108.365       13.772        0.016      340.632       14.787      862.668
09/15/2014  06:39:00      -87.798      -67.542        1.042       47.728       40.611       23.901     2277.989     1649.231      571.237        0.838        0.225      110.772       21.638        0.038      340.617       14.761      862.683
09/15/2014  06:40:00      -85.830      -69.645        1.542       46.007       33.787       26.730     2116.641     1141.567      714.513        0.810        0.199      110.532       23.015        0.043      340.626       14.776      862.697
09/15/2014  06:41:00      -63.751      -60.946        4.621       44.483       28.003       18.989     1978.777      784.187      360.582        0.546        0.156       88.197       19.895        0.051      340.646       14.812      862.719
09/15/2014  06:42:00      -40.231      -52.174        3.207       33.192       35.218       17.738     1101.699     1240.342      314.636        0.350        0.133       65.884       16.648        0.064      340.653       14.824      862.738
09/15/2014  06:43:00      -79.385      -91.288       -2.098       40.977       35.545       24.968     1679.144     1263.467      623.380        0.910        0.178      120.978       23.843        0.039      340.613       14.754      862.744
09/15/2014  06:44:00      -47.826      -46.341       13.284       49.633       36.638       22.946     2463.482     1342.375      526.509        0.447        0.217       66.594       27.304        0.168      340.638       14.798      862.753
09/15/2014  06:45:00      -78.775      -70.567       -1.896       30.751       28.056       17.756      945.606      787.156      315.280        0.662        0.102      105.761       17.104        0.026      340.689       14.884      862.768
09/15/2014  06:46:00      -57.165      -78.927       -3.998       40.651       42.360       24.439     1652.529     1794.337      597.277        0.678        0.202       97.454       25.559        0.069      340.669       14.850      862.785
09/15/2014  06:47:00      -96.075      -39.351        4.545       30.887       29.818       21.475      954.024      889.111      461.182        0.655        0.115      103.821       18.775        0.033      340.565       14.673      862.812
09/15/2014  06:48:00      -72.259      -41.691       -1.774       41.969       26.628       16.149     1761.425      709.076      260.788        0.485        0.137       83.424       12.915        0.024      340.536       14.624      862.833
09/15/2014  06:49:00      -95.209      -45.286       -5.646       16.532       16.781       14.432      273.312      281.598      208.277        0.596        0.038      105.430        9.712        0.008      340.548       14.645      862.832
09/15/2014  06:50:00      -84.064      -19.431       -1.181       28.789       28.213       18.371      828.793      795.959      337.500        0.470        0.098       86.280       13.783        0.026      340.496       14.558      862.826
09/15/2014  06:51:00      -78.769      -13.175       -4.995       28.079       21.436       13.286      788.405      459.509      176.528        0.391        0.071       79.863       11.360        0.020      340.364       14.333      862.813
09/15/2014  06:52:00      -92.935       -7.502      -11.007       28.943       19.894       15.924      837.676      395.791      253.576        0.515        0.074       93.237       14.059        0.023      340.345       14.302      862.820
09/15/2014  06:53:00      -87.522      -28.728       -0.341       28.226       30.329       13.298      796.679      919.829      176.846        0.519        0.095       92.116       10.129        0.012      340.379       14.359      862.839
09/15/2014  06:54:00      -84.839      -43.606        9.732       33.664       29.347       18.814     1133.280      861.227      353.977        0.577        0.117       95.389       18.309        0.037      340.408       14.407      862.871
09/15/2014  06:55:00      -83.867      -20.610        8.329       41.413       29.800       19.969     1715.067      888.063      398.763        0.526        0.150       86.362       19.706        0.052      340.384       14.367      862.892
09/15/2014  06:56:00      -86.705      -36.664        0.978       43.356       27.061       14.865     1879.711      732.298      220.972        0.585        0.142       94.139       16.027        0.029      340.465       14.506      862.897
09/15/2014  06:57:00      -87.328      -32.170        3.063       28.339       20.103       14.423      803.086      404.112      208.014        0.504        0.071       93.065       16.656        0.032      340.499       14.560      862.890
09/15/2014  06:58:00      -67.630      -35.473        3.270       25.021       15.346       12.370      626.054      235.513      153.015        0.343        0.051       76.368        7.607        0.010      340.550       14.648      862.888
09/15/2014  06:59:00      -77.360      -33.010       -0.979       26.844       22.541       13.199      720.623      508.076      174.214        0.424        0.070       84.109       13.633        0.026      340.623       14.772      862.892
09/15/2014  07:00:00      -59.753      -31.794        3.176       38.136       19.089       16.562     1454.343      364.387      274.288        0.334        0.105       67.685       19.066        0.079      340.618       14.762      862.906
09/15/2014  07:01:00      -42.870      -25.385        7.133       25.505       18.862       14.660      650.494      355.757      214.918        0.188        0.061       49.822       14.306        0.082      340.654       14.821      862.911
09/15/2014  07:02:00      -48.583      -27.606       -0.214       23.928       11.323       10.221      572.558      128.210      104.464        0.196        0.040       55.879        6.901        0.015      340.637       14.795      862.910
09/15/2014  07:03:00      -85.809      -42.204       -1.555       13.886       15.338       10.971      192.830      235.268      120.373        0.485        0.027       95.626        7.754        0.007      340.556       14.660      862.887
09/15/2014  07:04:00      -79.436      -40.769       -0.168       28.065       18.496       14.512      787.656      342.098      210.585        0.466        0.067       89.287       13.760        0.024      340.629       14.783      862.880
09/15/2014  07:05:00      -16.749      -22.904       12.861       17.150       19.437       14.979      294.129      377.799      224.362        0.093        0.045       28.374        8.466        0.089      340.657       14.829      862.899
09/15/2014  07:06:00      -47.483      -39.530       -1.423       34.504       22.550       17.409     1190.548      508.486      303.067        0.291        0.100       61.784       16.724        0.073      340.720       14.935      862.917
09/15/2014  07:07:00      -49.681      -48.819        2.171       40.494       28.404       18.889     1639.725      806.760      356.811        0.383        0.140       69.653       18.786        0.073      340.729       14.951      862.935
09/15/2014  07:08:00     -101.908      -52.755       -1.001       34.387       32.379       19.333     1182.474     1048.388      373.746        0.789        0.130      114.754       15.880        0.019      340.671       14.854      862.938
09/15/2014  07:09:00      -93.118      -65.278       -0.921       46.768       33.559       26.454     2187.234     1126.180      699.826        0.847        0.201      113.720       24.410        0.046      340.659       14.832      862.928
09/15/2014  07:10:00      -77.789      -50.201        4.762       46.231       41.295       25.266     2137.314     1705.241      638.379        0.654        0.224       92.581       25.314        0.075      340.684       14.874      862.921
09/15/2014  07:11:00      -69.174      -47.545        1.859       42.056       22.653       18.085     1768.684      513.149      327.056        0.483        0.130       83.939       22.744        0.073      340.704       14.907      862.905
09/15/2014  07:12:00      -23.362      -23.531        6.757       20.873       20.382       11.847      435.687      415.437      140.350        0.107        0.050       33.159       10.163        0.094      340.754       14.993      862.899
09/15/2014  07:13:00      -21.491      -34.435        7.377       34.107       19.750       12.748     1163.282      390.052      162.508        0.171        0.086       40.591        6.233        0.024      340.788       15.051      862.902
09/15/2014  07:14:00      -15.768      -26.104        5.504       19.956       18.406        9.723      398.250      338.770       94.542        0.090        0.042       30.497        8.526        0.078      340.812       15.090      862.911
09/15/2014  07:15:00        1.764      -16.125        0.290       15.680       12.634        9.150      245.856      159.614       83.717        0.038        0.024       16.221        7.625        0.221      340.900       15.239      862.930
09/15/2014  07:16:00       -8.350      -22.179        5.073       16.997       15.157       10.526      288.889      229.738      110.792        0.061        0.031       23.699        9.030        0.145      340.860       15.172      862.948
09/15/2014  07:17:00      -19.337      -20.701        7.450       24.506       20.789       15.937      600.555      432.198      254.002        0.107        0.064       28.327       15.971        0.318      340.764       15.008      862.963
09/15/2014  07:18:00      -40.802      -56.718       -0.078       34.576       37.413       24.283     1195.524     1399.754      589.688        0.403        0.159       69.869       17.409        0.062      340.672       14.854      862.981
09/15/2014  07:19:00      -51.476      -65.221        0.259       33.516       34.880       22.230     1123.333     1216.599      494.155        0.487        0.142       83.087       25.257        0.092      340.645       14.808      862.981
09/15/2014  07:20:00     -102.290      -36.744       -4.477       24.686       23.801       15.897      609.419      566.510      252.714        0.663        0.071      108.689        8.808        0.007      340.701       14.903      862.964
09/15/2014  07:21:00      -95.058      -62.050        1.258       36.950       34.981       23.310     1365.288     1223.702      543.358        0.801        0.157      113.518       18.815        0.027      340.686       14.879      862.956
09/15/2014  07:22:00      -69.065      -59.516        1.727       30.867       40.024       17.373      952.761     1601.949      301.812        0.559        0.143       91.171       14.794        0.026      340.741       14.970      862.976
09/15/2014  07:23:00      -79.163      -86.084       -3.713       34.617       25.679       24.570     1198.315      659.425      603.677        0.808        0.123      116.950       25.720        0.048      340.722       14.937      862.994
09/15/2014  07:24:00      -71.645      -57.570       -2.894       17.622       24.322       14.354      310.536      591.538      206.023        0.478        0.055       91.909       10.117        0.012      340.728       14.950      862.989
09/15/2014  07:25:00      -20.564      -21.465        4.502       24.778       18.919       14.031      613.950      357.914      196.868        0.104        0.058       29.726       15.510        0.272      340.760       15.005      862.981
09/15/2014  07:26:00      -57.047      -26.631      -10.243       10.460       15.983        8.169      109.420      255.465       66.726        0.225        0.022       62.957        3.774        0.004      340.792       15.056      862.973
09/15/2014  07:27:00      -51.910      -24.906       -0.026       23.996       15.365       11.308      575.822      236.097      127.868        0.213        0.047       57.576        8.301        0.021      340.746       14.979      862.979
09/15/2014  07:28:00      -54.788      -29.478        1.155       16.112       20.605       10.718      259.592      424.573      114.884        0.234        0.040       62.215        9.614        0.024      340.760       15.002      862.989
09/15/2014  07:29:00      -63.622       -2.618        0.717       26.598       16.858       14.918      707.467      284.191      222.544        0.263        0.061       63.676       14.808        0.054      340.552       14.651      863.003
09/15/2014  07:30:00      -68.590      -26.961       -0.346       22.395       18.477       11.688      501.519      341.392      136.614        0.321        0.049       73.699       11.850        0.026      340.532       14.618      863.019
09/15/2014  07:31:00      -85.324      -25.089        1.150       31.850       16.710       16.171     1014.430      279.234      261.510        0.473        0.078       88.936       16.505        0.034      340.627       14.778      863.022
09/15/2014  07:32:00      -71.441      -38.869        4.705       27.400       18.569       15.045      750.753      344.805      226.358        0.398        0.066       81.330       12.024        0.022      340.711       14.920      863.015
09/15/2014  07:33:00      -80.387       -7.301       -2.191       32.813       19.777       19.577     1076.664      391.128      383.260        0.419        0.093       80.718       19.256        0.057      340.592       14.719      863.009
09/15/2014  07:34:00      -68.726       -3.929       -1.544       27.868       12.469       12.247      776.652      155.478      149.994        0.291        0.054       68.838       12.642        0.034      340.615       14.758      863.003
09/15/2014  07:35:00      -41.380       -3.887       -0.122       37.602       15.891       12.535     1413.928      252.515      157.117        0.178        0.091       41.562       16.852        0.164      340.692       14.888      863.002
09/15/2014  07:36:00      -29.721       -4.901        4.552       18.524       14.708       11.918      343.146      216.338      142.048        0.081        0.035       30.122        7.463        0.061      340.697       14.897      863.013
09/15/2014  07:37:00      -42.480       -7.978       -0.581       12.557       15.758       10.950      157.672      248.309      119.913        0.120        0.026       43.222       10.051        0.054      340.701       14.904      863.013
09/15/2014  07:38:00      -33.417        2.212       -5.199       21.412       11.126       10.580      458.472      123.784      111.931        0.092        0.035       33.490       12.970        0.150      340.710       14.919      863.015
09/15/2014  07:39:00      -45.116        5.440       -2.652       17.959       11.383        8.425      322.524      129.568       70.981        0.130        0.026       45.443        7.357        0.026      340.740       14.970      863.007
09/15/2014  07:40:00      -78.086        0.339      -11.794        7.992        8.352        7.244       63.877       69.762       52.474        0.321        0.009       78.087        3.993        0.003      340.799       15.069      863.004
09/15/2014  07:41:00      -67.645       -8.459       -8.495       11.314       12.265        9.453      128.001      150.431       89.352        0.254        0.018       68.172        6.347        0.009      340.887       15.217      863.023
09/15/2014  07:42:00      -69.383      -15.546      -12.340       11.720        9.957        9.621      137.356       99.145       92.562        0.277        0.016       71.103        5.581        0.006      340.953       15.328      863.037
09/15/2014  07:43:00      -75.775      -13.287       -6.864       10.524       16.332       10.452      110.745      266.732      109.238        0.323        0.024       76.931        9.149        0.014      340.934       15.297      863.045
09/15/2014  07:44:00      -44.282      -23.903        2.256       21.963       12.872       12.101      482.387      165.678      146.430        0.167        0.040       50.322       12.721        0.064      341.016       15.436      863.052
09/15/2014  07:45:00      -31.393      -14.570       -4.716        8.327        6.244        6.119       69.342       38.982       37.448        0.068        0.007       34.609        5.444        0.025      341.059       15.509      863.050
09/15/2014  07:46:00      -22.545      -29.472       -2.215        9.300        9.768        6.541       86.481       95.422       42.790        0.080        0.011       37.106        3.530        0.009      341.100       15.578      863.044
09/15/2014  07:47:00      -23.394      -33.284       -3.936       13.636       15.158        7.915      185.953      229.774       62.652        0.107        0.024       40.683        6.899        0.029      341.157       15.675      863.053
09/15/2014  07:48:00      -18.069      -25.078        6.025       21.637       14.561       15.895      468.169      212.017      252.644        0.096        0.047       30.910       14.075        0.207      341.255       15.841      863.056
09/15/2014  07:49:00      -21.454      -23.894        3.103       22.384       18.106       13.354      501.050      327.810      178.335        0.102        0.050       32.113       14.941        0.216      341.414       16.109      863.063
09/15/2014  07:50:00      -48.186      -26.899       -3.282       10.844       15.064        9.477      117.589      226.919       89.808        0.175        0.022       55.185        7.536        0.019      341.222       15.787      863.055
09/15/2014  07:51:00      -42.740      -18.106       -5.846       16.067        9.972       11.317      258.155       99.450      128.068        0.134        0.024       46.417       10.487        0.051      341.313       15.939      863.045
09/15/2014  07:52:00      -39.224      -16.148       -3.317       12.448       12.565       10.434      154.944      157.891      108.869        0.112        0.021       42.418        9.498        0.050      341.298       15.913      863.034
09/15/2014  07:53:00      -41.143      -15.075       -5.130        8.623        5.947        7.339       74.348       35.368       53.865        0.105        0.008       43.818        3.471        0.006      341.338       15.981      863.022
09/15/2014  07:54:00      -26.979       -6.925       -4.833       10.943        7.264        5.589      119.744       52.760       31.242        0.050        0.010       27.853        5.067        0.033      341.409       16.101      863.011
09/15/2014  07:55:00       -4.875       -9.283       -1.730       10.159        8.608       11.190      103.203       74.104      125.210        0.021        0.015       10.485        5.681        0.294      341.684       16.567      862.991
09/15/2014  07:56:00      -34.475      -11.014        7.600       12.543       16.280       10.026      157.324      265.050      100.523        0.095        0.026       36.192        4.794        0.018      341.533       16.311      862.982
09/15/2014  07:57:00      -20.375       -2.978       -2.452       17.188       12.720       11.002      295.421      161.786      121.047        0.050        0.029       20.592        7.074        0.118      341.580       16.391      862.977
09/15/2014  07:58:00       -6.921      -15.621       -3.909       20.270       12.193       10.970      410.871      148.657      120.346        0.049        0.034       17.085        7.923        0.215      341.665       16.536      862.977
09/15/2014  07:59:00        4.376       -3.371        7.328       11.341        4.943        6.911      128.613       24.437       47.766        0.014        0.010        5.524        3.881        0.494      341.904       16.941      862.975
09/15/2014  08:00:00      -17.929      -21.023       -1.025       13.885        7.308        7.196      192.793       53.403       51.787        0.053        0.015       27.630        4.733        0.029      341.637       16.488      862.977
09/15/2014  08:01:00      -40.668      -27.198       -7.880       11.958        8.827        7.752      142.987       77.908       60.091        0.137        0.014       48.924        3.838        0.006      341.644       16.501      862.975
09/15/2014  08:02:00      -41.969      -27.506       -8.952        8.887       14.411        6.516       78.979      207.690       42.463        0.146        0.016       50.179        2.241        0.002      341.700       16.594      862.979
09/15/2014  08:03:00      -26.820      -32.069        0.938       15.852       14.678       15.641      251.294      215.456      244.634        0.123        0.036       41.806       14.089        0.114      341.762       16.700      862.991
09/15/2014  08:04:00      -51.601      -17.583       -8.718        9.347        8.339        6.842       87.359       69.533       46.817        0.163        0.010       54.514        4.150        0.006      341.702       16.600      863.005
09/15/2014  08:05:00      -33.946      -24.212        0.030       20.168       14.359       10.755      406.735      206.187      115.664        0.123        0.036       41.696        7.588        0.033      341.743       16.667      863.007
09/15/2014  08:06:00      -32.587      -43.330       -0.111       25.290       13.461       12.220      639.600      181.199      149.335        0.195        0.049       54.216       10.249        0.036      341.766       16.707      863.009
09/15/2014  08:07:00      -40.975      -55.948       -2.042       16.447       24.378       13.347      270.505      594.303      178.137        0.293        0.052       69.348       10.019        0.021      341.756       16.691      863.008
09/15/2014  08:08:00      -39.261      -52.568       -6.369       13.256       15.274        7.285      175.721      233.286       53.065        0.240        0.023       65.611        6.255        0.009      341.718       16.625      863.019
09/15/2014  08:09:00      -47.321      -58.803       -1.478       17.336       16.132       13.390      300.534      260.249      179.281        0.322        0.037       75.479       13.000        0.030      341.818       16.794      863.032
09/15/2014  08:10:00      -58.030      -82.364       -6.617       13.382       14.439       15.086      179.073      208.489      227.577        0.541        0.031      100.754       10.075        0.010      341.761       16.700      863.047
09/15/2014  08:11:00      -69.363      -45.593       -4.243       11.298       18.596        9.631      127.656      345.803       92.765        0.374        0.028       83.006        6.866        0.007      341.851       16.850      863.058
09/15/2014  08:12:00      -29.931      -31.386       -0.570       12.150       18.147        9.342      147.630      329.315       87.273        0.122        0.028       43.370        5.760        0.018      341.893       16.923      863.051
09/15/2014  08:13:00      -46.334      -11.198       -6.957       11.731       11.828        7.158      137.616      139.893       51.239        0.132        0.016       47.668        3.066        0.004      341.947       17.013      863.045
09/15/2014  08:14:00      -28.797      -14.897       -9.518       10.963        9.122        5.257      120.190       83.214       27.638        0.069        0.012       32.422        5.562        0.029      342.011       17.123      863.047
09/15/2014  08:15:00      -18.370      -11.577       -4.153       12.408       11.744       11.844      153.970      137.928      140.289        0.046        0.022       21.714        9.100        0.176      342.155       17.366      863.057
09/15/2014  08:16:00      -30.103      -12.162       -2.805       12.379        7.838        8.164      153.240       61.437       66.649        0.067        0.014       32.466        6.412        0.039      342.138       17.337      863.072
09/15/2014  08:17:00      -15.981      -13.472       -1.418       13.099        8.079        9.240      171.582       65.271       85.382        0.038        0.016       20.901        6.853        0.107      342.227       17.489      863.086
09/15/2014  08:18:00      -25.691      -25.980       -4.585       13.959       10.486        6.924      194.864      109.949       47.935        0.085        0.018       36.538        4.024        0.012      342.096       17.267      863.104
09/15/2014  08:19:00      -27.064       -5.893       -8.435       12.376        7.370        6.821      153.155       54.315       46.524        0.055        0.013       27.698        4.250        0.024      342.166       17.384      863.107
09/15/2014  08:20:00      -15.897        7.792       19.852       12.549       15.469       22.638      157.489      239.291      512.463        0.081        0.045       17.704       14.136        0.638      342.715       18.318      863.105
09/15/2014  08:21:00      -17.616       -9.937       16.683       20.760       22.287       20.618      430.994      496.727      425.115        0.102        0.068       20.226       21.219        1.101      342.742       18.365      863.089
09/15/2014  08:22:00      -47.843      -15.078       -1.908       32.022       26.146       22.664     1025.412      683.618      513.637        0.237        0.111       50.163       22.273        0.197      342.514       17.977      863.077
09/15/2014  08:23:00      -25.818      -28.672       10.138       22.004       23.986       14.172      484.190      575.347      200.852        0.143        0.063       38.583       12.342        0.102      342.394       17.774      863.067
09/15/2014  08:24:00      -52.982      -50.261       -4.558        9.055       21.511        7.328       82.000      462.708       53.700        0.298        0.030       73.029        6.044        0.007      342.181       17.411      863.070
09/15/2014  08:25:00      -39.429      -28.640       -6.020       18.549       15.597        9.845      344.051      243.278       96.922        0.155        0.034       48.734        7.505        0.024      342.263       17.550      863.060
09/15/2014  08:26:00      -19.918      -16.363        3.034       27.899       15.910       12.707      778.337      253.133      161.458        0.093        0.060       25.777       13.814        0.287      342.601       18.125      863.060
09/15/2014  08:27:00      -41.362      -28.745       -5.274       24.669       16.478        8.190      608.555      271.530       67.084        0.176        0.047       50.370        7.143        0.020      342.313       17.634      863.050
09/15/2014  08:28:00      -16.961      -49.704        3.517       23.226       27.807       13.591      539.450      773.242      184.713        0.213        0.075       52.518       14.165        0.073      342.318       17.644      863.045
09/15/2014  08:29:00      -26.834      -26.039       -7.305       13.850       15.897        9.035      191.812      252.709       81.639        0.099        0.026       37.391        7.128        0.036      342.374       17.738      863.031
09/15/2014  08:30:00      -23.958      -28.295        2.503       16.371       15.013       12.337      267.999      225.400      152.199        0.101        0.032       37.075       10.250        0.076      342.449       17.866      863.031
09/15/2014  08:31:00      -58.709      -43.289       -6.017       23.298       13.552       16.688      542.789      183.656      278.481        0.318        0.050       72.943       14.100        0.037      342.420       17.816      863.039
09/15/2014  08:32:00      -50.334      -15.544        3.606       27.465       21.950       17.735      754.331      481.796      314.520        0.217        0.078       52.680       13.652        0.067      342.555       18.046      863.053
09/15/2014  08:33:00       -2.224      -26.524       18.243       20.494       38.279       21.637      420.002     1465.260      468.139        0.170        0.118       26.617       21.276        0.639      342.956       18.729      863.054
09/15/2014  08:34:00      -12.339      -36.629       -0.646       22.706       27.690       16.193      515.585      766.712      262.219        0.152        0.077       38.651       14.901        0.149      342.713       18.317      863.054
09/15/2014  08:35:00      -12.680       14.185       29.072       16.721       17.570       19.034      279.576      308.689      362.297        0.108        0.048       19.026       13.629        0.513      343.193       19.133      863.058
09/15/2014  08:36:00      -38.511      -24.311       -1.714       17.835       21.789       11.976      318.101      474.781      143.417        0.151        0.047       45.542       11.707        0.066      342.615       18.150      863.056
09/15/2014  08:37:00      -50.678      -30.182       -5.745       19.050       16.211       10.558      362.905      262.789      111.468        0.212        0.037       58.985        4.718        0.006      342.594       18.113      863.054
09/15/2014  08:38:00      -51.610      -21.655        4.812       34.704       21.205       16.704     1204.354      449.646      279.018        0.254        0.097       55.969       15.112        0.073      342.848       18.544      863.052
09/15/2014  08:39:00      -36.374      -18.353        2.256       23.529       23.280       19.884      553.611      541.952      395.371        0.158        0.075       40.742       17.653        0.188      343.020       18.838      863.040
09/15/2014  08:40:00      -19.931      -37.542       13.998       44.599       22.048       20.233     1989.107      486.117      409.381        0.244        0.144       42.504        7.860        0.034      342.969       18.751      863.031
09/15/2014  08:41:00       -8.463       -6.889        6.280       15.170       14.712       16.796      230.132      216.453      282.106        0.044        0.036       10.913       10.793        0.978      343.092       18.960      863.030
09/15/2014  08:42:00      -67.192      -20.101       -0.105       14.718       13.365       10.092      216.633      178.614      101.852        0.271        0.025       70.134        4.212        0.004      342.702       18.297      863.031
09/15/2014  08:43:00      -30.040      -38.028       -2.385       31.623       18.941       18.123      999.992      358.773      328.440        0.202        0.084       48.462       14.265        0.087      342.899       18.631      863.036
09/15/2014  08:44:00      -29.733      -37.073       -9.851       23.432       40.240       14.635      549.043     1619.296      214.192        0.237        0.119       47.523       15.804        0.111      343.009       18.819      863.054
09/15/2014  08:45:00      -29.001      -28.143      -11.415       23.784       21.709       15.549      565.692      471.298      241.770        0.152        0.064       40.412        8.783        0.047      342.968       18.750      863.077
09/15/2014  08:46:00      -34.336      -15.551       11.907       25.588       36.008       20.103      654.745     1296.583      404.137        0.196        0.118       37.693       16.514        0.192      343.341       19.385      863.085
09/15/2014  08:47:00       -2.642        3.624       22.940       20.084       22.992       23.582      403.348      528.643      556.100        0.102        0.074        4.485       18.568       17.138      343.842       20.239      863.079
09/15/2014  08:48:00      -54.703      -29.297       -1.429       25.192       27.417       18.350      634.614      751.689      336.706        0.279        0.086       62.054        9.650        0.024      343.077       18.935      863.062
09/15/2014  08:49:00      -44.684      -32.758       -4.422       26.023       22.084       18.671      677.221      487.716      348.591        0.230        0.076       55.405       14.458        0.068      343.043       18.878      863.038
09/15/2014  08:50:00      -12.241       -4.703       26.295       15.585       15.731       17.215      242.884      247.475      296.353        0.082        0.039       13.114       13.136        1.003      343.768       20.114      863.015
09/15/2014  08:51:00      -24.785       -7.592       13.404       20.270       27.785       19.247      410.890      772.009      370.461        0.120        0.078       25.921       13.106        0.256      343.439       19.551      863.009
09/15/2014  08:52:00      -15.271      -22.700        3.696       23.568       27.106       17.972      555.451      734.745      322.996        0.119        0.081       27.359       15.660        0.328      343.496       19.648      863.021
09/15/2014  08:53:00      -47.721      -17.720        5.763       12.747       12.752       11.868      162.496      162.622      140.851        0.155        0.023       50.905        9.043        0.032      343.151       19.061      863.035
09/15/2014  08:54:00       -9.571       -7.124       12.065       19.165       18.216       19.294      367.290      331.835      372.265        0.068        0.054       11.931       17.043        2.040      343.566       19.769      863.044
09/15/2014  08:55:00      -39.158      -21.246        6.467       33.550       35.028       23.398     1125.580     1226.992      547.479        0.246        0.145       44.550       20.034        0.202      343.411       19.505      863.041
09/15/2014  08:56:00      -68.033      -74.566        0.112       26.215       29.037       24.220      687.213      843.155      586.597        0.615        0.106      100.939       19.525        0.037      343.120       19.009      863.040
09/15/2014  08:57:00      -51.470      -96.647       -7.296       23.019       27.713       17.889      529.866      768.025      320.026        0.683        0.081      109.498       10.874        0.010      343.048       18.885      863.035
09/15/2014  08:58:00      -28.548      -27.507        4.909       27.709       22.270       21.436      767.766      495.972      459.487        0.166        0.086       39.644       19.522        0.242      343.443       19.560      863.028
09/15/2014  08:59:00      -27.058      -56.533       -3.864       46.563       49.245       27.693     2168.089     2425.081      766.896        0.465        0.268       62.675       14.487        0.053      343.457       19.582      863.025
09/15/2014  09:00:00      -17.016      -83.866      -10.918       45.096       31.875       24.246     2033.672     1016.018      587.875        0.554        0.182       85.575       23.764        0.077      343.416       19.512      863.018
09/15/2014  09:01:00      -42.413       -4.232       -2.693       24.219       20.655       15.689      586.549      426.615      246.137        0.154        0.063       42.624       14.737        0.120      343.627       19.872      863.003
09/15/2014  09:02:00      -72.127      -27.828        2.145       34.006       26.483       17.114     1156.414      701.363      292.899        0.407        0.108       77.309       12.577        0.026      343.311       19.333      862.982
09/15/2014  09:03:00      -52.916      -26.589       -0.186       30.206       24.582       16.526      912.397      604.292      273.124        0.265        0.089       59.221       10.174        0.030      343.490       19.639      862.965
09/15/2014  09:04:00      -61.279      -18.855       -4.115       27.537       17.033       16.621      758.264      290.113      276.251        0.273        0.066       64.114       13.037        0.041      343.476       19.615      862.946
09/15/2014  09:05:00      -50.750        1.973       -3.451       16.639       20.202       17.292      276.848      408.117      299.007        0.179        0.049       50.789       11.284        0.049      343.491       19.642      862.933
09/15/2014  09:06:00      -44.634      -33.234       -4.365       32.936       16.458        8.458     1084.785      270.879       71.538        0.227        0.071       55.648        9.476        0.029      343.465       19.596      862.919
09/15/2014  09:07:00      -32.419      -36.268       10.614       40.419       28.464       23.286     1633.703      810.205      542.235        0.273        0.149       48.645       24.431        0.252      343.704       20.003      862.907
09/15/2014  09:08:00      -35.360      -21.240        4.959       24.299       16.947       19.403      590.425      287.211      376.463        0.149        0.063       41.248       18.661        0.205      343.663       19.933      862.887
09/15/2014  09:09:00      -43.403       -0.985        1.010       29.225       12.918       16.745      854.124      166.887      280.382        0.159        0.065       43.414       13.657        0.099      343.718       20.027      862.875
09/15/2014  09:10:00      -24.754       -0.964        5.086       29.711       19.385       18.221      882.767      375.784      332.014        0.111        0.080       24.773        8.949        0.130      343.965       20.449      862.863
09/15/2014  09:11:00      -29.168       -7.605       -2.923       17.561       16.989       14.604      308.393      288.637      213.276        0.086        0.041       30.143        7.603        0.064      343.788       20.146      862.854
09/15/2014  09:12:00      -33.428      -10.684      -10.184       14.114       10.063        9.676      199.197      101.272       93.629        0.086        0.020       35.094        6.058        0.030      343.725       20.039      862.851
09/15/2014  09:13:00      -50.365      -28.521       -2.705       35.585       22.919       16.764     1266.303      525.301      281.046        0.271        0.104       57.880        9.412        0.026      343.788       20.147      862.852
09/15/2014  09:14:00      -10.589      -35.746       19.082       18.700       38.314       27.523      349.684     1467.955      757.515        0.216        0.129       37.281       22.638        0.369      344.368       21.138      862.858
09/15/2014  09:15:00      -60.451      -40.794       -7.189       42.098       33.498       19.999     1772.208     1122.120      399.968        0.433        0.165       72.928       11.138        0.023      343.767       20.110      862.844
09/15/2014  09:16:00      -36.081      -19.430       12.333       34.085       29.846       20.858     1161.764      890.780      435.041        0.216        0.124       40.979       20.085        0.240      344.176       20.808      862.823
09/15/2014  09:17:00      -38.560      -28.669        1.154       29.076       21.108       17.734      845.439      445.566      314.485        0.196        0.080       48.050       16.017        0.111      343.939       20.406      862.809
09/15/2014  09:18:00      -26.142      -22.853        2.136       16.839       12.198       10.992      283.561      148.798      120.835        0.088        0.028       34.723        9.781        0.079      343.896       20.330      862.803
09/15/2014  09:19:00      -28.017       -3.473       -3.940       10.327        8.215        6.379      106.657       67.479       40.696        0.051        0.011       28.231        3.942        0.019      343.824       20.208      862.815
09/15/2014  09:20:00      -38.546       -1.528       -4.098        8.720       10.055       10.163       76.039      101.112      103.297        0.089        0.014       38.576        7.066        0.034      343.862       20.273      862.834
09/15/2014  09:21:00        7.664       12.716       34.310       32.905       26.673       27.675     1082.706      711.452      765.893        0.198        0.128       14.847       17.512        1.391      344.905       22.056      862.850
09/15/2014  09:22:00       51.699      -70.136        4.384       37.776       82.399       46.384     1427.044     6789.564     2151.459        0.899        0.518       87.131       54.328        0.389      344.511       21.382      862.839
09/15/2014  09:23:00       10.711      -36.718       35.786       51.335       78.554       42.280     2635.232     6170.753     1787.637        0.667        0.530       38.249       46.176        1.457      344.606       21.544      862.842
09/15/2014  09:24:00       10.186      -44.600       36.175       28.413       61.959       37.918      807.282     3838.960     1437.760        0.474        0.304       45.748       41.432        0.820      344.648       21.617      862.830
09/15/2014  09:25:00       18.774      -89.563        7.448       31.935       32.891       29.807     1019.855     1081.819      888.481        0.571        0.150       91.510       18.507        0.041      344.213       20.871      862.829
09/15/2014  09:26:00       -2.813      -20.755       31.660       42.604       43.665       25.483     1815.101     1906.607      649.360        0.291        0.219       20.944       29.432        1.975      344.924       22.089      862.825
09/15/2014  09:27:00       53.645     -117.135       -0.123       28.875       64.660       26.093      833.783     4180.968      680.856        1.115        0.285      128.834       31.050        0.058      344.166       20.794      862.828
09/15/2014  09:28:00       10.113      -67.044       31.252       22.641       39.624       25.939      512.598     1570.022      672.826        0.416        0.138       67.803       19.252        0.081      344.450       21.278      862.832
09/15/2014  09:29:00       17.382      -77.616       16.673       23.455       29.685       26.260      550.153      881.196      689.605        0.436        0.106       79.539       14.701        0.034      344.382       21.161      862.831
09/15/2014  09:30:00       -5.180      -44.599       15.696       41.232       36.217       31.077     1700.074     1311.693      965.795        0.312        0.199       44.899       24.719        0.303      344.697       21.701      862.828
09/15/2014  09:31:00       16.989      -24.503       35.698       59.301       41.419       29.128     3516.624     1715.515      848.433        0.412        0.304       29.817        9.139        0.094      344.689       21.685      862.842
09/15/2014  09:32:00       42.819        0.313       22.365       33.456       28.668       25.959     1119.286      821.857      673.878        0.247        0.131       42.820       19.320        0.204      344.723       21.745      862.847
09/15/2014  09:33:00        2.781      -26.618       13.200       43.464       35.646       33.991     1889.134     1270.635     1155.389        0.260        0.216       26.763       11.077        0.171      344.734       21.764      862.855
09/15/2014  09:34:00        2.415       26.475       48.897       26.520       23.200       19.860      703.326      538.258      394.430        0.237        0.082       26.585       13.939        0.275      345.301       22.736      862.848
09/15/2014  09:35:00       38.052       37.462       55.787       42.098       23.532       17.087     1772.204      553.774      291.951        0.429        0.131       53.398        6.497        0.015      344.971       22.169      862.840
09/15/2014  09:36:00       85.986       61.481       30.031       31.686       25.883       28.428     1004.007      669.946      808.163        0.728        0.124      105.705       13.902        0.017      344.357       21.118      862.840
09/15/2014  09:37:00       75.145       40.570       13.104       25.934       26.300       27.630      672.596      691.694      763.439        0.480        0.106       85.397        5.486        0.004      344.495       21.355      862.826
09/15/2014  09:38:00       29.339       28.048        7.866       38.397       27.654       21.662     1474.341      764.747      469.233        0.221        0.135       40.589       13.971        0.118      344.779       21.840      862.817
09/15/2014  09:39:00       -6.958        2.414       30.050       20.490       34.789       19.908      419.842     1210.299      396.341        0.149        0.101        7.365       16.089        4.772      345.450       22.989      862.811
09/15/2014  09:40:00       13.357      -24.003       42.462       31.696       57.206       23.597     1004.660     3272.504      556.817        0.369        0.242       27.469       24.134        0.772      345.071       22.340      862.804
09/15/2014  09:41:00       -9.680       18.746       38.554       34.512       30.396       26.183     1191.045      923.898      685.548        0.237        0.140       21.098       14.988        0.505      345.315       22.759      862.796
09/15/2014  09:42:00       -2.490       28.193       50.436       22.720       36.187       19.639      516.211     1309.474      385.697        0.278        0.111       28.302       16.890        0.356      345.429       22.953      862.784
09/15/2014  09:43:00       -2.767       27.737       41.955       18.242       46.307       38.170      332.765     2144.381     1456.949        0.324        0.197       27.875       35.778        1.647      345.107       22.401      862.769
09/15/2014  09:44:00       61.473       59.860       39.778       51.673       41.975       44.204     2670.070     1761.906     1954.012        0.766        0.319       85.803       33.600        0.153      344.792       21.864      862.746
09/15/2014  09:45:00       43.717       49.354       12.418       37.470       35.848       34.254     1403.997     1285.081     1173.348        0.418        0.193       65.931       26.843        0.166      344.977       22.179      862.734
09/15/2014  09:46:00       29.350       88.540        5.539       50.230       55.091       35.196     2523.088     3035.008     1238.742        0.776        0.340       93.277       30.061        0.104      344.964       22.157      862.715
09/15/2014  09:47:00      127.359       77.293        7.300       58.892       39.617       36.037     3468.281     1569.484     1298.684        1.429        0.317      148.979       17.498        0.014      344.710       21.722      862.716
09/15/2014  09:48:00       90.663       65.483       18.000       45.012       45.599       31.626     2026.065     2079.266     1000.212        0.897        0.255      111.839       19.266        0.030      345.093       22.377      862.720
09/15/2014  09:49:00       14.444        8.484       16.649       32.804       49.653       28.427     1076.111     2465.385      808.104        0.245        0.217       16.752       22.444        1.795      345.570       23.195      862.722
09/15/2014  09:50:00       15.564      -45.309       17.307       24.184       50.227       33.263      584.881     2522.783     1106.457        0.340        0.211       47.907       27.562        0.331      345.339       22.800      862.710
09/15/2014  09:51:00        0.565       -2.714       34.154       19.003       29.588       17.560      361.109      875.423      308.342        0.136        0.077        2.772       11.265       16.509      345.845       23.667      862.682
09/15/2014  09:52:00       27.481       37.649       56.350       42.094       48.225       25.718     1771.908     2325.693      661.432        0.505        0.238       46.612       17.366        0.139      345.263       22.669      862.669
09/15/2014  09:53:00       86.253       88.937       79.350       67.334       46.807       43.311     4533.810     2190.927     1875.835        1.512        0.430      123.893       25.401        0.042      344.809       21.890      862.650
09/15/2014  09:54:00      154.424       90.705       25.290       34.509       35.976       30.766     1190.887     1294.254      946.545        1.807        0.172      179.093       18.024        0.010      344.509       21.379      862.666
09/15/2014  09:55:00       84.497       63.879       22.502       70.270       48.705       57.494     4937.928     2372.146     3305.521        1.117        0.531      105.925       52.967        0.250      345.037       22.283      862.661
09/15/2014  09:56:00       16.962       56.229       70.511       43.605       30.405       43.041     1901.391      924.473     1852.530        0.655        0.234       58.732       32.518        0.307      345.178       22.523      862.672
09/15/2014  09:57:00       66.690       86.923       53.148       33.534       31.000       38.955     1124.561      960.983     1517.499        0.921        0.180      109.559       23.304        0.045      344.921       22.083      862.689
09/15/2014  09:58:00       53.808       72.585       47.083       27.428       18.810       20.108      752.273      353.799      404.326        0.595        0.076       90.355        8.854        0.010      344.797       21.871      862.697
09/15/2014  09:59:00       54.926       48.479       10.552       27.294       13.778       22.071      744.958      189.835      487.129        0.345        0.071       73.261        8.435        0.013      344.914       22.071      862.698
09/15/2014  10:00:00       79.030       67.573       10.028       40.856       43.021       34.672     1669.187     1850.769     1202.164        0.782        0.236      103.980       14.114        0.018      345.371       22.854      862.681
09/15/2014  10:01:00       27.765       11.577       15.506       35.987       50.338       28.857     1295.099     2533.891      832.698        0.290        0.233       30.082       16.804        0.312      345.437       22.966      862.683
09/15/2014  10:02:00       31.815      -34.501        3.693       29.895       33.064       29.402      893.708     1093.228      864.456        0.253        0.143       46.931       16.659        0.126      345.443       22.977      862.693
09/15/2014  10:03:00       -4.487        3.488       18.734       13.505       21.562       18.527      182.382      464.928      343.247        0.069        0.050        5.683       11.423        4.039      346.046       24.012      862.700
09/15/2014  10:04:00       14.637       27.687       39.274       37.009       37.590       27.868     1369.660     1413.025      776.605        0.304        0.178       31.317       22.569        0.519      345.791       23.574      862.702
09/15/2014  10:05:00       22.052       11.437       38.329       22.561       21.796       11.940      509.007      475.051      142.568        0.161        0.056       24.842       10.249        0.170      346.054       24.026      862.710
09/15/2014  10:06:00       72.269       59.517       49.431       41.833       45.287       37.575     1749.971     2050.944     1411.874        0.821        0.261       93.622       24.343        0.068      345.367       22.847      862.697
09/15/2014  10:07:00       76.503       85.417      -17.819       23.866       32.308       24.519      569.572     1043.799      601.179        0.784        0.111      114.668       20.954        0.033      345.051       22.306      862.709
09/15/2014  10:08:00        2.181       42.883        2.125       32.472       31.672       28.527     1054.445     1003.123      813.796        0.236        0.144       42.939       22.380        0.272      345.381       22.872      862.703
09/15/2014  10:09:00      -33.155        4.821      -21.075       18.643       25.563       18.530      347.569      653.464      343.356        0.146        0.067       33.504       14.793        0.195      345.157       22.489      862.701
09/15/2014  10:10:00      -27.573        5.308       -2.861       16.816       15.733       19.481      282.784      247.522      379.499        0.085        0.045       28.079        9.133        0.106      345.421       22.939      862.685
09/15/2014  10:11:00      -38.495       22.437       35.607       25.318       16.539       14.017      640.988      273.553      196.467        0.218        0.056       44.557       12.155        0.074      345.692       23.405      862.675
09/15/2014  10:12:00       -4.007       22.781       19.941       31.684       19.056       15.443     1003.905      363.133      238.476        0.127        0.080       23.131       11.578        0.251      345.864       23.699      862.654
09/15/2014  10:13:00       61.320       25.430       14.972       47.973       24.952       23.821     2301.427      622.581      567.447        0.406        0.175       66.384       17.732        0.071      345.686       23.393      862.656
09/15/2014  10:14:00      -16.317       11.191       16.609       18.425       21.288       21.073      339.470      453.166      444.085        0.095        0.062       19.786       13.004        0.432      346.406       24.631      862.665
09/15/2014  10:15:00      -26.343        9.127        2.146       29.783       27.146       17.392      887.032      736.888      302.467        0.135        0.096       27.880        6.258        0.050      345.885       23.736      862.658
09/15/2014  10:16:00       34.639      -55.078       16.320       49.013       80.617       39.556     2402.251     6499.144     1564.715        0.748        0.523       65.065       43.231        0.441      346.066       24.045      862.644
09/15/2014  10:17:00        6.262      -10.410       44.530       28.874       40.607       32.133      833.689     1648.963     1032.510        0.282        0.176       12.149       24.209        3.971      346.747       25.218      862.634
09/15/2014  10:18:00       22.609      -49.423       16.486       37.995       34.694       23.834     1443.649     1203.699      568.077        0.322        0.161       54.349       24.476        0.203      346.208       24.291      862.630
09/15/2014  10:19:00       -7.839       22.081       49.791       21.502       36.264       25.754      462.347     1315.091      663.254        0.273        0.122       23.431       24.543        1.097      346.589       24.945      862.620
09/15/2014  10:20:00      -14.918        9.198       26.228       31.206       34.691       26.915      973.808     1203.431      724.397        0.195        0.145       17.526       23.012        1.724      346.292       24.434      862.611
09/15/2014  10:21:00      -58.593      -28.478      -12.466       23.244       18.553       17.204      540.305      344.201      295.985        0.279        0.059       65.147        7.781        0.014      345.891       23.746      862.608
09/15/2014  10:22:00       -8.863       -4.379        9.947       25.073       18.168       18.280      628.672      330.060      334.150        0.074        0.065        9.886       13.800        1.949      346.864       25.420      862.614
09/15/2014  10:23:00      -11.269      -35.177       21.627       23.400       44.232       25.598      547.571     1956.473      655.272        0.250        0.158       36.938       26.750        0.524      346.848       25.393      862.616
09/15/2014  10:24:00      -18.623      -62.385       16.652       28.238       43.116       27.125      797.376     1859.025      735.751        0.395        0.170       65.106       21.419        0.108      346.337       24.510      862.613
09/15/2014  10:25:00       -3.998      -39.462        0.678       31.097       30.405       26.347      967.044      924.489      694.165        0.208        0.129       39.664       14.238        0.129      346.332       24.504      862.601
09/15/2014  10:26:00      -68.096      -44.339       -3.388       34.456       37.587       25.301     1187.230     1412.773      640.151        0.493        0.162       81.259       18.425        0.051      346.084       24.077      862.611
09/15/2014  10:27:00      -63.184      -10.453       -8.413       27.551       23.598       13.467      759.033      556.885      181.367        0.283        0.075       64.043       11.844        0.034      345.711       23.436      862.613
09/15/2014  10:28:00      -18.135       -6.852       11.361       23.349       18.330       16.909      545.179      335.972      285.902        0.084        0.058       19.387       12.430        0.411      346.954       25.575      862.611
09/15/2014  10:29:00       -2.110       -7.945       35.777       46.425       35.008       26.203     2155.257     1225.592      686.615        0.271        0.203        8.220       24.393        8.806      346.841       25.379      862.612
09/15/2014  10:30:00       25.874       35.145       56.578       38.390       36.540       30.036     1473.766     1335.190      902.144        0.441        0.186       43.642       29.106        0.445      346.599       24.963      862.611
09/15/2014  10:31:00       31.245       45.401       24.077       46.017       61.435       45.050     2117.557     3774.293     2029.504        0.577        0.396       55.113       35.920        0.425      346.136       24.168      862.600
09/15/2014  10:32:00       -0.522       10.798       17.082       21.212       43.304       27.942      449.931     1875.275      780.775        0.176        0.155       10.811       16.543        2.342      346.543       24.866      862.599
09/15/2014  10:33:00       12.135        0.935       42.530       25.372       39.501       28.795      643.729     1560.317      829.134        0.249        0.152       12.171       22.673        3.470      346.861       25.415      862.586
09/15/2014  10:34:00        1.225       24.578       64.189       22.434       45.010       21.257      503.273     2025.911      451.846        0.385        0.149       24.608       19.611        0.635      347.082       25.795      862.572
09/15/2014  10:35:00       82.566       65.313       70.682       60.294       57.858       23.128     3635.339     3347.545      534.905        1.180        0.376      105.275       18.267        0.030      346.336       24.512      862.547
09/15/2014  10:36:00      109.181       74.748        7.217       36.158       28.838       32.901     1307.370      831.645     1082.457        1.039        0.161      132.317       14.474        0.012      345.943       23.835      862.534
09/15/2014  10:37:00       68.351       43.597       11.072       35.663       35.578       26.834     1271.858     1265.762      720.077        0.498        0.163       81.071       19.899        0.060      346.342       24.522      862.536
09/15/2014  10:38:00      -14.033       29.176       16.950       26.205       31.732       21.933      686.677     1006.939      481.074        0.175        0.109       32.376       20.064        0.384      347.099       25.823      862.545
09/15/2014  10:39:00      -15.225       49.163       15.803       19.681       40.038       27.065      387.346     1603.029      732.540        0.281        0.136       51.467       23.219        0.204      347.154       25.919      862.561
09/15/2014  10:40:00        3.235       18.368       15.022       14.549       31.538       24.347      211.665      994.644      592.761        0.119        0.090       18.650       18.090        0.941      347.261       26.103      862.580
09/15/2014  10:41:00       -1.097       39.940      -23.912       16.721       23.229       15.993      279.583      539.576      255.763        0.162        0.054       39.955       10.284        0.066      346.148       24.187      862.604
09/15/2014  10:42:00      -40.130        3.488      -10.521       22.911       17.979       14.524      524.910      323.229      210.946        0.140        0.053       40.281       11.338        0.079      346.143       24.179      862.614
09/15/2014  10:43:00      -58.760       -1.596       -8.685       29.896       29.114       15.461      893.752      847.638      239.054        0.276        0.099       58.782       15.267        0.067      345.954       23.855      862.596
09/15/2014  10:44:00      -92.850       40.996      -18.089       16.751       18.208       14.467      280.590      331.523      209.303        0.573        0.041      101.498        4.565        0.002      345.917       23.792      862.592
09/15/2014  10:45:00      -95.216       24.863       -9.943       26.586       35.099       18.343      706.807     1231.905      336.457        0.603        0.114       98.409        5.327        0.003      346.017       23.961      862.587
09/15/2014  10:46:00     -151.203        3.334       -8.934       35.899       47.148       24.552     1288.766     2222.948      602.785        1.353        0.206      151.239       20.671        0.019      346.084       24.076      862.593
09/15/2014  10:47:00     -125.416      -45.757      -26.041       42.315       34.239       19.840     1790.557     1172.289      393.610        1.093        0.168      133.502       24.808        0.035      346.073       24.059      862.594
09/15/2014  10:48:00      -69.414      -13.686       -4.814       32.511       32.312       15.158     1056.949     1044.088      229.755        0.368        0.117       70.750       11.111        0.025      346.199       24.275      862.595
09/15/2014  10:49:00     -108.340      -17.429      -18.163       33.777       17.413       14.374     1140.879      303.221      206.600        0.701        0.083      109.733       15.221        0.019      346.183       24.246      862.590
09/15/2014  10:50:00      -26.276      -37.345        2.948       17.588       36.032       15.950      309.321     1298.336      254.407        0.198        0.093       45.663       16.208        0.126      346.495       24.784      862.594
09/15/2014  10:51:00       37.557      -92.774        9.479       42.240       24.846       22.965     1784.248      617.333      527.398        0.652        0.146      100.087       16.838        0.028      346.234       24.333      862.586
09/15/2014  10:52:00        5.469      -15.121       28.126       19.976       32.249       19.022      399.049     1040.001      361.832        0.142        0.090       16.079       15.183        0.892      346.817       25.338      862.576
09/15/2014  10:53:00        1.118      -70.407        3.099       36.283       35.281       34.328     1316.433     1244.766     1178.437        0.435        0.187       70.416        8.124        0.013      346.410       24.636      862.556
09/15/2014  10:54:00       35.668       38.351       36.488       26.028       44.252       33.171      677.473     1958.247     1100.301        0.390        0.187       52.374        8.829        0.028      346.844       25.386      862.553
09/15/2014  10:55:00       -7.684       58.211        9.343       39.073       33.184       36.183     1526.723     1101.184     1309.236        0.374        0.197       58.716       19.814        0.114      346.769       25.256      862.537
09/15/2014  10:56:00        9.104       79.527       -0.481       32.133       39.751       34.831     1032.541     1580.110     1213.213        0.512        0.191       80.047       22.820        0.081      347.000       25.652      862.533
09/15/2014  10:57:00       26.202       65.758       23.427       32.207       32.028       32.219     1037.270     1025.799     1038.069        0.433        0.155       70.786       19.120        0.073      347.258       26.095      862.518
09/15/2014  10:58:00      -59.882       -5.226        5.966       50.606       70.651       24.071     2560.932     4991.632      579.436        0.589        0.407       60.110       29.196        0.236      347.039       25.719      862.509
09/15/2014  10:59:00      -85.424      -46.770       10.851       69.877       55.291       34.859     4882.778     3057.104     1215.136        0.938        0.458       97.390       40.898        0.176      347.064       25.762      862.504
09/15/2014  11:00:00      -45.515      -41.316        2.915       71.235       47.066       40.867     5074.484     2215.189     1670.134        0.637        0.448       61.470       38.693        0.396      346.932       25.535      862.492
09/15/2014  11:01:00      -19.961       41.667        7.600       30.553       66.504       28.989      933.478     4422.735      840.391        0.419        0.310       46.202       34.108        0.545      347.336       26.232      862.513
09/15/2014  11:02:00      -31.508       55.067        5.287       30.456       41.864       23.034      927.560     1752.562      530.572        0.363        0.161       63.444       18.198        0.082      347.304       26.177      862.504
09/15/2014  11:03:00       -9.598      118.988       -9.316       31.866       63.939       38.469     1015.461     4088.161     1479.828        1.046        0.329      119.374       37.481        0.099      347.178       25.960      862.484
09/15/2014  11:04:00      -23.031       37.438        6.901       32.567       42.363       31.485     1060.605     1794.640      991.297        0.291        0.192       43.955       27.151        0.382      347.719       26.893      862.471
09/15/2014  11:05:00      -49.706       40.826        6.197       48.458       39.399       37.983     2348.161     1552.268     1442.675        0.476        0.267       64.323       39.291        0.373      347.459       26.443      862.471
09/15/2014  11:06:00      -70.556       86.886      -18.317       30.847       58.472       25.347      951.507     3418.935      642.477        0.894        0.251      111.926       19.710        0.031      346.738       25.201      862.477
09/15/2014  11:07:00      -29.647       53.010       -4.821       34.067       62.935       28.424     1160.536     3960.799      807.919        0.482        0.296       60.737       23.030        0.144      347.172       25.950      862.474
09/15/2014  11:08:00      -17.118       87.870       -6.353       33.895       54.231       32.942     1148.875     2940.967     1085.181        0.661        0.259       89.522       30.556        0.117      347.090       25.809      862.474
09/15/2014  11:09:00       11.960       56.883      -15.419       38.103       49.701       23.746     1451.852     2470.218      563.860        0.405        0.224       58.127       21.302        0.134      346.972       25.604      862.463
09/15/2014  11:10:00        0.766       82.984        1.620       27.145       53.611       34.355      736.837     2874.091     1180.251        0.584        0.240       82.987       32.571        0.154      347.203       26.004      862.445
09/15/2014  11:11:00       31.934       37.590        6.269       59.003       38.949       33.645     3481.373     1516.986     1132.009        0.430        0.307       49.323       28.070        0.324      347.374       26.299      862.440
09/15/2014  11:12:00        5.172      -66.414       10.455       26.900       23.441       23.290      723.636      549.472      542.402        0.318        0.091       66.615       18.897        0.080      346.918       25.513      862.438
09/15/2014  11:13:00       -7.224      -28.333       -1.255       12.059       14.547       10.989      145.429      211.621      120.766        0.067        0.024       29.239        6.971        0.057      346.904       25.486      862.428
09/15/2014  11:14:00       -5.625      -45.626        1.714       19.749       29.786       21.449      390.017      887.196      460.042        0.193        0.087       45.972       10.007        0.047      347.208       26.011      862.404
09/15/2014  11:15:00      -21.176       22.450        1.791       30.593       31.810       34.052      935.938     1011.856     1159.512        0.203        0.155       30.862       26.786        0.753      347.561       26.620      862.387
09/15/2014  11:16:00      -15.411       55.690      -17.101       24.383       57.499       34.032      594.507     3306.177     1158.163        0.434        0.253       57.783       35.210        0.371      347.427       26.387      862.383
09/15/2014  11:17:00      -20.761       51.562       10.578       28.157       33.945       29.022      792.825     1152.252      842.292        0.299        0.139       55.585       20.213        0.132      347.766       26.975      862.384
09/15/2014  11:18:00       33.206       30.534       34.517       37.298       26.075       22.608     1391.140      679.899      511.133        0.290        0.129       45.111       17.759        0.155      348.002       27.380      862.389
09/15/2014  11:19:00      -15.151       46.246       18.080       34.310       30.168       30.420     1177.181      910.132      925.393        0.285        0.151       48.665       19.669        0.163      348.120       27.585      862.396
09/15/2014  11:20:00       -4.668       74.003       11.614       39.698       43.093       36.330     1575.959     1856.981     1319.891        0.519        0.238       74.150       25.048        0.114      348.043       27.453      862.382
09/15/2014  11:21:00       13.130       67.874       -0.317       26.744       33.571       33.733      715.259     1127.003     1137.888        0.388        0.149       69.133       20.801        0.091      347.808       27.048      862.378
09/15/2014  11:22:00      -19.272       85.930        6.644       29.376       66.476       36.468      862.970     4419.022     1329.927        0.720        0.331       88.065       39.529        0.201      347.776       26.992      862.351
09/15/2014  11:23:00       10.874       68.336        7.560       26.365       65.754       33.497      695.118     4323.568     1122.070        0.549        0.307       69.195       37.166        0.288      347.834       27.092      862.331
09/15/2014  11:24:00      -13.434       34.354       11.075       27.897       49.170       27.544      778.252     2417.642      758.677        0.272        0.198       36.887       27.048        0.538      348.029       27.429      862.314
09/15/2014  11:25:00       12.630       36.491      -11.686       29.901       43.160       27.996      894.099     1862.746      783.776        0.258        0.177       38.615       23.095        0.358      347.976       27.336      862.307
09/15/2014  11:26:00        6.432        3.400       13.815       26.501       21.892       22.446      702.328      479.279      503.825        0.096        0.084        7.275        9.104        1.566      348.503       28.248      862.294
09/15/2014  11:27:00      -49.481      -52.050        4.025       25.019       33.059       19.165      625.968     1092.889      367.298        0.363        0.104       71.817        4.587        0.004      347.604       26.694      862.274
09/15/2014  11:28:00      -53.190       -1.456       -5.205       25.606       18.144       20.722      655.672      329.203      429.406        0.214        0.071       53.210       12.340        0.054      347.485       26.488      862.243
09/15/2014  11:29:00      -33.838      -47.966       -5.435       34.583       38.187       19.085     1196.013     1458.235      364.237        0.325        0.151       58.701       10.834        0.034      347.367       26.286      862.220
09/15/2014  11:30:00      -21.931      -53.561        2.556       24.624       28.180       14.454      606.350      794.095      208.920        0.248        0.080       57.877       12.564        0.047      347.491       26.498      862.207
09/15/2014  11:31:00      -11.902      -26.987      -11.640       15.233       29.058       15.675      232.056      844.340      245.703        0.116        0.066       29.495       15.697        0.283      347.730       26.910      862.197
09/15/2014  11:32:00        1.740        4.112       -6.819       17.729       12.121       14.531      314.317      146.912      211.140        0.037        0.034        4.465       10.625        5.662      348.442       28.143      862.201
09/15/2014  11:33:00      -21.237       -4.945       -5.665       38.515       46.977       21.441     1483.394     2206.877      459.734        0.233        0.208       21.805       14.342        0.433      348.307       27.906      862.197
09/15/2014  11:34:00      -59.750      -81.337       -3.643       44.343       45.563       30.407     1966.327     2075.947      924.574        0.758        0.248      100.924       24.238        0.058      347.784       27.004      862.196
09/15/2014  11:35:00      -63.647      -35.908        6.043       61.728       33.599       28.987     3810.307     1128.880      840.238        0.558        0.289       73.077       31.588        0.187      347.992       27.364      862.195
09/15/2014  11:36:00      -55.221      -47.757       10.846       67.341       61.617       41.444     4534.856     3796.650     1717.635        0.775        0.502       73.007       36.631        0.252      348.035       27.439      862.182
09/15/2014  11:37:00     -116.962      -93.536        5.224       66.503       52.429       39.825     4422.632     2748.771     1586.062        1.561        0.438      149.763       37.915        0.064      347.652       26.776      862.182
09/15/2014  11:38:00     -141.414      -46.808      -19.264       38.047       28.053       20.881     1447.577      786.970      436.002        1.261        0.134      148.959       20.665        0.019      347.355       26.263      862.177
09/15/2014  11:39:00     -192.639      -50.993      -37.284       34.284       33.777       23.855     1175.410     1140.880      569.062        2.199        0.144      199.274       15.478        0.006      347.398       26.336      862.157
09/15/2014  11:40:00     -138.698     -101.670      -11.770       53.363       43.559       35.182     2847.658     1897.356     1237.802        1.785        0.299      171.970       25.733        0.022      347.459       26.444      862.148
09/15/2014  11:41:00     -100.691       48.644      -13.884       27.125       50.194       29.034      735.774     2519.451      842.955        0.840        0.205      111.825       24.330        0.047      347.609       26.702      862.152
09/15/2014  11:42:00      -91.045       40.122      -15.155       52.960       39.515       28.914     2804.742     1561.442      836.010        0.766        0.260       99.493       28.699        0.083      347.665       26.797      862.137
09/15/2014  11:43:00      -26.164       22.735       12.229       29.060       32.488       24.320      844.471     1055.446      591.482        0.192        0.125       34.662       22.272        0.413      348.571       28.364      862.123
09/15/2014  11:44:00       -9.773       56.254        4.701       21.606       38.274       27.408      466.829     1464.921      751.178        0.298        0.134       57.096       23.986        0.176      348.231       27.777      862.101
09/15/2014  11:45:00        2.203       20.731       22.596       20.009       29.877       20.252      400.369      892.610      410.137        0.132        0.085       20.847       20.582        0.975      348.656       28.513      862.099
09/15/2014  11:46:00      -65.652      -15.326        0.998       36.842       35.836       23.645     1357.337     1284.216      559.104        0.387        0.160       67.417       18.890        0.079      348.021       27.413      862.093
09/15/2014  11:47:00      -59.406      -47.475        9.144       50.482       41.765       20.838     2548.437     1744.305      434.215        0.530        0.236       76.046       24.914        0.107      348.165       27.662      862.088
09/15/2014  11:48:00      -13.780      -25.445        5.674       49.769       23.776       26.719     2476.950      565.287      713.896        0.231        0.188       28.936       14.035        0.235      348.096       27.544      862.084
09/15/2014  11:49:00      -25.809       10.626        4.870       31.276       25.621       24.269      978.172      656.431      589.001        0.151        0.111       27.911       23.805        0.727      348.375       28.024      862.063
09/15/2014  11:50:00      -53.999       -8.964       -6.954       41.595       18.522       15.096     1730.181      343.052      227.887        0.267        0.115       54.738       19.004        0.121      348.148       27.633      862.047
09/15/2014  11:51:00      -84.548        6.106       -4.419       49.138       34.872       28.783     2414.575     1216.028      828.461        0.583        0.223       84.768       24.542        0.084      348.097       27.545      862.023
09/15/2014  11:52:00      -62.485        8.398       16.523       75.018       39.187       34.738     5627.749     1535.638     1206.704        0.631        0.419       63.047       41.798        0.440      348.850       28.847      861.988
09/15/2014  11:53:00     -195.304       -9.761       -3.656       89.593       67.617       39.994     8026.834     4572.035     1599.549        2.622        0.710      195.548       51.155        0.068      348.042       27.446      861.961
09/15/2014  11:54:00     -250.307      -53.783      -25.539       50.454       68.331       33.428     2545.636     4669.142     1117.429        3.726        0.417      256.020       21.800        0.007      348.015       27.398      861.932
09/15/2014  11:55:00     -189.879       -5.337      -21.991       63.901       46.205       38.907     4083.301     2134.881     1513.738        2.215        0.387      189.954       36.556        0.037      347.968       27.319      861.932
09/15/2014  11:56:00     -123.063      -10.349       -5.453       84.504       55.938       40.520     7140.922     3129.021     1641.879        1.359        0.596      123.497       39.667        0.103      348.334       27.954      861.926
09/15/2014  11:57:00     -140.364       73.105      -19.156       42.659       59.944       37.720     1819.757     3593.311     1422.766        1.612        0.342      158.261       27.233        0.030      348.098       27.545      861.931
09/15/2014  11:58:00     -233.236       92.491      -25.790       64.368       56.195       43.839     4143.255     3157.910     1921.854        3.642        0.461      250.905       25.126        0.010      348.174       27.673      861.923
09/15/2014  11:59:00     -286.705       37.221      -24.688       65.481       88.590       39.958     4287.813     7848.218     1596.625        4.896        0.687      289.111       33.310        0.013      348.072       27.498      861.907
09/15/2014  12:00:00     -359.910     -114.920      -13.711       86.894      106.167       59.173     7550.556    11271.350     3501.500        8.262        1.116      377.812       51.431        0.019      348.011       27.393      861.889
09/15/2014  12:01:00     -244.779      -75.497      -26.630       97.920       85.438       44.596     9588.315     7299.681     1988.823        4.260        0.944      256.157       46.931        0.034      348.062       27.482      861.873
09/15/2014  12:02:00     -119.555      -50.240       -3.273       91.852       72.695       55.272     8436.832     5284.521     3055.043        1.680        0.839      129.682       57.021        0.193      348.377       28.028      861.864
09/15/2014  12:03:00     -126.695       -4.152      -11.013       46.210       35.513       32.367     2135.405     1261.194     1047.654        1.032        0.222      126.763       21.371        0.028      348.138       27.617      861.855
09/15/2014  12:04:00      -85.260      -52.240        9.019       82.080       63.093       36.617     6737.071     3980.681     1340.796        1.107        0.603       99.992       40.142        0.161      348.364       28.006      861.833
09/15/2014  12:05:00      -13.300        8.911       21.993       40.741       23.035       30.585     1659.846      530.633      935.462        0.193        0.156       16.010       28.041        3.068      348.723       28.629      861.827
09/15/2014  12:06:00     -178.049       24.647      -25.675       66.325       55.555       30.655     4398.946     3086.306      939.713        2.070        0.421      179.747       19.485        0.012      348.134       27.607      861.829
09/15/2014  12:07:00      -99.311        8.967       -6.687       60.196       54.734       28.882     3623.562     2995.817      834.167        0.872        0.373       99.715       29.178        0.086      348.302       27.899      861.829
09/15/2014  12:08:00      -35.265       31.876      -12.497       40.573       65.742       31.779     1646.139     4322.060     1009.897        0.470        0.349       47.537       28.057        0.348      348.543       28.316      861.816
09/15/2014  12:09:00     -107.962      -19.595       -7.465       54.422       51.830       30.798     2961.734     2686.352      948.529        0.934        0.330      109.725       19.815        0.033      348.594       28.402      861.789
09/15/2014  12:10:00     -143.000      -31.119      -11.362       65.335       60.605       38.881     4268.648     3672.998     1511.729        1.550        0.473      146.347       30.812        0.044      348.617       28.443      861.769
09/15/2014  12:11:00     -205.707       27.068      -10.861       92.432       58.274       43.019     8543.744     3395.841     1850.633        2.848        0.690      207.480       46.009        0.049      348.621       28.447      861.739
09/15/2014  12:12:00     -275.176      -49.281      -21.522       76.016       62.208       40.931     5778.495     3869.814     1675.338        4.497        0.566      279.554       41.123        0.022      348.245       27.796      861.744
09/15/2014  12:13:00     -211.102     -114.301        1.003       83.222       67.971       46.218     6925.858     4620.026     2136.083        3.565        0.684      240.060       43.717        0.033      348.274       27.845      861.722
09/15/2014  12:14:00     -217.782      -72.044      -12.170       89.629       78.656       40.599     8033.337     6186.726     1648.305        3.432        0.793      229.389       35.810        0.024      348.359       27.993      861.691
09/15/2014  12:15:00     -146.564      -48.932        0.661      132.918       59.271       41.183    17667.162     3513.100     1696.047        2.337        1.144      154.516       61.834        0.160      348.596       28.406      861.665
09/15/2014  12:16:00     -130.849       32.318      -31.668       59.905       73.715       27.858     3588.589     5433.903      776.049        1.448        0.490      134.781       25.246        0.035      348.382       28.036      861.673
09/15/2014  12:17:00      -83.205      155.179       -8.323       61.830       75.023       48.362     3822.947     5628.418     2338.927        2.143        0.590      176.078       35.090        0.040      348.639       28.480      861.681
09/15/2014  12:18:00     -126.900      -12.964        1.695       81.218       83.397       35.833     6596.444     6955.108     1283.989        1.555        0.742      127.561       18.345        0.021      348.851       28.849      861.669
09/15/2014  12:19:00     -260.757      -17.060      -16.849       84.490       62.294       40.971     7138.603     3880.519     1678.618        4.063        0.635      261.314       43.510        0.028      348.504       28.244      861.657
09/15/2014  12:20:00     -242.591      -32.020      -15.520      116.133       92.296       40.967    13486.882     8518.485     1678.278        4.190        1.184      244.695       46.016        0.035      348.493       28.225      861.620
09/15/2014  12:21:00     -159.254       -4.546      -13.288       63.697       39.032       29.872     4057.247     1523.480      892.348        1.601        0.324      159.319       30.007        0.035      348.520       28.274      861.588
09/15/2014  12:22:00     -199.998        6.427       -9.412       95.014       57.511       35.883     9027.614     3307.568     1287.610        2.687        0.681      200.101       35.305        0.031      348.805       28.767      861.556
09/15/2014  12:23:00     -293.247       26.197      -33.077      104.052       76.396       42.644    10826.794     5836.389     1818.519        5.312        0.924      294.414       41.470        0.020      348.527       28.286      861.522
09/15/2014  12:24:00     -193.662      -24.701      -10.727       63.856       59.235       33.743     4077.543     3508.798     1138.579        2.348        0.436      195.231       30.264        0.024      348.472       28.191      861.498
09/15/2014  12:25:00     -147.527       30.993      -10.760       70.892      100.335       38.480     5025.674    10067.043     1480.746        1.970        0.829      150.748       45.339        0.090      348.602       28.417      861.486
09/15/2014  12:26:00     -202.646       45.325      -22.425      108.254       75.895       52.145    11718.929     5760.084     2719.132        3.191        1.010      207.653       51.528        0.062      348.498       28.235      861.480
09/15/2014  12:27:00     -110.800      116.691       -7.769       76.574       86.483       46.391     5863.649     7479.387     2152.158        2.072        0.775      160.915       32.530        0.041      348.717       28.615      861.475
09/15/2014  12:28:00     -167.649      200.989      -34.949       92.673       88.815       56.089     8588.300     7888.091     3145.957        4.467        0.981      261.730       51.108        0.038      348.606       28.420      861.490
09/15/2014  12:29:00     -241.526       69.391      -36.288      123.133       58.811       36.317    15161.705     3458.691     1318.927        4.220        0.997      251.296       49.869        0.039      348.281       27.860      861.504
09/15/2014  12:30:00      -93.026       53.401       -7.385       63.556       52.337       37.548     4039.349     2739.143     1409.884        0.987        0.409      107.264       44.409        0.171      348.794       28.751      861.475
09/15/2014  12:31:00      -13.694      137.772      -11.179       62.064       74.738       43.978     3851.906     5585.769     1934.083        1.533        0.569      138.451       32.316        0.054      348.710       28.603      861.464
09/15/2014  12:32:00      -79.250      120.728       -4.980       72.696       61.543       36.892     5284.762     3787.589     1361.024        1.566        0.522      144.416       33.056        0.052      348.766       28.701      861.434
09/15/2014  12:33:00     -157.368      192.345      -36.854       75.475       78.096       42.978     5696.500     6098.974     1847.107        3.838        0.682      248.518       54.455        0.048      348.522       28.276      861.446
09/15/2014  12:34:00     -173.142       70.009      -26.865       55.627       69.636       32.126     3094.336     4849.167     1032.099        2.229        0.449      186.760       14.237        0.006      348.469       28.185      861.439
09/15/2014  12:35:00      -37.904        3.197        1.099       39.309       49.202       29.968     1545.231     2420.879      898.063        0.316        0.243       38.038       18.831        0.245      348.818       28.792      861.425
09/15/2014  12:36:00      -95.947      134.705      -28.211       74.196       59.157       43.260     5505.039     3499.569     1871.459        1.951        0.544      165.383       42.651        0.067      348.734       28.644      861.418
09/15/2014  12:37:00      -26.744       54.201        4.370       39.148       43.234       36.781     1532.586     1869.163     1352.861        0.421        0.238       60.440       29.743        0.242      349.156       29.380      861.405
09/15/2014  12:38:00      -43.182       41.804       13.489       58.037       43.273       37.758     3368.256     1872.591     1425.699        0.523        0.333       60.103       35.133        0.342      349.256       29.550      861.403
09/15/2014  12:39:00     -187.311       96.376      -42.389       70.887       78.206       34.083     5024.976     6116.243     1161.676        2.923        0.615      210.651       30.769        0.021      348.672       28.536      861.382
09/15/2014  12:40:00     -240.562      150.837      -42.645       67.358       72.732       43.556     4537.138     5289.895     1897.139        4.708        0.586      283.939       40.225        0.020      348.629       28.460      861.351
09/15/2014  12:41:00     -155.060       96.111      -24.493       65.774       66.557       35.131     4326.188     4429.897     1234.221        2.193        0.500      182.431       34.738        0.036      348.683       28.557      861.322
09/15/2014  12:42:00      -33.271       93.022       -6.806       46.200       58.697       29.930     2134.467     3445.355      895.798        0.814        0.324       98.793       34.860        0.125      348.817       28.790      861.288
09/15/2014  12:43:00     -175.553      -34.422      -15.539       77.290       75.698       31.234     5973.697     5730.181      975.538        2.246        0.634      178.896       25.897        0.021      348.642       28.484      861.263
09/15/2014  12:44:00     -223.091      -34.357      -22.545       83.508       83.515       39.603     6973.581     6974.837     1568.388        3.348        0.776      225.721       29.611        0.017      348.605       28.419      861.255
09/15/2014  12:45:00     -301.564      -12.022      -39.674       53.730      111.627       34.691     2886.915    12460.573     1203.434        5.460        0.828      301.803       33.442        0.012      348.621       28.444      861.243
09/15/2014  12:46:00     -160.436      -45.771       -5.042      107.824       70.744       49.364    11626.089     5004.682     2436.785        2.346        0.953      166.837       50.918        0.093      348.939       29.000      861.238
09/15/2014  12:47:00     -260.643      -18.560      -26.529       83.934       83.083       39.271     7044.932     6902.759     1542.180        4.223        0.774      261.303       32.349        0.015      348.917       28.960      861.238
09/15/2014  12:48:00     -136.451      -21.250        1.206       91.236       58.549       31.868     8324.080     3427.979     1015.566        1.592        0.638      138.096       42.512        0.095      349.010       29.122      861.224
09/15/2014  12:49:00      -79.650      -75.075        2.614       53.641       38.715       27.561     2877.370     1498.857      759.609        0.856        0.257      109.455       22.438        0.042      349.100       29.280      861.213
09/15/2014  12:50:00     -177.802     -114.619       -6.487      130.172       94.947       51.940    16944.735     9014.921     2697.715        3.672        1.433      211.544       49.142        0.054      348.997       29.100      861.191
09/15/2014  12:51:00     -199.328     -105.874        3.258       99.612      102.812       54.453     9922.479    10570.383     2965.153        3.720        1.173      225.701       52.745        0.055      349.005       29.113      861.151
09/15/2014  12:52:00     -201.654      -56.904      -13.112       82.151       64.337       38.392     6748.725     4139.295     1473.983        2.822        0.618      209.529       41.779        0.040      348.950       29.018      861.138
09/15/2014  12:53:00     -114.460      -44.373        9.505      116.729       57.866       45.716    13625.679     3348.522     2089.991        1.711        0.953      122.760       60.040        0.239      349.095       29.271      861.145
09/15/2014  12:54:00     -211.642     -109.912      -10.370       55.659       54.470       31.831     3097.962     2966.980     1013.226        3.203        0.354      238.481       29.442        0.015      348.900       28.930      861.154
09/15/2014  12:55:00     -117.734      -92.442       -4.108       78.472       54.750       38.132     6157.782     2997.511     1454.028        1.651        0.530      149.689       38.476        0.066      348.966       29.047      861.160
09/15/2014  12:56:00     -125.231      -98.512        3.450       61.559       47.576       30.308     3789.502     2263.440      918.550        1.618        0.349      159.335       34.344        0.046      348.956       29.030      861.162
09/15/2014  12:57:00      -80.001      -42.342       11.883       74.651       54.368       33.376     5572.797     2955.907     1113.927        0.899        0.482       90.515       44.067        0.237      349.387       29.778      861.163
09/15/2014  12:58:00     -120.963      -41.001       -0.357      100.170       67.335       43.839    10034.023     4533.973     1921.843        1.640        0.824      127.723       33.741        0.070      349.349       29.710      861.160
09/15/2014  12:59:00     -180.282      -31.219        8.686      113.710       89.182       46.709    12930.019     7953.515     2181.729        2.830        1.153      182.965       50.820        0.077      349.116       29.305      861.167
09/15/2014  13:00:00     -175.894       19.139       -0.575       70.638       55.532       40.114     4989.673     3083.780     1609.137        2.049        0.484      176.932       40.494        0.052      348.985       29.078      861.174
09/15/2014  13:01:00      -70.957       19.344       16.407       66.135       42.702       33.565     4373.894     1823.491     1126.607        0.650        0.366       73.546       34.913        0.225      349.222       29.491      861.159
09/15/2014  13:02:00      -85.194      -14.319       -3.730       60.331       29.683       26.979     3639.884      881.101      727.857        0.636        0.262       86.388       24.906        0.083      349.173       29.406      861.143
09/15/2014  13:03:00     -155.240        5.805       -0.742       77.713       55.269       45.329     6039.282     3054.690     2054.688        1.764        0.557      155.349       41.305        0.071      349.153       29.370      861.124
09/15/2014  13:04:00     -153.621       -7.681      -10.106       63.165       39.452       31.892     3989.786     1556.475     1017.100        1.516        0.328      153.813       34.816        0.051      349.126       29.323      861.107
09/15/2014  13:05:00     -150.472        6.275      -21.514       79.891       37.203       33.947     6382.501     1384.097     1152.399        1.603        0.446      150.603       40.588        0.073      348.860       28.865      861.100
09/15/2014  13:06:00      -60.881       -0.159      -14.670       46.173       29.368       21.895     2131.942      862.484      479.375        0.370        0.174       60.882       13.171        0.047      349.015       29.132      861.076
09/15/2014  13:07:00     -201.448       36.136      -20.406       87.763       52.630       33.791     7702.276     2769.935     1141.831        2.696        0.581      204.664       25.861        0.016      348.974       29.059      861.059
09/15/2014  13:08:00     -107.599       49.108       -4.664       65.142       52.296       39.277     4243.473     2734.900     1542.667        1.126        0.426      118.275       29.398        0.062      349.158       29.381      861.052
09/15/2014  13:09:00      -26.946       25.148      -10.970       35.617       44.349       33.581     1268.573     1966.840     1127.656        0.292        0.218       36.858       29.782        0.653      349.277       29.587      861.038
09/15/2014  13:10:00      -61.725       -7.153       -1.959       51.932       28.997       19.827     2696.961      840.832      393.101        0.390        0.197       62.138       18.578        0.089      349.191       29.438      861.013
09/15/2014  13:11:00     -111.851        8.963       -2.909       54.224       49.400       25.148     2940.264     2440.388      632.416        0.931        0.301      112.209       21.131        0.035      349.214       29.478      860.988
09/15/2014  13:12:00     -213.660       23.131      -17.890       55.979       65.026       33.415     3133.641     4228.354     1116.579        2.749        0.424      214.908       31.025        0.021      349.219       29.482      861.004
09/15/2014  13:13:00     -125.678        6.576      -14.873       41.298       56.240       32.098     1705.514     3162.957     1030.300        1.098        0.295      125.850       25.129        0.040      349.319       29.660      861.021
09/15/2014  13:14:00     -108.257       11.984      -19.128       37.546       18.672       21.063     1409.740      348.657      443.658        0.722        0.110      108.919       12.115        0.012      348.917       28.963      861.037
09/15/2014  13:15:00      -36.796      -38.609       -6.640       61.091       54.805       21.970     3732.094     3003.571      482.680        0.505        0.361       53.334       19.570        0.135      349.071       29.231      861.046
09/15/2014  13:16:00      -58.138      -71.698       -8.533       56.301       42.271       26.637     3169.828     1786.874      709.517        0.713        0.283       92.307       19.617        0.045      349.200       29.454      861.042
09/15/2014  13:17:00     -110.247      -23.046       10.243       71.569       50.160       36.134     5122.060     2516.074     1305.637        1.087        0.447      112.630       33.009        0.086      349.545       30.052      861.015
09/15/2014  13:18:00      -24.563      -28.322       11.264       71.687       42.969       35.082     5138.973     1846.303     1230.756        0.487        0.411       37.490       39.488        1.109      349.324       29.669      860.967
09/15/2014  13:19:00       29.722       42.047       28.304       34.435       28.898       31.187     1185.773      835.071      972.598        0.322        0.150       51.491       27.620        0.288      349.508       29.988      860.932
09/15/2014  13:20:00       52.305       -1.379       49.752       44.556       79.890       41.912     1985.213     6382.475     1756.637        0.767        0.506       52.323       47.181        0.813      349.440       29.869      860.927
09/15/2014  13:21:00       27.099      -34.365       24.268       37.447       26.457       33.389     1402.263      699.996     1114.847        0.286        0.161       43.764       19.559        0.200      349.678       30.282      860.929
09/15/2014  13:22:00     -110.778      -25.628      -11.448       55.404       40.426       26.233     3069.553     1634.252      688.169        0.922        0.270      113.704       25.553        0.051      349.339       29.695      860.894
09/15/2014  13:23:00      -46.284      -17.619        5.485       79.681       84.666       32.233     6349.089     7168.318     1038.944        0.852        0.728       49.524       40.684        0.675      349.632       30.204      860.833
09/15/2014  13:24:00       39.232        5.107       43.387       57.700       54.809       49.423     3329.272     3004.037     2442.680        0.611        0.439       39.563       36.273        0.841      349.986       30.818      860.849
09/15/2014  13:25:00      -11.508      -23.735       15.681       48.558       47.063       30.410     2357.924     2214.909      924.774        0.322        0.275       26.378       30.153        1.307      349.801       30.496      860.862
09/15/2014  13:26:00      -21.584      -91.565        5.088       68.692       68.943       33.347     4718.545     4753.161     1112.050        0.973        0.529       94.075       24.180        0.066      349.478       29.935      860.851
09/15/2014  13:27:00     -102.353      -18.668      -13.455       79.304       59.431       38.731     6289.160     3532.084     1500.108        1.116        0.566      104.042       33.773        0.105      349.393       29.789      860.796
09/15/2014  13:28:00      -78.694      -27.590        7.816      105.517       47.567       33.601    11133.820     2262.590     1129.005        1.077        0.726       83.391       22.012        0.070      349.515       29.999      860.791
09/15/2014  13:29:00     -220.004      -66.055       -8.002      108.415       73.507       42.653    11753.917     5403.322     1819.317        3.590        0.949      229.707       39.225        0.029      349.515       29.997      860.768
09/15/2014  13:30:00     -141.899       26.210      -13.565       68.327       62.687       40.616     4668.560     3929.617     1649.684        1.563        0.512      144.299       37.795        0.069      349.400       29.799      860.751
09/15/2014  13:31:00     -127.660      -60.041        0.239       93.568       77.983       43.914     8755.050     6081.310     1928.409        1.833        0.838      141.074       39.789        0.080      349.560       30.076      860.762
09/15/2014  13:32:00     -180.325      -70.803        7.445      103.200       89.451       52.832    10650.207     8001.400     2791.199        2.951        1.072      193.727       57.843        0.089      349.422       29.836      860.813
09/15/2014  13:33:00     -254.187     -207.657       -4.491      130.777      120.233       66.566    17102.623    14455.982     4431.080        7.187        1.799      328.226       72.807        0.049      349.207       29.463      860.810
09/15/2014  13:34:00     -221.328      -99.306       -7.822      120.518       99.464       47.902    14524.586     9892.988     2294.567        4.281        1.336      242.586       50.661        0.044      349.171       29.399      860.754
09/15/2014  13:35:00     -254.032      -12.086      -14.044       89.909       82.916       55.120     8083.636     6875.034     3038.222        4.143        0.900      254.319       51.095        0.040      349.201       29.451      860.665
09/15/2014  13:36:00      -25.123      -79.258       20.787      101.414       76.116       48.264    10284.839     5793.697     2329.380        1.287        0.920       83.144       49.676        0.357      349.369       29.745      860.659
09/15/2014  13:37:00       25.595     -174.519       -0.629       48.666       61.775       37.246     2368.426     3816.175     1387.278        1.934        0.379      176.386       23.282        0.017      349.170       29.401      860.682
09/15/2014  13:38:00       96.060     -147.066      -17.480       92.294       81.720       48.433     8518.142     6678.184     2345.779        2.435        0.877      175.658       25.417        0.021      349.488       29.950      860.695
09/15/2014  13:39:00       71.813       29.375       39.361       55.838       76.999       44.764     3117.836     5928.775     2003.798        0.931        0.553       77.589       31.703        0.167      349.652       30.237      860.670
09/15/2014  13:40:00       98.787      -48.547       37.707       71.101      119.112       62.302     5055.390    14187.763     3881.555        1.833        1.156      110.071       67.289        0.374      349.514       29.997      860.651
09/15/2014  13:41:00       67.962     -137.711        4.132       61.322       98.384       64.634     3760.404     9679.348     4177.593        2.061        0.881      153.568       52.701        0.118      349.790       30.474      860.697
09/15/2014  13:42:00      123.150     -332.248      -24.222      179.465      168.786       79.272    32207.740    28488.783     6284.086        9.655        3.349      354.337       77.590        0.048      349.604       30.150      860.655
09/15/2014  13:43:00       82.100     -208.913       28.477      135.657      179.615       92.383    18402.805    32261.382     8534.565        5.519        2.960      224.466       97.765        0.190      349.680       30.284      860.618
09/15/2014  13:44:00       94.073      -43.751       41.507      144.558      156.034       98.269    20896.969    24346.514     9656.770        3.368        2.745      103.749      100.306        0.935      349.839       30.558      860.547
09/15/2014  13:45:00       35.580     -116.463       25.830      121.614      130.360       82.604    14790.069    16993.801     6823.415        2.705        1.930      121.777       73.090        0.360      349.876       30.623      860.577
09/15/2014  13:46:00      -10.958     -147.924        6.508      114.125      137.597       60.063    13024.457    18932.992     3607.624        2.880        1.778      148.329       52.355        0.125      349.842       30.564      860.592
09/15/2014  13:47:00      -68.815     -262.247      -11.121      138.744      153.154       70.668    19249.962    23456.070     4993.912        6.066        2.385      271.125       63.339        0.055      349.733       30.374      860.631
09/15/2014  13:48:00     -113.612     -142.762       -3.317      100.293       87.413       52.449    10058.649     7640.966     2750.907        2.687        1.023      182.452       29.399        0.026      349.726       30.362      860.623
09/15/2014  13:49:00      140.307     -150.262       10.561      115.514      127.891       65.306    13343.545    16356.110     4264.864        3.816        1.698      205.584       69.992        0.116      349.970       30.786      860.558
09/15/2014  13:50:00      -69.280      -94.698       -4.182      114.689      119.862       46.979    13153.564    14366.785     2207.058        2.175        1.486      117.334       34.594        0.087      349.973       30.792      860.497
09/15/2014  13:51:00     -144.357     -126.176       -3.581      158.784      139.107       68.996    25212.323    19350.827     4760.482        4.304        2.466      191.727       48.495        0.064      350.126       31.056      860.481
09/15/2014  13:52:00      -33.094       22.459       14.055       84.012       59.583       38.783     7058.074     3550.084     1504.130        0.695        0.606       39.995       13.778        0.119      350.186       31.165      860.453
09/15/2014  13:53:00       95.593     -257.384       -7.627      149.500      203.651       75.708    22350.235    41473.787     5731.748        7.249        3.478      274.563       70.729        0.066      349.955       30.760      860.442
09/15/2014  13:54:00      -52.230     -214.829        9.443      174.841      143.231       66.527    30569.252    20515.160     4425.815        5.223        2.776      221.087       50.019        0.051      350.238       31.252      860.402
09/15/2014  13:55:00     -113.113     -208.054      -25.089      134.219      171.840       80.577    18014.685    29528.926     6492.665        5.536        2.702      236.814       78.885        0.111      350.256       31.283      860.471
09/15/2014  13:56:00     -214.657     -346.230      -20.538      196.451      205.817       82.270    38592.892    42360.781     6768.356       12.703        4.386      407.373       60.692        0.022      349.913       30.686      860.527
09/15/2014  13:57:00      -86.838     -282.079        5.485      176.141      153.412       92.256    31025.504    23535.148     8511.179        7.510        3.154      295.143       62.684        0.045      349.991       30.823      860.496
09/15/2014  13:58:00     -235.403     -197.547        3.686      253.172      173.581       95.390    64096.120    30130.397     9099.269        9.887        5.166      307.310       93.239        0.092      350.006       30.847      860.426
09/15/2014  13:59:00      -93.903     -359.636        5.623      203.277      182.729       83.798    41321.384    33389.784     7022.047       10.995        4.087      371.693       79.585        0.046      350.019       30.871      860.474
09/15/2014  14:00:00     -242.520     -390.499       -4.392      299.769      216.397      112.894    89861.323    46827.559    12745.118       18.035        7.472      459.680      103.262        0.050      349.933       30.721      860.452
09/15/2014  14:01:00     -262.482     -232.906       10.172      283.642      185.616      100.805    80453.041    34453.375    10161.678       12.414        6.253      350.915      127.977        0.133      350.089       30.994      860.438
09/15/2014  14:02:00       15.990     -246.218        3.703      159.404      238.616       80.431    25409.727    56937.443     6469.078        7.484        4.441      246.736       63.379        0.066      350.080       30.978      860.428
09/15/2014  14:03:00       40.019     -426.923        5.099      165.063      163.820       79.301    27245.665    26836.832     6288.668       12.212        3.019      428.795       63.843        0.022      349.717       30.347      860.454
09/15/2014  14:04:00      -21.146     -276.703      -23.524      187.284      204.288      125.451    35075.170    41733.415    15737.939        8.504        4.627      277.510      100.049        0.130      349.883       30.635      860.334
09/15/2014  14:05:00     -323.586     -168.912        4.402      287.570      219.711      115.718    82696.296    48272.869    13390.686       13.879        7.218      365.019       96.787        0.070      349.897       30.658      860.374
09/15/2014  14:06:00      -96.994     -237.586      -12.351      138.711      130.205       87.762    19240.625    16953.400     7702.116        5.494        2.195      256.622       51.123        0.040      349.970       30.786      860.368
09/15/2014  14:07:00     -191.824     -357.648      -19.616      294.721      211.234      104.048    86860.670    44619.729    10825.974       15.368        7.115      405.843       98.579        0.059      349.922       30.704      860.362
09/15/2014  14:08:00     -412.043     -356.132      -15.476      245.160      236.495      113.140    60103.542    55929.755    12800.729       21.282        6.442      544.619      125.864        0.053      349.985       30.813      860.282
09/15/2014  14:09:00      154.657     -303.602       13.816      250.794      261.364      118.313    62897.430    68311.218    13998.021       13.072        7.260      340.724      102.993        0.091      350.029       30.887      860.306
09/15/2014  14:10:00      -17.682     -409.309      -34.210      223.321      260.637       93.451    49872.360    67931.535     8733.144       14.776        6.327      409.691       92.474        0.051      349.952       30.754      860.345
09/15/2014  14:11:00      -42.431     -182.797       15.087      144.418      178.434       89.799    20856.618    31838.740     8063.839        4.809        3.038      187.657       90.824        0.234      350.137       31.078      860.388
09/15/2014  14:12:00      -45.751     -229.609       -8.850      134.462      146.976       75.904    18080.029    21601.845     5761.404        5.016        2.272      234.123       23.545        0.010      350.018       30.869      860.342
09/15/2014  14:13:00      -35.499     -413.142       -4.400      191.683      180.285      117.034    36742.263    32502.542    13697.043       12.744        4.147      414.664      101.235        0.060      349.838       30.558      860.309
09/15/2014  14:14:00       16.747     -189.735       22.141      136.638      140.983       83.145    18669.878    19876.310     6913.141        4.111        2.273      190.473       51.190        0.072      350.084       30.985      860.301
09/15/2014  14:15:00      -27.869     -339.268       25.284      228.321      210.153      116.165    52130.488    44164.232    13494.405       11.314        5.489      340.411      115.388        0.115      349.974       30.792      860.315
09/15/2014  14:16:00     -172.766     -322.850       -1.071      256.625      194.860       98.020    65856.455    37970.306     9607.857       12.374        5.672      366.170       88.122        0.058      349.882       30.633      860.326
09/15/2014  14:17:00     -109.690     -139.474       41.995      161.284      157.730       87.541    26012.628    24878.615     7663.498        4.589        2.928      177.440       87.723        0.244      350.179       31.150      860.333
09/15/2014  14:18:00      -59.623     -105.029       -4.152       92.359       90.167       67.858     8530.141     8130.040     4604.656        1.793        1.063      120.772       49.175        0.166      350.230       31.241      860.345
09/15/2014  14:19:00       -7.763     -231.697       -2.300       97.007      123.824       66.234     9410.383    15332.350     4386.948        4.143        1.456      231.827       63.779        0.076      349.734       30.375      860.271
09/15/2014  14:20:00      -35.298     -131.812       21.940       80.450       73.976       51.112     6472.280     5472.493     2612.437        1.683        0.728      136.456       33.818        0.061      350.035       30.901      860.214
09/15/2014  14:21:00     -214.525     -124.296        3.093      157.304      160.682       57.326    24744.517    25818.783     3286.260        5.766        2.692      247.932       69.110        0.078      350.237       31.252      860.185
09/15/2014  14:22:00     -134.559     -254.940       -4.139      175.210      105.499       80.737    30698.413    11129.993     6518.531        6.572        2.417      288.271       75.299        0.068      350.248       31.268      860.205
09/15/2014  14:23:00     -280.908     -229.021       17.747      209.106      186.791       96.908    43725.267    34890.699     9391.176       10.983        4.400      362.436       96.378        0.071      350.166       31.127      860.210
09/15/2014  14:24:00      -91.184     -210.900       13.014      197.421      152.495       88.694    38975.016    23254.659     7866.702        6.152        3.505      229.768       90.730        0.156      350.215       31.211      860.208
09/15/2014  14:25:00      -17.588     -530.559      -27.832      171.129      226.458       97.681    29285.156    51283.372     9541.670       18.633        4.506      530.851       92.278        0.030      349.897       30.657      860.234
09/15/2014  14:26:00       32.497     -246.298      -16.145      140.658      126.181       73.622    19784.601    15921.644     5420.217        5.155        2.056      248.433       55.024        0.049      350.119       31.044      860.222
09/15/2014  14:27:00      -73.145     -458.464      -15.111      181.592      272.674       86.842    32975.517    74351.178     7541.507       16.530        5.743      464.262       83.905        0.033      349.852       30.582      860.264
09/15/2014  14:28:00       75.920     -146.399       -3.829      120.397       98.096       52.444    14495.555     9622.918     2750.368        2.704        1.343      164.914       53.269        0.104      350.057       30.939      860.202
09/15/2014  14:29:00      128.079     -251.984        6.928      181.544      185.106      107.407    32958.264    34264.215    11536.355        7.934        3.938      282.667      107.723        0.145      350.065       30.951      860.167
09/15/2014  14:30:00        6.967     -194.549       35.681      171.783      217.121      116.596    29509.400    47141.579    13594.689        6.469        4.512      194.673      118.833        0.373      350.076       30.969      860.088
09/15/2014  14:31:00      -14.614     -255.243       -0.114      149.390      185.703      103.037    22317.426    34485.686    10616.533        6.638        3.371      255.661       81.301        0.101      350.079       30.974      860.056
09/15/2014  14:32:00       -3.808     -282.212       -8.615      148.607      151.656       68.550    22084.059    22999.606     4699.101        6.475        2.489      282.237       65.282        0.054      350.052       30.928      860.070
09/15/2014  14:33:00       34.406     -248.491       -6.089      198.633      138.126       70.945    39455.208    19078.796     5033.243        6.326        3.178      250.861       55.364        0.049      350.124       31.053      860.031
09/15/2014  14:34:00       30.069     -210.966       -0.466      118.759      116.171       77.865    14103.812    13495.756     6062.993        3.953        1.683      213.098       67.456        0.100      350.162       31.119      860.010
09/15/2014  14:35:00      -36.407     -133.816       -8.315      124.777       81.769       65.774    15569.260     6686.143     4326.241        2.294        1.329      138.680       38.091        0.075      350.294       31.351      859.985
09/15/2014  14:36:00      -36.129     -167.901       -0.922       92.714      105.320       66.644     8595.857    11092.398     4441.430        2.681        1.206      171.744       41.559        0.059      350.614       31.907      859.999
09/15/2014  14:37:00     -168.642     -257.618       -7.157      119.970      106.578       74.476    14392.866    11358.881     5546.734        6.307        1.565      307.908       67.753        0.048      350.263       31.296      860.004
09/15/2014  14:38:00      -40.166     -242.704       14.025      192.322      141.560       80.574    36987.672    20039.315     6492.187        6.211        3.176      246.005       83.519        0.115      350.309       31.376      860.012
09/15/2014  14:39:00      -92.786     -178.110        5.694      182.861      144.173      102.381    33438.245    20785.876    10481.968        5.252        3.235      200.829       91.218        0.206      350.390       31.517      860.034
09/15/2014  14:40:00       98.424     -141.304       59.040      150.191      267.198      141.299    22557.329    71394.992    19965.354        7.351        5.696      172.204      159.007        0.853      350.046       30.919      859.957
09/15/2014  14:41:00     -113.467     -154.457       -9.084      162.982      104.449       83.937    26563.015    10909.557     7045.459        4.066        2.226      191.655       63.157        0.109      350.116       31.041      859.971
09/15/2014  14:42:00      -42.785     -148.680       -4.872       95.482      162.884       66.462     9116.816    26531.260     4417.156        3.201        2.003      154.714       62.960        0.166      350.454       31.630      860.002
09/15/2014  14:43:00     -118.407     -169.254      -24.196      187.845      144.279       64.266    35285.759    20816.433     4130.167        5.173        3.012      206.560       40.021        0.038      349.948       30.748      859.972
09/15/2014  14:44:00       -6.810     -211.403       -9.148       85.709       94.608       59.373     7346.018     8950.592     3525.105        3.232        0.991      211.513       48.270        0.052      349.937       30.728      859.949
09/15/2014  14:45:00      -14.142     -205.665       -4.564      151.035      128.831       74.753    22811.641    16597.316     5588.022        4.375        2.250      206.150       41.050        0.040      350.009       30.854      859.951
09/15/2014  14:46:00       23.771     -280.798      -21.232      136.645      157.948       75.590    18671.865    24947.541     5713.852        6.459        2.467      281.802       71.944        0.065      350.016       30.865      859.975
09/15/2014  14:47:00       70.361     -109.216       54.211      135.771      183.965      103.882    18433.630    33843.264    10791.538        4.143        3.153      129.918      111.909        0.742      350.211       31.205      859.951
09/15/2014  14:48:00       33.885     -218.996        4.615      108.281      120.633       73.226    11724.793    14552.434     5362.019        4.038        1.582      221.602       53.974        0.059      350.006       30.848      859.918
09/15/2014  14:49:00      163.306     -270.778      -43.414      133.024      146.488       98.155    17695.409    21458.707     9634.399        7.532        2.439      316.211       76.590        0.059      349.994       30.827      859.865
09/15/2014  14:50:00      -78.289     -239.968       -4.323      199.300      216.063       99.052    39720.554    46683.291     9811.349        7.996        4.811      252.416       92.947        0.136      350.017       30.868      859.905
09/15/2014  14:51:00       60.881     -183.843       44.549      165.316      220.767      123.518    27329.326    48738.106    15256.696        6.539        4.566      193.662      133.050        0.472      350.146       31.091      859.815
09/15/2014  14:52:00       21.836     -359.232      -38.679      161.508      214.452      113.437    26084.695    45989.869    12867.862       10.797        4.247      359.895       99.083        0.076      350.075       30.968      859.871
09/15/2014  14:53:00       90.335     -347.521      -41.519      153.266      130.660       78.933    23490.350    17072.115     6230.495        8.872        2.340      359.070       60.716        0.029      350.041       30.909      859.876
09/15/2014  14:54:00       63.312     -319.516      -13.041      176.472      197.152      105.413    31142.381    38869.058    11111.850        9.368        4.056      325.728       98.864        0.092      349.939       30.733      859.938
09/15/2014  14:55:00       35.166     -287.892      -37.080      107.741      179.016       75.028    11608.158    32046.628     5629.184        6.738        2.464      290.032       73.285        0.064      349.868       30.608      859.873
09/15/2014  14:56:00       54.275      -95.173      -13.337       96.951       94.096       54.947     9399.506     8854.141     3019.148        1.672        1.064      109.562       53.095        0.235      350.215       31.215      859.805
09/15/2014  14:57:00       14.372       -4.326       25.401       77.422       43.137       39.060     5994.101     1860.794     1525.646        0.512        0.469       15.009       24.658        2.699      350.405       31.546      859.798
09/15/2014  14:58:00       90.938      -40.935       27.524       87.491       88.043       70.016     7654.614     7751.646     4902.177        1.550        1.015       99.727       52.020        0.272      350.262       31.295      859.753
09/15/2014  14:59:00       92.515      -26.769       58.899      116.780      173.093      113.504    13637.685    29961.320    12883.235        3.460        2.824       96.310      122.315        1.613      350.311       31.381      859.683
09/15/2014  15:00:00       17.157      -86.211        0.415       90.017       84.988       37.542     8102.993     7222.986     1409.380        1.223        0.837       87.902       34.262        0.152      350.558       31.810      859.728
09/15/2014  15:01:00      137.468     -344.749      -11.638      143.972      175.878      105.601    20727.826    30932.930    11151.564       10.034        3.141      371.146       91.763        0.061      350.308       31.374      859.723
09/15/2014  15:02:00      -14.100     -302.306      -31.364      217.854      201.911       92.242    47460.234    40767.936     8508.627        9.464        4.837      302.635       82.876        0.075      350.319       31.393      859.714
09/15/2014  15:03:00     -374.044     -196.143       28.344      230.218      179.653       90.906    53000.270    32275.211     8263.931       13.635        4.677      422.352       92.840        0.048      350.374       31.488      859.748
09/15/2014  15:04:00     -266.060     -281.274       -0.728      188.669      226.213       88.396    35596.124    51172.181     7813.839       12.223        4.729      387.173       90.884        0.055      350.254       31.279      859.745
09/15/2014  15:05:00     -285.115     -257.967        3.568      171.140      164.244       91.404    29288.779    26976.079     8354.773       10.622        3.231      384.497       84.011        0.048      350.388       31.513      859.696
09/15/2014  15:06:00     -139.316     -370.993        3.284      185.448      221.079       87.169    34391.033    48875.981     7598.371       12.395        4.543      396.288       71.989        0.033      350.299       31.358      859.795
09/15/2014  15:07:00     -252.133     -417.248      -26.527      209.641      243.274      111.620    43949.548    59182.124    12458.981       17.696        5.780      487.511      102.412        0.044      350.042       30.912      859.788
09/15/2014  15:08:00     -285.304     -320.752      -18.431      171.361      198.900       89.919    29364.438    39561.213     8085.438       13.080        3.851      429.278       57.636        0.018      350.076       30.969      859.737
09/15/2014  15:09:00     -161.306     -247.079        3.455      265.327      220.973       88.516    70398.407    48828.962     7835.018       10.705        6.353      295.072       86.585        0.086      350.163       31.121      859.719
09/15/2014  15:10:00      -98.092     -175.426       -9.395      147.007      132.493       85.399    21611.102    17554.499     7292.985        4.346        2.323      200.988       33.839        0.028      350.166       31.127      859.758
09/15/2014  15:11:00     -229.907     -280.403       -5.497      169.906      177.028       77.668    28868.163    31339.042     6032.252        9.887        3.312      362.606       57.872        0.025      350.252       31.276      859.747
09/15/2014  15:12:00     -183.917     -199.839       16.382      199.783      139.212       75.465    39913.084    19380.024     5694.952        6.950        3.249      271.590       90.396        0.111      350.401       31.536      859.747
09/15/2014  15:13:00        0.390     -110.812       -3.007      119.916       98.573       83.032    14379.729     9716.702     6894.396        2.163        1.550      110.812       43.463        0.154      350.453       31.628      859.762
09/15/2014  15:14:00       -3.061     -203.109      -13.390      108.801      101.278       76.061    11837.745    10257.276     5785.324        3.466        1.394      203.132       62.281        0.094      350.291       31.343      859.762
09/15/2014  15:15:00      -60.206     -162.882        0.842      112.716      122.902       61.636    12704.945    15104.826     3798.939        3.088        1.580      173.653       61.464        0.125      350.388       31.514      859.761
09/15/2014  15:16:00        6.615     -106.851      -37.083       63.772      118.030       66.745     4066.850    13931.030     4454.960        1.764        1.123      107.056       59.720        0.311      350.363       31.471      859.744
09/15/2014  15:17:00       -9.035      -52.306       12.713       68.109       97.931       44.588     4638.818     9590.491     1988.104        0.960        0.811       53.081       52.246        0.969      350.381       31.503      859.734
09/15/2014  15:18:00        4.250      -32.394       29.874       34.290       78.101       28.855     1175.808     6099.789      832.596        0.503        0.405       32.671       29.342        0.807      350.551       31.798      859.710
09/15/2014  15:19:00      -32.137     -140.924       53.512       90.867      203.659       86.645     8256.725    41476.903     7507.442        4.049        2.862      144.542      116.283        0.647      350.361       31.467      859.685
09/15/2014  15:20:00      -18.306     -186.486       -8.089       92.548      184.722       58.538     8565.173    34122.376     3426.739        4.064        2.306      187.382       67.351        0.129      350.406       31.544      859.649
09/15/2014  15:21:00      -39.024      -93.744       51.518      132.041      145.033      106.643    17434.923    21034.565    11372.764        3.140        2.492      101.542       75.313        0.550      350.366       31.477      859.577
09/15/2014  15:22:00      118.225     -198.715       -1.858      160.136      158.828       98.419    25643.443    25226.261     9686.205        5.700        3.028      231.224       81.522        0.124      350.300       31.360      859.529
09/15/2014  15:23:00     -137.198      -61.428       27.260      113.295      132.483       75.960    12835.680    17551.654     5769.908        2.974        1.808      150.322       72.331        0.232      350.527       31.756      859.526
09/15/2014  15:24:00     -177.648     -185.689       -6.376       99.564      139.896       56.111     9913.044    19570.993     3148.489        4.935        1.632      256.981       41.854        0.027      350.448       31.616      859.650
09/15/2014  15:25:00     -297.082     -198.630       -2.547      261.049      224.689       87.207    68146.707    50484.988     7605.076       12.696        6.312      357.367      112.166        0.099      350.314       31.384      859.628
09/15/2014  15:26:00     -324.573     -214.687       28.870      243.889      186.017      109.830    59481.810    34602.424    12062.710       12.919        5.307      389.150      121.473        0.097      350.032       30.894      859.539
09/15/2014  15:27:00     -357.037     -269.325       -7.836      225.094      216.194      100.947    50667.495    46739.963    10190.384       15.382        5.380      447.226      104.184        0.054      350.018       30.870      859.559
09/15/2014  15:28:00     -253.995     -166.820       17.093      187.984      166.204       88.269    35337.805    27623.909     7791.401        8.168        3.538      303.879       97.750        0.103      350.175       31.142      859.553
09/15/2014  15:29:00     -222.832     -155.451       -5.254      108.373      116.482       61.102    11744.607    13567.977     3733.465        5.144        1.452      271.697       56.920        0.044      350.304       31.365      859.620
09/15/2014  15:30:00     -220.568     -251.634        2.275      147.209      199.844       80.670    21670.572    39937.562     6507.695        9.003        3.406      334.619       84.082        0.063      350.262       31.293      859.675
09/15/2014  15:31:00     -219.831     -222.231       -7.056      128.204      199.217       72.238    16436.361    39687.385     5218.311        7.954        3.067      312.590       88.430        0.080      350.130       31.063      859.685
09/15/2014  15:32:00     -116.719      -82.695        9.270      150.898      107.097       66.422    22770.276    11469.761     4411.931        2.959        1.933      143.044       67.428        0.222      350.095       31.003      859.704
09/15/2014  15:33:00     -249.342     -110.716        3.537      175.373      109.789       59.198    30755.634    12053.675     3504.351        6.037        2.316      272.818       59.209        0.047      349.917       30.696      859.691
09/15/2014  15:34:00     -404.538     -190.182        2.496      247.531      197.489      101.969    61271.721    39002.088    10397.746       15.523        5.534      447.012      117.236        0.069      349.699       30.316      859.686
09/15/2014  15:35:00     -353.202     -150.124       -7.872      227.878      191.049       81.603    51928.235    36499.683     6659.097       12.120        4.754      383.783       96.975        0.064      349.742       30.390      859.677
09/15/2014  15:36:00     -367.508     -128.170       -9.163      280.545      167.622       85.720    78705.309    28097.000     7347.929       13.284        5.708      389.216      108.072        0.077      349.790       30.473      859.668
09/15/2014  15:37:00     -250.127      -62.553       -1.470      158.237       96.775       62.178    25038.979     9365.396     3866.076        5.237        1.914      257.830       61.218        0.056      349.930       30.717      859.680
09/15/2014  15:38:00     -370.833     -128.637      -29.895      194.174      101.369       75.639    37703.529    10275.714     5721.249       10.432        2.685      392.511       77.395        0.039      349.853       30.583      859.664
09/15/2014  15:39:00     -415.680      -41.674      -21.280      244.182      160.273       97.278    59624.639    25687.546     9463.027       13.486        4.739      417.764      103.986        0.062      349.843       30.565      859.669
09/15/2014  15:40:00     -449.233     -159.150        8.202      198.475      168.675       85.394    39392.338    28451.107     7292.135       15.116        3.757      476.592       81.242        0.029      349.727       30.364      859.686
09/15/2014  15:41:00     -430.859     -194.991      -14.252      243.467      156.836       93.344    59276.019    24597.603     8713.016       15.821        4.629      472.928      108.467        0.053      349.448       29.881      859.688
09/15/2014  15:42:00     -450.446     -151.645      -34.039      199.445      148.791       84.749    39778.443    22138.639     7182.358       14.807        3.455      475.287      103.166        0.047      349.377       29.756      859.669
09/15/2014  15:43:00     -239.453     -125.570        5.793      184.792      118.568       75.784    34147.906    14058.301     5743.148        6.354        2.697      270.380       83.777        0.096      349.590       30.127      859.634
09/15/2014  15:44:00     -206.549     -210.988       13.227      195.623      165.930       94.905    38268.338    27532.639     9007.029        8.107        3.740      295.260      114.340        0.150      349.722       30.355      859.621
09/15/2014  15:45:00     -391.308      -33.256      -22.514      222.541      132.371       70.519    49524.461    17522.112     4972.932       11.336        3.601      392.718       84.262        0.046      349.797       30.486      859.615
09/15/2014  15:46:00     -293.680      -79.950       -8.544      193.292      131.788       78.424    37361.706    17368.085     6150.288        7.679        3.044      304.368       89.804        0.087      349.896       30.658      859.607
09/15/2014  15:47:00     -358.389      -85.493       -7.520      172.806      135.994       82.466    29861.785    18494.362     6800.644        9.547        2.758      368.445       89.908        0.060      349.876       30.623      859.604
09/15/2014  15:48:00     -432.815       24.384      -23.747      182.511      144.412       90.426    33310.171    20854.785     8176.935       12.540        3.117      433.502       88.048        0.041      349.857       30.589      859.578
09/15/2014  15:49:00     -211.471      -17.048        1.790      207.330       89.971       59.652    42985.705     8094.789     3558.385        4.982        2.732      212.157       69.046        0.106      350.106       31.024      859.574
09/15/2014  15:50:00     -491.598      -65.980      -35.875      275.724      202.350       93.413    76023.594    40945.594     8725.960       18.648        6.285      496.006      109.374        0.049      349.802       30.493      859.561
09/15/2014  15:51:00     -485.596     -183.937       -8.228      215.206      214.528       91.198    46313.427    46022.349     8317.044       18.516        5.033      519.266       90.199        0.030      349.745       30.396      859.561
09/15/2014  15:52:00     -312.187     -210.757       -7.900      211.097      165.335       98.041    44561.898    27335.723     9611.958       11.171        4.075      376.669      104.908        0.078      349.730       30.368      859.563
09/15/2014  15:53:00     -215.990      -46.807       -6.290      247.740      103.130       76.234    61375.265    10635.869     5811.577        6.334        3.891      221.004       99.115        0.201      349.919       30.699      859.593
09/15/2014  15:54:00     -357.480      -42.453      -22.883      284.357      140.049       87.115    80859.032    19613.761     7589.051       11.907        5.403      359.992      124.690        0.120      349.944       30.740      859.593
09/15/2014  15:55:00     -634.364       -6.170      -60.062      178.073      182.291       74.635    31710.099    33230.140     5570.406       23.827        3.526      634.394       61.360        0.009      349.647       30.225      859.595
09/15/2014  15:56:00     -476.203      -41.022      -31.596      189.987      175.708       87.426    36095.031    30873.379     7643.328       15.202        3.731      477.967       96.038        0.040      349.728       30.364      859.600
09/15/2014  15:57:00     -538.726      -35.330      -25.417      190.970      226.607      101.706    36469.409    51350.892    10344.174       19.513        4.908      539.883       94.764        0.031      349.704       30.324      859.569
09/15/2014  15:58:00     -454.796     -178.201      -19.138      252.928      164.955       89.927    63972.586    27210.176     8086.817       16.910        4.963      488.462      112.495        0.053      349.650       30.231      859.586
09/15/2014  15:59:00     -344.263      -80.964      -16.290      214.299      126.889       84.565    45924.151    16100.717     7151.266        9.725        3.459      353.656       98.215        0.077      349.788       30.471      859.600
09/15/2014  16:00:00     -440.257      -74.635      -11.668      197.561      163.038       91.347    39030.517    26581.337     8344.302       13.673        3.698      446.539       94.273        0.045      349.720       30.350      859.596
09/15/2014  16:01:00     -349.242      -70.668       10.326      237.944      147.695       87.564    56617.274    21813.868     7667.397       10.657        4.305      356.320      100.210        0.079      349.751       30.405      859.629
09/15/2014  16:02:00     -550.604     -260.154      -29.105      233.679      217.247      112.429    54605.778    47196.355    12640.188       24.305        5.722      608.970      128.344        0.044      349.518       30.000      859.610
09/15/2014  16:03:00     -420.811     -222.869        1.707      212.078      183.739      108.467    44977.012    33759.887    11765.165       15.861        4.525      476.185      105.651        0.049      349.476       29.929      859.611
09/15/2014  16:04:00     -389.003     -196.078        7.146      166.968      147.799       89.174    27878.447    21844.459     7952.055       12.374        2.884      435.625       82.966        0.036      349.461       29.901      859.662
09/15/2014  16:05:00     -316.152     -178.384      -12.482      178.445      136.557       78.441    31842.730    18647.918     6153.067        9.428        2.832      363.005       97.537        0.072      349.484       29.943      859.621
09/15/2014  16:06:00     -235.396       15.958        6.858      150.694      151.418       78.355    22708.610    22927.522     6139.468        5.374        2.589      235.937       84.181        0.127      349.701       30.319      859.610
09/15/2014  16:07:00     -329.941     -128.152       -6.988      218.608      208.647       85.731    47789.431    43533.367     7349.876       11.199        4.934      353.955       96.408        0.074      349.631       30.197      859.596
09/15/2014  16:08:00     -550.918      -95.214      -24.807      251.895      181.236       92.759    63450.974    32846.404     8604.215       20.903        5.245      559.086      115.407        0.043      349.672       30.267      859.576
09/15/2014  16:09:00     -485.135     -135.889      -29.587      213.604      210.724      101.351    45626.855    44404.573    10272.115       17.748        5.015      503.808      114.107        0.051      349.488       29.949      859.579
09/15/2014  16:10:00     -513.529     -362.667      -25.428      273.248      200.720      123.257    74664.485    40288.356    15192.247       26.299        6.507      628.681      143.533        0.052      349.394       29.785      859.549
09/15/2014  16:11:00     -240.171     -176.691       11.737      197.210      184.369       94.052    38891.887    33991.782     8845.869        8.537        4.086      298.164      114.166        0.147      349.595       30.136      859.557
09/15/2014  16:12:00     -476.754     -258.263       -4.495      253.995      206.715      125.123    64513.237    42731.153    15655.865       20.844        6.145      542.212      148.405        0.075      349.509       29.987      859.550
09/15/2014  16:13:00     -294.679     -214.390        6.046      253.872      190.702      107.700    64450.997    36367.285    11599.261       12.261        5.621      364.415      135.896        0.139      349.502       29.972      859.548
09/15/2014  16:14:00     -555.800     -289.692      -32.495      299.122      177.352      124.685    89474.166    31453.698    15546.296       26.516        6.824      626.765      132.438        0.045      349.360       29.727      859.540
09/15/2014  16:15:00     -413.171     -195.773        6.966      294.838      174.260      123.440    86929.467    30366.406    15237.542       17.079        6.627      457.206      146.839        0.103      349.450       29.885      859.557
09/15/2014  16:16:00     -412.487     -266.532      -10.208      287.965      210.258      121.364    82923.707    44208.535    14729.131       19.155        7.093      491.106      133.344        0.074      349.448       29.880      859.524
09/15/2014  16:17:00     -487.647     -189.009       -8.747      208.522      204.136      105.687    43481.438    41671.575    11169.649       18.495        4.816      522.995      111.446        0.045      349.432       29.851      859.513
09/15/2014  16:18:00     -415.472     -130.830       -7.763      234.571      182.384       94.701    55023.590    33263.950     8968.189       14.351        4.863      435.584       99.731        0.052      349.469       29.917      859.541
09/15/2014  16:19:00     -455.198     -267.141      -24.359      253.907      218.564      106.204    64468.879    47770.361    11279.202       20.132        6.176      527.797      128.216        0.059      349.370       29.744      859.514
09/15/2014  16:20:00     -380.422     -130.415      -18.401      185.722      153.054       78.601    34492.597    23425.610     6178.079       11.307        3.205      402.155       78.786        0.038      349.512       29.991      859.522
09/15/2014  16:21:00     -322.381     -114.048        2.840      166.348      128.217       80.221    27671.632    16439.580     6435.372        8.374        2.527      341.960       83.408        0.059      349.536       30.032      859.527
09/15/2014  16:22:00     -256.433     -111.263       11.209      166.175      118.482       79.388    27614.274    14038.102     6302.443        6.310        2.398      279.531       80.981        0.084      349.669       30.264      859.531
09/15/2014  16:23:00     -384.294      -91.701      -11.093      192.069      130.378       77.050    36890.450    16998.297     5936.666       10.801        2.991      395.083       81.681        0.043      349.648       30.226      859.526
09/15/2014  16:24:00     -329.438      -39.327      -25.728      200.416      129.523       76.237    40166.396    16776.246     5812.146        8.674        3.138      331.777       93.786        0.080      349.646       30.225      859.527
09/15/2014  16:25:00     -443.256     -317.926       -4.645      250.045      186.860      112.307    62522.371    34916.529    12612.898       20.379        5.503      545.484      129.764        0.057      349.536       30.032      859.505
09/15/2014  16:26:00     -315.276     -259.246      -15.957      210.678      169.188      114.155    44385.192    28624.729    13031.444       12.644        4.302      408.176      130.438        0.102      349.588       30.124      859.504
09/15/2014  16:27:00     -412.761     -249.688      -21.459      129.195      127.349       66.803    16691.396    16217.881     4462.601       13.527        1.869      482.406       67.993        0.020      349.590       30.127      859.543
09/15/2014  16:28:00     -368.037     -198.674        6.774      217.248      177.310       93.867    47196.844    31438.783     8810.979       13.119        4.372      418.237       95.793        0.052      349.579       30.108      859.563
09/15/2014  16:29:00     -513.226     -334.986       -7.465      233.821      194.876      106.434    54672.386    37976.584    11328.257       23.981        5.199      612.876      109.745        0.032      349.410       29.814      859.535
09/15/2014  16:30:00     -605.967     -387.165      -29.832      227.437      195.407      112.168    51727.584    38183.816    12581.585       31.022        5.125      719.092      112.255        0.024      349.349       29.708      859.525
09/15/2014  16:31:00     -503.851     -151.292      -14.406      265.349      250.314      106.748    70409.854    62657.300    11395.136       21.069        7.223      526.075      107.842        0.042      349.370       29.744      859.524
09/15/2014  16:32:00     -434.866     -237.660        4.071      246.049      183.486      105.319    60540.346    33666.931    11092.007       17.544        5.265      495.571      123.978        0.063      349.352       29.713      859.553
09/15/2014  16:33:00     -272.970     -196.165        6.844      217.305      171.265      114.281    47221.658    29331.566    13060.158       10.131        4.481      336.145      124.723        0.138      349.371       29.746      859.550
09/15/2014  16:34:00     -335.512     -191.917       -1.462      204.913      186.226       99.873    41989.542    34680.244     9974.704       11.801        4.332      386.524      115.077        0.089      349.362       29.730      859.546
09/15/2014  16:35:00     -453.318     -241.687      -18.701      211.685      190.425      106.111    44810.482    36261.533    11259.606       17.828        4.617      513.721       85.517        0.028      349.361       29.730      859.551
09/15/2014  16:36:00     -316.776     -118.336       -1.753      222.100      162.974       94.955    49328.601    26560.472     9016.517        9.962        4.245      338.158      111.329        0.108      349.402       29.801      859.545
09/15/2014  16:37:00     -270.863     -160.279       17.875      213.903      150.069       97.128    45754.376    22520.703     9433.769        8.853        3.885      314.732      103.273        0.108      349.440       29.865      859.538
09/15/2014  16:38:00     -365.971     -179.662      -20.306      220.662      162.495      107.599    48691.575    26404.694    11577.620       12.664        4.334      407.693      108.292        0.071      349.393       29.783      859.527
09/15/2014  16:39:00     -461.105     -174.891      -26.517      240.071      135.206       89.007    57633.979    18280.656     7922.329       16.386        4.192      493.158      103.376        0.044      349.364       29.734      859.503
09/15/2014  16:40:00     -433.527     -186.056       -7.548      238.617      145.921       93.978    56938.130    21292.958     8831.930       15.483        4.353      471.766      108.840        0.053      349.397       29.790      859.511
09/15/2014  16:41:00     -401.918     -179.343      -29.013      178.410      179.109       76.736    31830.273    32080.119     5888.480       13.216        3.490      440.116       91.151        0.043      349.478       29.932      859.522
09/15/2014  16:42:00     -309.468     -202.667       -8.692      221.532      165.851       92.278    49076.561    27506.589     8515.318       11.100        4.255      369.925      104.149        0.079      349.459       29.899      859.515
09/15/2014  16:43:00     -347.897     -161.914        6.847      203.760      178.486      101.649    41518.174    31857.392    10332.473       11.549        4.185      383.730      115.258        0.090      349.408       29.809      859.523
09/15/2014  16:44:00     -471.923     -202.365      -11.824      231.089      184.109       89.730    53402.347    33896.146     8051.421       17.956        4.767      513.481       99.646        0.038      349.352       29.714      859.523
09/15/2014  16:45:00     -416.732      -93.447      -17.748      192.882      127.865       75.981    37203.385    16349.443     5773.151       12.101        2.966      427.081       86.350        0.041      349.325       29.665      859.524
09/15/2014  16:46:00     -167.288     -104.391       -4.275      124.152       99.090       55.250    15413.618     9818.847     3052.568        3.359        1.414      197.187       52.950        0.072      349.449       29.880      859.537
09/15/2014  16:47:00     -263.241     -177.307       -2.818      158.708      135.693       69.844    25188.358    18412.660     4878.217        7.460        2.424      317.385       75.990        0.057      349.437       29.862      859.520
09/15/2014  16:48:00     -181.699     -116.992       15.580      166.013      144.225       74.355    27560.202    20800.898     5528.654        5.041        2.694      216.105       88.354        0.167      349.458       29.898      859.510
09/15/2014  16:49:00     -316.840     -121.787      -19.945      171.203      102.032       64.408    29310.589    10410.561     4148.446        7.974        2.193      339.440       66.381        0.038      349.386       29.772      859.490
09/15/2014  16:50:00     -310.405      -63.680       -4.470      193.438      140.961       77.840    37418.438    19870.038     6059.129        8.188        3.167      316.869       91.718        0.084      349.383       29.767      859.479
09/15/2014  16:51:00     -318.203      -94.380      -17.613      176.275      147.567       80.006    31072.981    21776.068     6400.968        8.485        2.963      331.905       77.934        0.055      349.407       29.809      859.471
09/15/2014  16:52:00     -430.881       -7.925      -23.069      259.660      137.320       90.707    67423.470    18856.710     8227.683       14.036        4.725      430.954      113.364        0.069      349.386       29.773      859.468
09/15/2014  16:53:00     -267.753      -55.019       12.342      188.792      155.008       78.091    35642.245    24027.603     6098.230        7.031        3.288      273.347       66.717        0.060      349.451       29.885      859.480
09/15/2014  16:54:00     -396.649     -220.506       -9.307      222.600      153.004       90.155    49550.626    23410.337     8127.986       14.355        4.054      453.821      108.853        0.058      349.305       29.633      859.475
09/15/2014  16:55:00     -325.665     -172.268        1.498      273.507      162.015      104.577    74806.262    26249.001    10936.279       12.385        5.600      368.421      129.526        0.124      349.245       29.528      859.439
09/15/2014  16:56:00     -466.166     -233.632      -17.467      253.081      184.852      103.989    64049.988    34170.445    10813.664       19.060        5.452      521.435      117.426        0.051      349.201       29.451      859.443
09/15/2014  16:57:00     -350.398     -114.769      -12.392      180.838      168.844       84.371    32702.351    28508.327     7118.439       10.221        3.416      368.715       93.740        0.065      349.241       29.522      859.452
09/15/2014  16:58:00     -498.319     -355.988      -14.242      247.847      142.861      101.840    61428.334    20409.300    10371.371       23.372        4.610      612.413      106.355        0.030      349.124       29.317      859.403
09/15/2014  16:59:00     -389.584     -284.845      -30.259      189.660      121.815       73.833    35970.934    14838.959     5451.360       14.504        2.813      482.610       69.837        0.021      349.165       29.388      859.430
09/15/2014  17:00:00     -320.200     -211.852       -5.377      221.048      161.595       90.385    48862.017    26112.826     8169.439       11.528        4.157      383.939       92.869        0.059      349.252       29.541      859.414
09/15/2014  17:01:00     -290.829     -207.136       -3.745      193.343      173.948      109.715    37381.369    30257.809    12037.490       10.358        3.984      357.053      114.964        0.104      349.266       29.563      859.432
09/15/2014  17:02:00     -486.639     -337.286       -6.596      255.109      173.010      110.219    65080.759    29932.370    12148.318       22.887        5.358      592.098      124.604        0.044      349.169       29.397      859.423
09/15/2014  17:03:00     -400.366     -217.320      -13.689      194.915      165.746       84.276    37991.920    27471.843     7102.420       14.013        3.628      455.545       89.129        0.038      349.215       29.476      859.392
09/15/2014  17:04:00     -461.804     -100.589      -45.802      232.669      147.422       80.373    54134.867    21733.311     6459.828       15.389        4.116      472.632       98.388        0.043      349.206       29.461      859.390
09/15/2014  17:05:00     -411.635      -84.141       -7.725      201.660      154.826       90.817    40666.706    23971.203     8247.697       12.472        3.644      420.146      102.024        0.059      349.176       29.408      859.384
09/15/2014  17:06:00     -245.267      -48.871        5.471      133.808      127.795       69.661    17904.682    16331.528     4852.591        5.083        1.954      250.089       69.812        0.078      349.251       29.538      859.366
09/15/2014  17:07:00     -257.626     -139.280        0.574      173.576      146.725       95.125    30128.570    21528.158     9048.794        7.323        3.035      292.865       87.733        0.090      349.261       29.557      859.387
09/15/2014  17:08:00     -346.229     -259.603       -4.392      287.779      211.928      105.473    82816.562    44913.376    11124.488       16.305        6.943      432.746      126.409        0.085      349.092       29.261      859.379
09/15/2014  17:09:00     -265.186     -163.948       17.848      274.338      178.035       98.971    75261.320    31696.345     9795.260       10.712        5.838      311.773      123.431        0.157      349.072       29.227      859.369
09/15/2014  17:10:00     -468.878     -187.968      -21.373      247.152      198.345       90.790    61084.016    39340.876     8242.774       18.213        5.433      505.152       97.278        0.037      349.061       29.211      859.388
09/15/2014  17:11:00     -320.037     -156.806        6.632      208.014      203.384       94.882    43269.817    41365.070     9002.571       11.033        4.682      356.387       87.995        0.061      349.138       29.342      859.410
09/15/2014  17:12:00     -526.224     -119.614      -18.761      340.433      214.080      109.112   115894.299    45830.151    11905.486       23.257        8.681      539.647      147.016        0.074      348.990       29.086      859.385
09/15/2014  17:13:00     -432.781      -91.355       -3.010      239.476      144.727      113.961    57348.978    20945.888    12987.211       14.345        4.564      442.318      133.693        0.091      349.026       29.149      859.372
09/15/2014  17:14:00     -518.869     -109.174      -23.677      232.809      177.035       94.878    54200.223    31341.279     9001.925       18.811        4.727      530.231       98.990        0.035      348.995       29.094      859.400
09/15/2014  17:15:00     -253.005     -203.871       21.246      201.540      160.619      119.042    40618.299    25798.545    14171.063        9.329        4.029      324.923      113.675        0.122      348.985       29.078      859.414
09/15/2014  17:16:00     -300.347     -107.618      -12.572      169.120      144.039       77.203    28601.513    20747.291     5960.294        7.862        2.765      319.045       75.369        0.056      349.031       29.157      859.438
09/15/2014  17:17:00     -314.119      -44.944       -4.679      156.757      117.235       69.651    24572.689    13744.044     4851.239        7.193        2.158      317.318       71.511        0.051      349.032       29.158      859.441
09/15/2014  17:18:00     -391.082     -125.853      -17.908      228.403      148.032       85.445    52167.883    21913.610     7300.915       12.523        4.069      410.833       87.046        0.045      348.973       29.057      859.434
09/15/2014  17:19:00     -407.262     -236.583       -1.130      240.266      168.002       90.087    57727.758    28224.728     8115.720       15.794        4.703      470.992       86.977        0.034      348.977       29.064      859.415
09/15/2014  17:20:00     -457.347     -156.197      -20.100      153.700      148.955       79.963    23623.716    22187.472     6394.121       14.308        2.610      483.284       86.605        0.032      348.997       29.098      859.420
09/15/2014  17:21:00     -642.384      -65.472      -35.167      225.927      167.910       99.895    51043.128    28193.815     9979.074       25.368        4.461      645.712      102.011        0.025      348.954       29.025      859.413
09/15/2014  17:22:00     -505.807      -33.509      -33.355      221.839      141.020       84.168    49212.749    19886.545     7084.264       16.712        3.809      506.915      106.345        0.044      348.976       29.062      859.434
09/15/2014  17:23:00     -366.977      -89.796        5.557      251.642      198.543       90.832    63323.856    39419.393     8250.534       12.686        5.550      377.803      105.901        0.079      349.024       29.146      859.451
09/15/2014  17:24:00     -251.901     -178.214      -11.863      173.390      151.761       90.833    30064.168    23031.519     8250.664        7.834        3.067      308.568       90.120        0.085      349.028       29.153      859.458
09/15/2014  17:25:00     -235.672     -105.090       -6.045      117.295       82.008       54.205    13758.045     6725.268     2938.143        4.502        1.171      258.041       39.349        0.023      349.072       29.227      859.461
09/15/2014  17:26:00     -375.022      -65.165       11.858      276.756      167.607       90.013    76594.135    28092.176     8102.285       12.889        5.639      380.642      115.206        0.092      349.023       29.143      859.441
09/15/2014  17:27:00     -542.356     -123.033      -25.663      262.728      181.219       96.581    69025.906    32840.405     9327.914       21.055        5.560      556.136      115.858        0.043      348.949       29.015      859.434
09/15/2014  17:28:00     -394.054      -58.302       -8.603      181.839      150.772       88.670    33065.270    22732.183     7862.337       11.120        3.183      398.344      100.520        0.064      349.013       29.125      859.428
09/15/2014  17:29:00     -358.888     -147.755       -2.677      190.204      182.867       95.125    36177.713    33440.418     9048.727       11.464        3.933      388.114       99.045        0.065      348.998       29.099      859.440
09/15/2014  17:30:00     -411.783      -90.146      -17.588      187.479      143.319       96.058    35148.191    20540.241     9227.046       12.145        3.246      421.535      105.370        0.062      348.989       29.084      859.461
09/15/2014  17:31:00     -205.861      -95.153       14.356      160.121      134.732       73.258    25638.653    18152.670     5366.724        5.039        2.458      226.788       79.927        0.124      349.035       29.165      859.485
09/15/2014  17:32:00     -274.520      -96.734       19.054      162.952      135.407       78.839    26553.440    18335.136     6215.665        6.808        2.555      291.065       84.447        0.084      349.018       29.134      859.518
09/15/2014  17:33:00     -395.755     -321.547      -24.438      202.362      165.911       92.183    40950.227    27526.413     8497.755       16.878        3.849      509.916       99.019        0.038      348.948       29.013      859.502
09/15/2014  17:34:00     -359.899     -297.907      -19.804      191.635      197.803      106.140    36724.005    39125.838    11265.677       15.288        4.356      467.200      116.332        0.062      348.932       28.986      859.497
09/15/2014  17:35:00     -241.582      -71.588       -3.678      127.613      117.636       64.609    16285.116    13838.210     4174.356        4.889        1.715      251.966       65.854        0.068      349.002       29.107      859.532
09/15/2014  17:36:00     -403.272       -9.959       -7.584      211.397      144.823       83.975    44688.738    20973.580     7051.761       11.774        3.636      403.395       92.369        0.052      348.912       28.952      859.529
09/15/2014  17:37:00     -361.983     -203.122      -14.530      145.754      157.460       77.734    21244.284    24793.549     6042.616       11.228        2.604      415.079       73.272        0.031      348.936       28.993      859.543
09/15/2014  17:38:00     -197.397     -150.369       -4.875      135.037      108.278       65.830    18234.952    11724.108     4333.582        4.794        1.715      248.146       73.720        0.088      348.943       29.005      859.548
09/15/2014  17:39:00     -314.598      -92.176        0.385      232.257      145.031       69.712    53943.535    21033.989     4859.791        9.364        3.992      327.823       79.990        0.060      348.939       28.999      859.552
09/15/2014  17:40:00     -416.655     -113.322       -1.991      196.303      144.047       89.669    38534.909    20749.589     8040.445       12.687        3.366      431.791       96.766        0.050      348.870       28.877      859.533
09/15/2014  17:41:00     -370.418     -178.372      -17.549      188.061      139.332       88.203    35367.051    19413.380     7779.735       11.594        3.128      411.128       85.614        0.043      348.856       28.852      859.560
09/15/2014  17:42:00     -205.996      -93.034       16.181      160.696      122.355       88.379    25823.287    14970.647     7810.824        4.997        2.430      226.030       93.029        0.169      348.888       28.909      859.564
09/15/2014  17:43:00     -234.827     -101.462        8.338      200.763      128.686       70.643    40305.623    16560.058     4990.366        6.367        3.093      255.809       84.189        0.108      348.860       28.862      859.557
09/15/2014  17:44:00     -243.755     -210.021      -14.576      158.441      154.699       74.893    25103.683    23931.646     5608.987        7.918        2.732      321.754       87.722        0.074      348.861       28.862      859.577
09/15/2014  17:45:00     -423.657     -262.979       -8.970      236.464      146.648       87.340    55915.320    21505.759     7628.215       16.687        4.252      498.641       93.089        0.035      348.824       28.798      859.555
09/15/2014  17:46:00     -274.006      -62.402       -5.494      153.377      128.075       64.561    23524.511    16403.197     4168.136        6.154        2.205      281.022       76.442        0.074      348.869       28.877      859.560
09/15/2014  17:47:00     -297.210     -145.198        9.183      243.767      163.493       88.225    59422.418    26729.961     7783.685       10.170        4.697      330.782      124.928        0.143      348.842       28.829      859.567
09/15/2014  17:48:00     -329.798     -223.053        6.723      237.564      224.085      104.276    56436.439    50213.930    10873.474       13.802        5.876      398.144      121.045        0.092      348.821       28.793      859.557
09/15/2014  17:49:00     -472.898      -91.472      -11.568      271.936      150.392       87.706    73949.282    22617.649     7692.416       16.818        5.213      481.664      110.583        0.053      348.795       28.747      859.580
09/15/2014  17:50:00     -429.737     -201.898      -37.020      215.203      183.900       92.744    46312.349    33819.262     8601.402       15.776        4.437      474.801       99.303        0.044      348.770       28.705      859.593
09/15/2014  17:51:00     -359.883     -237.350        2.188      200.092      159.909       99.776    40036.969    25570.764     9955.156       13.070        3.778      431.104      106.316        0.061      348.774       28.712      859.571
09/15/2014  17:52:00     -341.911     -199.487       -9.599      294.957      182.274      105.650    86999.407    33223.770    11161.987       14.407        6.569      395.851      143.911        0.132      348.769       28.703      859.548
09/15/2014  17:53:00     -258.387     -161.614        0.180      171.144      137.731       83.540    29290.234    18969.953     6978.980        7.405        2.762      304.767       88.577        0.084      348.778       28.719      859.591
09/15/2014  17:54:00     -209.355     -144.303       -6.811      123.648      100.321       66.217    15288.869    10064.336     4384.729        4.721        1.487      254.269       71.126        0.078      348.790       28.739      859.610
09/15/2014  17:55:00     -337.618      -68.462      -11.098      176.487      126.705       71.207    31147.634    16054.214     5070.401        8.552        2.614      344.489       64.401        0.035      348.747       28.666      859.607
09/15/2014  17:56:00     -361.368     -142.712      -18.271      216.226      138.313       86.176    46753.661    19130.462     7426.379       11.228        3.666      388.528      107.793        0.077      348.742       28.656      859.611
09/15/2014  17:57:00     -273.568     -151.554        1.069      201.029      135.620       73.892    40412.500    18392.751     5459.977        8.102        3.213      312.743       97.037        0.096      348.739       28.654      859.627
09/15/2014  17:58:00     -347.667     -191.222       -5.154      191.772      158.621       86.103    36776.484    25160.606     7413.788       11.339        3.468      396.785       87.629        0.049      348.715       28.611      859.650
09/15/2014  17:59:00     -295.321     -118.071       -7.871      189.164      120.529       64.225    35782.870    14527.306     4124.851        7.782        2.722      318.049       80.476        0.064      348.726       28.630      859.655
09/15/2014  18:00:00     -184.471      -65.052       11.049      109.570       94.968       54.689    12005.543     9018.952     2990.894        3.119        1.201      195.605       49.172        0.063      348.758       28.686      859.676
09/15/2014  18:01:00     -237.492     -108.427       18.403      188.189      112.670       72.757    35415.037    12694.626     5293.561        6.094        2.670      261.072       79.075        0.092      348.719       28.619      859.644
09/15/2014  18:02:00     -348.889     -175.577      -27.997      185.194      141.980       73.981    34296.830    20158.267     5473.122       10.662        2.996      390.578       72.833        0.035      348.711       28.604      859.642
09/15/2014  18:03:00     -299.445     -111.274       -3.695      220.511      151.033       89.322    48625.214    22811.060     7978.435        9.072        3.971      319.452      109.373        0.117      348.687       28.563      859.637
09/15/2014  18:04:00     -141.576      -73.704       -3.318      107.601       99.099       52.652    11577.908     9820.658     2772.211        2.482        1.209      159.612       57.960        0.132      348.727       28.632      859.634
09/15/2014  18:05:00     -244.558     -150.812      -15.638      114.539      127.503       65.315    13119.282    16257.022     4266.072        5.821        1.682      287.320       67.785        0.056      348.659       28.513      859.645
09/15/2014  18:06:00     -231.101     -112.540       -8.898      169.520       84.881       58.403    28737.126     7204.801     3410.966        5.274        1.968      257.047       65.943        0.066      348.672       28.536      859.650
09/15/2014  18:07:00     -302.812     -233.111      -18.812      146.306      144.775       73.431    21405.314    20959.819     5392.061        9.706        2.388      382.146       77.583        0.041      348.625       28.454      859.635
09/15/2014  18:08:00     -172.649     -171.199       15.799      171.365      166.378       89.700    29366.083    27681.774     8046.131        6.222        3.255      243.139       97.986        0.162      348.624       28.453      859.637
09/15/2014  18:09:00     -215.678     -115.612      -11.083      160.609       93.306       65.187    25795.310     8706.088     4249.364        4.937        1.938      244.710       86.295        0.124      348.647       28.492      859.657
09/15/2014  18:10:00     -177.965     -102.661       -4.050      130.638       91.836       61.797    17066.396     8433.852     3818.827        3.577        1.466      205.453       61.083        0.088      348.627       28.458      859.674
09/15/2014  18:11:00     -235.327      -76.373       -7.397      169.915      112.875       54.100    28871.066    12740.799     2926.820        5.289        2.227      247.410       54.525        0.049      348.582       28.379      859.685
09/15/2014  18:12:00     -258.484      -44.853       -4.227      156.781      128.919       64.845    24580.386    16619.996     4204.900        5.712        2.270      262.346       82.221        0.098      348.568       28.356      859.682
09/15/2014  18:13:00     -202.725     -216.591       -1.406      137.849      129.072       70.775    19002.345    16659.517     5009.168        6.433        2.034      296.663       71.110        0.057      348.533       28.296      859.694
09/15/2014  18:14:00     -146.664      -54.608        1.773      113.043       82.362       48.895    12778.657     6783.425     2390.705        2.322        1.098      156.500       63.961        0.167      348.554       28.333      859.711
09/15/2014  18:15:00     -170.728      -14.746       -9.341       78.645       85.805       40.859     6185.061     7362.580     1669.488        2.233        0.761      171.363       34.348        0.040      348.540       28.308      859.682
09/15/2014  18:16:00     -247.899      -38.648      -19.132       92.460      104.319       44.908     8548.896    10882.464     2016.726        4.238        1.072      250.894       47.110        0.035      348.507       28.249      859.684
09/15/2014  18:17:00     -460.993     -177.890      -31.670      276.782      195.693      102.710    76608.320    38295.584    10549.331       18.528        6.273      494.125      130.817        0.070      348.475       28.196      859.699
09/15/2014  18:18:00     -356.293     -222.173      -13.254      222.127      135.915      104.517    49340.237    18472.774    10923.703       12.759        3.937      419.888      117.486        0.078      348.441       28.137      859.681
09/15/2014  18:19:00     -413.888     -296.246      -16.988      240.877      204.973      111.709    58021.713    42013.911    12478.945       18.591        5.626      508.985      132.029        0.067      348.432       28.123      859.653
09/15/2014  18:20:00     -288.544      -84.272        8.545      171.920      142.012       78.157    29556.637    20167.544     6108.531        7.312        2.792      300.599       90.364        0.090      348.431       28.121      859.662
09/15/2014  18:21:00     -120.066      -66.168       17.453      189.330      123.021       77.076    35846.023    15134.050     5940.768        3.800        2.846      137.091       91.488        0.445      348.417       28.097      859.639
09/15/2014  18:22:00     -226.706      -28.738        5.085      224.425      126.253       83.123    50366.635    15939.708     6909.390        6.272        3.661      228.520      106.322        0.216      348.411       28.086      859.655
09/15/2014  18:23:00     -268.331     -152.054       12.224      233.225      133.052       86.237    54394.037    17702.911     7436.740        8.739        3.977      308.418      113.866        0.136      348.388       28.044      859.660
09/15/2014  18:24:00     -224.312     -103.888        5.418      177.788      100.317       66.061    31608.475    10063.601     4364.066        5.358        2.302      247.201       82.105        0.110      348.390       28.049      859.682
09/15/2014  18:25:00     -264.281     -113.767      -11.308      168.078      107.025       65.219    28250.162    11454.262     4253.476        6.343        2.198      287.728       76.423        0.071      348.380       28.029      859.670
09/15/2014  18:26:00     -450.227     -138.252      -18.007      233.330      193.813      106.111    54442.942    37563.537    11259.560       16.268        5.163      470.975      108.187        0.053      348.353       27.982      859.632
09/15/2014  18:27:00     -364.141     -128.396      -17.458      210.617      150.806      107.393    44359.425    22742.466    11533.204       11.400        3.932      386.114      113.453        0.086      348.347       27.973      859.693
09/15/2014  18:28:00     -340.937     -117.544       -7.927      150.931      143.175       79.116    22780.175    20498.989     6259.282        8.982        2.477      360.631       85.508        0.056      348.357       27.990      859.703
09/15/2014  18:29:00     -267.384     -154.913       11.338      154.473      126.967       75.421    23861.926    16120.539     5688.389        7.064        2.284      309.019       80.517        0.068      348.322       27.930      859.726
09/15/2014  18:30:00     -245.855     -117.883       -4.570      148.817      126.791       63.497    22146.376    16075.914     4031.917        5.830        2.113      272.655       69.353        0.065      348.318       27.923      859.699
09/15/2014  18:31:00     -317.342     -118.976        3.441      197.725      154.841       81.407    39094.978    23975.706     6627.069        9.227        3.485      338.911       95.029        0.079      348.275       27.849      859.666
09/15/2014  18:32:00     -213.617      -83.872       13.301      145.845      134.917       65.122    21270.665    18202.726     4240.812        4.827        2.186      229.493       63.199        0.076      348.289       27.872      859.671
09/15/2014  18:33:00     -383.475     -350.451        2.315      227.394      169.011      116.235    51707.896    28564.847    13510.518       18.181        4.689      519.489      122.812        0.056      348.254       27.811      859.643
09/15/2014  18:34:00     -298.353     -121.862      -10.348      178.396      137.044       79.273    31824.962    18780.990     6284.190        8.042        2.845      322.281       86.727        0.072      348.258       27.819      859.666
09/15/2014  18:35:00     -211.954     -130.710       -6.075      123.321       90.831       54.626    15207.976     8250.211     2984.051        4.424        1.322      249.017       34.034        0.019      348.244       27.795      859.677
09/15/2014  18:36:00     -359.780     -241.840      -20.821      194.320      130.714       91.248    37760.229    17086.148     8326.232       12.575        3.159      433.507       90.128        0.043      348.224       27.760      859.645
09/15/2014  18:37:00     -423.613     -249.654      -18.347      180.134      148.810       81.342    32448.247    22144.350     6616.445       15.165        3.060      491.706       83.510        0.029      348.231       27.771      859.643
09/15/2014  18:38:00     -266.081      -84.411        7.775      161.778      141.224       87.970    26172.026    19944.285     7738.803        6.591        2.693      279.149       82.731        0.088      348.201       27.722      859.646
09/15/2014  18:39:00     -324.432     -137.408      -21.790      161.317      132.246       70.149    26023.149    17489.116     4920.901        8.651        2.422      352.330       41.675        0.014      348.197       27.715      859.668
09/15/2014  18:40:00     -292.632      -57.474      -24.760      145.563       85.797       62.628    21188.625     7361.125     3922.314        6.100        1.624      298.223       58.406        0.038      348.179       27.682      859.668
09/15/2014  18:41:00     -316.496      -18.805       -7.033      134.639      140.949       61.461    18127.724    19866.556     3777.415        7.116        2.089      317.054       60.618        0.037      348.137       27.610      859.684
09/15/2014  18:42:00     -309.234      -38.205      -20.203      163.826       94.068       68.273    26838.896     8848.854     4661.186        6.891        2.017      311.585       69.844        0.050      348.127       27.594      859.671
09/15/2014  18:43:00     -195.664       -3.752       13.926      133.492       95.213       65.977    17820.238     9065.471     4352.907        3.486        1.562      195.700       73.446        0.141      348.121       27.583      859.682
09/15/2014  18:44:00      -97.217      -27.173       14.896      111.954       92.198       58.352    12533.682     8500.551     3405.008        1.742        1.222      100.943       58.488        0.336      348.084       27.521      859.649
09/15/2014  18:45:00     -250.021      -87.994        8.309      146.507       88.869       48.601    21464.318     7897.726     2362.077        5.102        1.586      265.053       52.905        0.040      348.080       27.511      859.663
09/15/2014  18:46:00     -161.197     -113.594       -9.720      126.767       98.896       59.474    16069.762     9780.420     3537.151        3.418        1.469      197.200       61.512        0.097      348.068       27.491      859.684
09/15/2014  18:47:00     -427.554     -191.812      -18.081      245.156      155.456       91.967    60101.418    24166.628     8457.857       15.631        4.636      468.609      100.993        0.046      348.062       27.480      859.671
09/15/2014  18:48:00     -227.527     -114.076       -4.711      133.860      104.464       63.424    17918.444    10912.737     4022.598        4.882        1.643      254.522       66.381        0.068      348.037       27.438      859.705
09/15/2014  18:49:00     -209.648      -54.925       -3.812      127.478       85.986       61.511    16250.720     7393.537     3783.546        3.720        1.371      216.724       68.955        0.101      348.022       27.413      859.730
09/15/2014  18:50:00     -245.511      -82.814      -12.270      151.564      128.460       65.047    22971.790    16501.866     4231.073        5.549        2.185      259.102       70.296        0.074      348.024       27.415      859.692
09/15/2014  18:51:00     -196.319      -16.804       -2.703      130.256       89.198       58.924    16966.592     7956.218     3472.020        3.361        1.420      197.037       69.141        0.123      347.990       27.357      859.676
09/15/2014  18:52:00     -197.428      -22.687       -8.982      194.189      103.205       66.428    37709.445    10651.193     4412.700        4.616        2.639      198.727       82.621        0.173      347.946       27.281      859.659
09/15/2014  18:53:00     -302.275      -76.615      -28.667      148.441       83.501       66.127    22034.765     6972.416     4372.771        6.571        1.669      311.833       77.744        0.062      347.940       27.272      859.684
09/15/2014  18:54:00     -202.459     -103.343        4.065      171.854       73.681       59.670    29533.796     5428.903     3560.510        4.510        1.926      227.309       84.689        0.139      347.912       27.223      859.733
09/15/2014  18:55:00     -200.709     -123.266        3.818      106.240       71.489       52.113    11287.018     5110.672     2715.754        3.730        0.956      235.539       55.286        0.055      347.900       27.199      859.747
09/15/2014  18:56:00     -293.037     -116.174      -16.679      184.529      153.545       67.736    34050.869    23576.144     4588.197        8.092        3.111      315.225       76.932        0.060      347.895       27.192      859.742
09/15/2014  18:57:00     -296.443      -69.641      -14.551      147.889       96.826       58.100    21871.090     9375.209     3375.653        6.377        1.731      304.513       61.967        0.041      347.909       27.215      859.757
09/15/2014  18:58:00     -174.113     -119.003        3.547      108.940       89.091       54.411    11867.823     7937.182     2960.523        3.362        1.138      210.895       51.488        0.060      347.855       27.123      859.788
09/15/2014  18:59:00     -209.498      -39.204      -11.713      125.823       73.065       47.552    15831.495     5338.541     2261.166        3.449        1.172      213.135       54.476        0.065      347.889       27.181      859.780
09/15/2014  19:00:00     -254.669      -88.515      -14.833      137.917      102.744       52.964    19021.204    10556.340     2805.236        5.264        1.619      269.613       56.701        0.044      347.858       27.127      859.760
09/15/2014  19:01:00     -199.932     -110.070       13.430      185.959      147.144       68.131    34580.709    21651.285     4641.778        5.656        3.044      228.229       80.873        0.126      347.853       27.121      859.753
09/15/2014  19:02:00     -379.164      -35.899      -18.238      139.159      122.988       68.762    19365.109    15126.134     4728.223        9.230        1.961      380.860       73.470        0.037      347.838       27.093      859.725
09/15/2014  19:03:00     -371.769     -115.286       -2.618      181.093      183.231       87.648    32794.749    33573.476     7682.093       11.277        3.703      389.234       93.059        0.057      347.815       27.053      859.711
09/15/2014  19:04:00     -208.198      -90.463        9.377      123.989      141.655       68.969    15373.237    20066.127     4756.752        4.590        2.010      227.002       61.353        0.073      347.809       27.042      859.727
09/15/2014  19:05:00     -204.971      -31.407       -5.026      122.655       84.011       64.009    15044.239     7057.798     4097.208        3.461        1.310      207.363       66.950        0.104      347.815       27.055      859.728
09/15/2014  19:06:00     -223.716      -18.328       -3.216      133.703       95.385       46.140    17876.377     9098.256     2128.902        3.974        1.455      224.465       60.827        0.073      347.785       27.002      859.730
09/15/2014  19:07:00     -374.191      -77.019      -13.942      164.915      120.367       76.435    27197.003    14488.210     5842.284        9.683        2.376      382.035       75.966        0.040      347.779       26.992      859.732
09/15/2014  19:08:00     -229.797      -53.511       14.143      155.617       95.469       62.656    24216.795     9114.401     3925.728        4.656        1.863      235.945       73.807        0.098      347.727       26.904      859.754
09/15/2014  19:09:00     -330.113     -124.971       -7.453      174.996      121.126       72.048    30623.446    14671.628     5190.904        8.756        2.524      352.976       78.235        0.049      347.740       26.926      859.756
09/15/2014  19:10:00     -243.586     -105.884       16.741      180.839      107.363       64.449    32702.641    11526.892     4153.722        5.959        2.419      265.604       85.501        0.104      347.724       26.898      859.755
09/15/2014  19:11:00     -285.927      -56.018      -15.155      124.050      111.488       64.035    15388.314    12429.487     4100.423        5.851        1.596      291.363       50.279        0.030      347.695       26.848      859.762
09/15/2014  19:12:00     -436.147      -66.612      -22.266      160.615      140.702       77.130    25797.081    19797.180     5949.029       12.334        2.577      441.205       84.945        0.037      347.675       26.812      859.751
09/15/2014  19:13:00     -346.837     -100.191        4.659      141.441      117.680       66.364    20005.552    13848.509     4404.180        8.430        1.913      361.018       69.656        0.037      347.678       26.819      859.757
09/15/2014  19:14:00     -389.809     -142.631       -8.570      139.655      143.802       74.687    19503.446    20679.136     5578.104       10.906        2.288      415.084       79.100        0.036      347.708       26.869      859.767
09/15/2014  19:15:00     -172.157     -105.520       -9.402      142.004      108.414       56.356    20165.010    11753.552     3176.046        3.797        1.755      201.922       58.619        0.084      347.663       26.793      859.785
09/15/2014  19:16:00     -206.675      -56.775       -7.262      115.748       80.267       50.489    13397.675     6442.801     2549.127        3.419        1.119      214.331       52.836        0.061      347.641       26.755      859.824
09/15/2014  19:17:00     -162.842      -53.695        2.467      101.957       83.892       41.714    10395.213     7037.835     1740.077        2.429        0.959      171.466       44.420        0.067      347.586       26.661      859.820
09/15/2014  19:18:00     -163.148        3.153        1.905      130.609       94.861       47.199    17058.618     8998.654     2227.762        2.745        1.414      163.178       58.654        0.129      347.560       26.617      859.832
09/15/2014  19:19:00     -106.441      -34.838        9.334      118.754       70.796       45.414    14102.575     5012.124     2062.473        1.690        1.059      111.997       56.798        0.257      347.532       26.569      859.851
09/15/2014  19:20:00     -201.662      -44.717       -9.679       99.000       81.151       46.352     9800.947     6585.563     2148.534        3.064        0.927      206.560       44.809        0.047      347.560       26.615      859.890
09/15/2014  19:21:00     -148.181      -80.315       -4.018       84.737       80.156       47.013     7180.281     6425.033     2210.186        2.212        0.791      168.547       41.056        0.059      347.531       26.565      859.921
09/15/2014  19:22:00     -140.430      -46.086       -7.220       61.012       57.119       34.377     3722.512     3262.589     1181.779        1.503        0.408      147.799       27.080        0.034      347.511       26.530      859.952
09/15/2014  19:23:00     -123.410      -73.960      -13.980      103.095       76.455       36.770    10628.623     5845.347     1352.048        1.936        0.891      143.875       45.093        0.098      347.528       26.563      859.976
09/15/2014  19:24:00     -243.588      -43.447      -18.158       80.516       89.946       38.926     6482.816     8090.346     1515.239        3.882        0.804      247.432       32.849        0.018      347.547       26.590      859.990
09/15/2014  19:25:00     -211.098      -37.820      -15.354      115.377      112.195       52.335    13311.828    12587.781     2738.943        3.743        1.432      214.460       49.924        0.054      347.523       26.551      859.989
09/15/2014  19:26:00     -308.953      -71.958      -11.288      205.571      159.010       89.957    42259.462    25284.149     8092.172        8.818        3.782      317.222      106.219        0.112      347.544       26.588      859.984
09/15/2014  19:27:00     -279.241      -57.888        7.679      146.745      126.031       67.835    21534.179    15883.829     4601.639        6.169        2.101      285.178       72.271        0.064      347.525       26.554      859.975
09/15/2014  19:28:00     -352.497      -90.838      -13.001      213.770      143.433       86.552    45697.749    20572.993     7491.191       10.320        3.688      364.013       86.116        0.056      347.491       26.495      859.979
09/15/2014  19:29:00     -375.617      -73.264      -12.192      190.587      148.747       86.541    36323.371    22125.529     7489.330       10.626        3.297      382.695      104.777        0.075      347.536       26.573      859.988
09/15/2014  19:30:00     -269.790      -99.947      -18.546      148.625      128.779       56.794    22089.439    16584.066     3225.507        6.250        2.095      287.708       60.573        0.044      347.517       26.543      859.996
09/15/2014  19:31:00     -256.119      -60.807       -7.260       88.348       85.012       47.793     7805.353     7227.019     2284.208        4.333        0.866      263.239       39.125        0.022      347.500       26.511      860.028
09/15/2014  19:32:00     -240.642     -123.447        1.060      143.696      116.513       62.269    20648.409    13575.240     3877.443        5.562        1.905      270.458       68.903        0.065      347.499       26.509      860.026
09/15/2014  19:33:00     -304.864      -63.518      -20.704      124.572       77.709       54.322    15518.207     6038.764     2950.891        6.095        1.225      311.411       61.092        0.038      347.465       26.449      860.009
09/15/2014  19:34:00     -255.024      -38.948       -1.071      180.431      101.561       67.945    32555.511    10314.621     4616.462        5.701        2.374      257.981       87.676        0.116      347.401       26.339      860.006
09/15/2014  19:35:00     -117.619      -62.686        5.014      155.083      100.405       78.698    24050.877    10081.151     6193.411        2.905        2.016      133.281       87.601        0.432      347.415       26.363      860.017
09/15/2014  19:36:00     -270.187      -30.378      -26.897      114.196       84.784       46.476    13040.815     7188.370     2160.051        4.851        1.119      271.889       56.239        0.043      347.403       26.342      860.046
09/15/2014  19:37:00     -368.170      -40.559      -35.383      120.952      106.119       61.782    14629.464    11261.292     3816.974        8.407        1.485      370.397       58.571        0.025      347.404       26.345      860.033
09/15/2014  19:38:00     -303.043      -74.310       -8.034      167.437       81.906       63.038    28035.136     6708.566     3973.764        6.806        1.936      312.021       79.445        0.065      347.338       26.232      860.045
09/15/2014  19:39:00     -294.038      -25.948       -6.010      107.905      112.920       53.757    11643.593    12750.853     2889.803        5.722        1.364      295.180       48.695        0.027      347.291       26.150      860.068
09/15/2014  19:40:00     -511.799      -87.700      -13.378      164.048      118.504       72.145    26911.789    14043.266     5204.884       15.798        2.308      519.259       64.897        0.016      347.336       26.227      860.062
09/15/2014  19:41:00     -598.874      -96.733      -26.337      256.643      154.000       96.600    65865.512    23716.144     9331.532       23.379        4.946      606.636      105.348        0.030      347.375       26.295      860.098
09/15/2014  19:42:00     -386.854      -34.536      -19.133      167.315      102.526       81.849    27994.167    10511.669     6699.336        9.820        2.260      388.392       82.223        0.045      347.339       26.231      860.079
09/15/2014  19:43:00     -229.136     -108.967        0.762      171.470      113.680       63.399    29401.864    12923.068     4019.433        5.535        2.317      253.726       70.432        0.077      347.305       26.176      860.088
09/15/2014  19:44:00     -176.052      -18.783       -0.799      129.283      106.852       58.766    16714.075    11417.288     3453.428        3.146        1.579      177.051       59.003        0.111      347.256       26.090      860.109
09/15/2014  19:45:00     -230.219     -106.693       -5.360      133.601      124.694       72.787    17849.264    15548.561     5297.932        5.155        1.935      253.741       69.720        0.075      347.307       26.178      860.129
09/15/2014  19:46:00     -133.511      -41.127      -15.047       92.037       88.031       39.620     8470.723     7749.393     1569.725        1.876        0.889      139.702       32.123        0.053      347.266       26.110      860.148
09/15/2014  19:47:00     -370.724      -30.412      -30.381      119.147      109.088       53.900    14196.056    11900.259     2905.201        8.414        1.450      371.969       48.210        0.017      347.272       26.117      860.138
09/15/2014  19:48:00     -402.408     -122.556      -33.066      166.268      137.269       79.357    27645.154    18842.910     6297.463       11.540        2.639      420.657       85.110        0.041      347.269       26.112      860.122
09/15/2014  19:49:00     -348.955     -100.495      -10.839      155.170      121.524       77.681    24077.631    14768.192     6034.378        8.842        2.244      363.137       83.910        0.053      347.220       26.028      860.152
09/15/2014  19:50:00     -360.511     -143.006      -16.581      198.245      164.355       67.168    39301.242    27012.627     4511.558       11.075        3.541      387.839       64.301        0.027      347.238       26.060      860.166
09/15/2014  19:51:00     -339.571     -156.691      -22.521      127.809      139.121       61.722    16335.017    19354.542     3809.563        8.993        1.975      373.979       62.417        0.028      347.216       26.020      860.198
09/15/2014  19:52:00     -484.432     -103.293      -13.701      225.764      124.418       78.360    50969.453    15479.951     6140.271       15.905        3.629      495.321       98.325        0.039      347.221       26.028      860.219
09/15/2014  19:53:00     -492.987      -99.759      -16.783      189.752      141.362       85.398    36005.977    19983.080     7292.797       15.826        3.164      502.979       91.614        0.033      347.218       26.026      860.246
09/15/2014  19:54:00     -324.289     -127.849       -0.472      151.078      116.735       65.219    22824.563    13627.031     4253.470        8.110        2.035      348.581       75.024        0.046      347.192       25.980      860.262
09/15/2014  19:55:00     -272.352      -67.492        3.817      227.201      166.376      104.562    51620.079    27681.095    10933.246        8.447        4.512      280.590      116.977        0.174      347.138       25.888      860.262
09/15/2014  19:56:00     -306.448      -57.769      -16.786      161.312      170.988       81.948    26021.592    29236.948     6715.427        7.974        3.099      311.845       72.574        0.054      347.158       25.922      860.265
09/15/2014  19:57:00     -325.219     -120.975       -9.078      156.223      127.250       79.031    24405.683    16192.510     6245.938        8.366        2.342      346.990       78.593        0.051      347.134       25.879      860.263
09/15/2014  19:58:00     -323.868      -70.457      -10.962      151.764      141.991       68.350    23032.272    20161.402     4671.743        7.891        2.393      331.443       75.140        0.051      347.098       25.817      860.275
09/15/2014  19:59:00     -473.187      -55.919      -34.707      221.453      131.083       73.827    49041.324    17182.672     5450.472       14.994        3.584      476.479       86.845        0.033      347.112       25.841      860.295
09/15/2014  20:00:00     -515.537     -107.788      -22.753      256.613      168.514      104.281    65850.144    28396.967    10874.462       19.150        5.256      526.685      124.961        0.056      347.093       25.808      860.264
09/15/2014  20:01:00     -333.014      -31.034       -5.545      166.555      137.089       77.766    27740.500    18793.383     6047.518        8.223        2.629      334.457       84.307        0.064      347.067       25.764      860.337
09/15/2014  20:02:00     -399.085      -23.443      -23.911       92.343      133.497       59.473     8527.248    17821.345     3537.047        9.513        1.494      399.773       46.550        0.014      347.090       25.803      860.368
09/15/2014  20:03:00     -332.268       19.270      -19.718      120.829       93.620       55.595    14599.742     8764.735     3090.769        6.880        1.323      332.827       47.954        0.021      347.049       25.732      860.352
09/15/2014  20:04:00     -361.405      -13.820      -13.662      201.024      163.289       94.249    40410.678    26663.309     8882.786       10.346        3.798      361.669      101.088        0.078      347.032       25.703      860.350
09/15/2014  20:05:00     -342.607      -75.468        3.145      164.017      135.712       79.429    26901.595    18417.841     6308.922        8.735        2.581      350.821       76.236        0.047      347.025       25.691      860.355
09/15/2014  20:06:00     -426.463      -90.262      -15.115      188.712      153.027       80.553    35612.399    23417.375     6488.766       12.787        3.276      435.910       97.851        0.050      347.038       25.715      860.385
09/15/2014  20:07:00     -377.534      -89.660       -0.291      162.805      125.798       60.291    26505.319    15825.141     3634.954        9.826        2.298      388.035       62.418        0.026      347.024       25.692      860.409
09/15/2014  20:08:00     -310.672      -88.965        9.484      186.700      138.406       69.185    34856.712    19156.161     4786.573        8.165        2.940      323.159       77.046        0.057      347.013       25.672      860.380
09/15/2014  20:09:00     -221.565        1.060       10.734      149.340      105.375       71.943    22302.298    11103.884     5175.737        4.389        1.929      221.567       69.223        0.098      346.955       25.572      860.385
09/15/2014  20:10:00     -383.362      -90.089      -13.540      226.994      178.875       86.073    51526.114    31996.202     7408.625       12.308        4.547      393.805       90.790        0.053      346.990       25.632      860.417
09/15/2014  20:11:00     -296.726     -102.744        5.771      171.783      153.438       74.355    29509.331    23543.113     5528.707        7.860        2.929      314.011       75.718        0.058      346.976       25.608      860.446
09/15/2014  20:12:00     -346.854     -111.516        0.123      169.677      111.507       80.779    28790.325    12433.827     6525.202        9.024        2.387      364.340       80.086        0.048      347.000       25.650      860.507
09/15/2014  20:13:00     -379.798      -26.134      -21.694      143.651      113.175       62.513    20635.466    12808.493     3907.926        9.137        1.868      380.696       73.375        0.037      346.968       25.595      860.498
09/15/2014  20:14:00     -471.472      -17.783      -41.691      157.709      156.092       70.550    24872.212    24364.711     4977.249       13.927        2.711      471.807       72.405        0.024      346.956       25.573      860.484
09/15/2014  20:15:00     -294.566     -109.191        2.359      165.651      112.749       74.573    27440.224    12712.368     5561.073        7.220        2.286      314.153       73.607        0.055      346.934       25.535      860.516
09/15/2014  20:16:00     -288.057     -125.848      -11.885      168.071      155.687       79.755    28247.948    24238.325     6360.828        7.889        2.942      314.348       82.849        0.069      346.959       25.579      860.541
09/15/2014  20:17:00     -457.841      -56.918      -40.191      206.630      156.208       61.013    42695.991    24400.852     3722.565       14.263        3.541      461.365       67.317        0.021      346.936       25.539      860.543
09/15/2014  20:18:00     -281.927        7.212      -19.661      110.221      102.988       61.237    12148.770    10606.516     3749.989        5.321        1.325      282.019       48.342        0.029      346.912       25.497      860.538
09/15/2014  20:19:00     -335.921      -80.224       -9.278      156.225      172.169       83.765    24406.256    29642.137     7016.546        9.020        3.053      345.368       73.075        0.045      346.894       25.466      860.516
09/15/2014  20:20:00     -391.754      -32.823      -21.617      213.768      120.702       74.813    45696.606    14568.941     5596.934       11.043        3.293      393.126       91.108        0.054      346.900       25.476      860.550
09/15/2014  20:21:00     -272.461      -73.970      -10.259      112.804      119.856       62.438    12724.797    14365.557     3898.498        5.539        1.549      282.324       51.918        0.034      346.877       25.437      860.537
09/15/2014  20:22:00     -368.749       24.468      -19.758      195.298      150.605       74.907    38141.167    22681.937     5611.107       10.169        3.322      369.560       83.315        0.051      346.872       25.428      860.523
09/15/2014  20:23:00     -291.700      -69.708       -4.906      191.978      134.342       81.743    36855.565    18047.869     6681.914        7.577        3.079      299.913      102.935        0.118      346.852       25.395      860.524
09/15/2014  20:24:00     -276.951      -42.293        3.887      144.344      178.976       85.573    20835.313    32032.422     7322.775        6.934        3.010      280.162       75.323        0.072      346.875       25.433      860.525
09/15/2014  20:25:00     -353.096     -102.031      -22.002      141.558      109.374       70.108    20038.630    11962.664     4915.071        8.624        1.846      367.542       67.143        0.033      346.881       25.443      860.559
09/15/2014  20:26:00     -458.147     -137.052      -16.046      199.322      143.463       91.126    39729.264    20581.681     8303.914       14.876        3.431      478.207       99.373        0.043      346.877       25.437      860.579
09/15/2014  20:27:00     -438.224      -62.977      -41.883      166.533      122.140       65.787    27733.369    14918.273     4327.935       12.236        2.349      442.726       59.907        0.018      346.865       25.417      860.558
09/15/2014  20:28:00     -453.510        8.349      -23.759      216.594      161.156       88.266    46912.911    25971.392     7790.910       14.347        4.034      453.587       90.833        0.040      346.852       25.393      860.549
09/15/2014  20:29:00     -411.061      -41.567      -22.514      129.655      107.440       67.069    16810.316    11543.282     4498.254       10.202        1.643      413.158       72.214        0.031      346.825       25.350      860.572
09/15/2014  20:30:00     -408.331      -43.941      -16.318      139.388      132.348       63.497    19428.968    17515.864     4031.918       10.495        2.049      410.689       58.129        0.020      346.794       25.295      860.583
09/15/2014  20:31:00     -321.524     -107.085      -13.349      124.789      106.581       53.779    15572.399    11359.542     2892.205        7.242        1.491      338.888       56.595        0.028      346.799       25.302      860.571
09/15/2014  20:32:00     -252.525       -5.833        5.511      161.000      124.085       71.805    25920.937    15397.038     5155.917        5.514        2.324      252.592       74.987        0.088      346.725       25.176      860.587
09/15/2014  20:33:00     -298.478      -75.133       -3.896      147.335      136.405       74.989    21707.473    18606.206     5623.297        7.033        2.297      307.789       78.904        0.066      346.766       25.246      860.565
09/15/2014  20:34:00     -440.043      -83.981      -23.573      175.774      160.499       85.200    30896.425    25759.859     7259.049       13.257        3.196      447.985       74.030        0.027      346.798       25.300      860.561
09/15/2014  20:35:00     -339.562      -30.386      -18.695      157.034      114.259       72.151    24659.781    13055.034     5205.748        7.974        2.146      340.919       78.670        0.053      346.771       25.255      860.592
09/15/2014  20:36:00     -371.928     -178.570       -3.576      305.864      214.832      114.797    93553.074    46152.855    13178.420       16.153        7.644      412.575      155.559        0.142      346.785       25.279      860.575
09/15/2014  20:37:00     -408.206      -58.281      -13.331      194.192      134.576       88.989    37710.661    18110.806     7919.004       11.696        3.187      412.345      100.512        0.059      346.788       25.283      860.606
09/15/2014  20:38:00     -337.367      -45.970      -10.089      148.914      142.963       79.131    22175.428    20438.375     6261.732        8.244        2.444      340.485       79.590        0.055      346.775       25.261      860.618
09/15/2014  20:39:00     -409.924      -68.564      -19.675      206.133      176.327       76.524    42490.632    31091.243     5855.920       12.627        3.972      415.618       93.879        0.051      346.837       25.369      860.669
09/15/2014  20:40:00     -380.510        8.775      -33.880      116.818      110.146       55.467    13646.395    12132.129     3076.545        8.743        1.443      380.611       51.100        0.018      346.829       25.354      860.690
09/15/2014  20:41:00     -419.502      -99.163      -22.967      148.810      122.897       70.066    22144.514    15103.772     4909.176       11.424        2.108      431.063       77.766        0.033      346.780       25.269      860.668
09/15/2014  20:42:00     -352.221     -110.083      -35.567      145.676      137.479       73.404    21221.354    18900.574     5388.119        9.147        2.276      369.023       69.930        0.036      346.762       25.240      860.659
09/15/2014  20:43:00     -322.629     -104.188      -10.890      147.091      172.709       66.101    21635.625    29828.291     4369.388        8.544        2.792      339.034       59.567        0.031      346.731       25.186      860.639
09/15/2014  20:44:00     -535.754      -71.695      -24.246      246.319      137.279      103.484    60673.195    18845.392    10708.924       19.148        4.511      540.530      110.312        0.042      346.723       25.173      860.599
09/15/2014  20:45:00     -437.577      -68.060       -6.556      158.165      142.434       73.056    25016.055    20287.564     5337.132       12.338        2.532      442.838       72.051        0.026      346.749       25.216      860.617
09/15/2014  20:46:00     -302.001     -107.043        6.700      189.715      138.446       70.009    35991.691    19167.285     4901.210        8.137        3.003      320.411       88.488        0.076      346.686       25.109      860.626
09/15/2014  20:47:00     -214.323      -24.384        6.888      159.889      120.594       82.218    25564.508    14542.980     6759.874        4.671        2.343      215.706       90.711        0.177      346.661       25.065      860.675
09/15/2014  20:48:00     -478.908     -139.180      -36.795      227.598      143.390       74.118    51800.714    20560.672     5493.448       16.395        3.893      498.722       79.004        0.025      346.748       25.213      860.668
09/15/2014  20:49:00     -322.619      -84.375      -12.454      187.982      153.546       81.333    35337.110    23576.397     6615.106        8.843        3.276      333.470       86.038        0.067      346.699       25.132      860.665
09/15/2014  20:50:00     -289.908      -41.611       -7.539      163.033      106.771       68.529    26579.727    11400.085     4696.241        6.425        2.134      292.879       74.009        0.064      346.669       25.079      860.661
09/15/2014  20:51:00     -517.823      -76.895      -32.430      165.679      131.505       86.953    27449.580    17293.577     7560.805       16.369        2.615      523.501       86.223        0.027      346.708       25.146      860.669
09/15/2014  20:52:00     -267.216      -69.107        8.121      171.307       97.140       57.587    29346.093     9436.101     3316.303        5.916        2.105      276.007       61.534        0.050      346.690       25.114      860.646
09/15/2014  20:53:00     -322.441     -100.014       -6.379      184.361      131.348       70.038    33988.892    17252.202     4905.366        8.507        2.807      337.596       70.461        0.044      346.661       25.066      860.650
09/15/2014  20:54:00     -324.846      -84.590      -14.314      132.003      118.702       66.362    17424.710    14090.104     4403.956        7.440        1.796      335.679       68.376        0.041      346.639       25.027      860.669
09/15/2014  20:55:00     -327.239      -51.796      -17.808      152.296      105.446       62.679    23193.931    11118.959     3928.631        7.416        1.912      331.312       71.082        0.046      346.611       24.980      860.679
09/15/2014  20:56:00     -402.688      -36.788      -12.539      167.772      139.066       71.431    28147.489    19339.270     5102.324       10.812        2.629      404.365       71.945        0.032      346.626       25.004      860.675
09/15/2014  20:57:00     -483.199     -114.285      -27.240      224.977      180.461       79.171    50614.615    32566.314     6267.991       16.835        4.472      496.531       68.156        0.019      346.651       25.050      860.683
09/15/2014  20:58:00     -214.302     -132.799       -2.465      167.992      120.313       70.803    28221.348    14475.238     5013.037        5.563        2.385      252.113       85.609        0.115      346.626       25.006      860.685
09/15/2014  20:59:00     -346.627      -59.875       -9.099      181.159      131.653       75.236    32818.742    17332.543     5660.447        8.980        2.791      351.760       75.054        0.046      346.598       24.956      860.688
09/15/2014  21:00:00     -344.159      -66.691      -25.370      112.638      123.340       68.404    12687.364    15212.866     4679.164        7.805        1.629      350.561       38.659        0.012      346.616       24.988      860.714
09/15/2014  21:01:00     -426.598     -103.395      -15.698      124.059      150.603       70.152    15390.594    22681.338     4921.275       11.795        2.150      438.949       53.925        0.015      346.640       25.029      860.732
09/15/2014  21:02:00     -350.805      -96.263       -3.747      161.952      119.099       67.173    26228.484    14184.658     4512.230        8.863        2.246      363.773       74.428        0.042      346.629       25.011      860.766
09/15/2014  21:03:00     -236.890      -40.026       -2.298      142.398       92.469       62.621    20277.085     8550.471     3921.390        4.523        1.637      240.248       73.197        0.093      346.622       25.000      860.795
09/15/2014  21:04:00     -306.409       -4.829      -20.091      115.809       81.866       51.804    13411.806     6701.977     2683.621        5.855        1.140      306.447       56.222        0.034      346.629       25.011      860.790
09/15/2014  21:05:00     -245.491       45.934        7.300      168.210      153.519       79.837    28294.553    23568.175     6373.971        6.032        2.912      249.751       85.535        0.117      346.570       24.911      860.759
09/15/2014  21:06:00     -352.376      -82.066        1.311      163.584      130.637       76.222    26759.620    17066.139     5809.728        9.026        2.482      361.807       81.313        0.051      346.548       24.872      860.737
09/15/2014  21:07:00     -348.626      -72.214       -3.706      153.460      133.470       74.564    23549.900    17814.174     5559.779        8.684        2.346      356.026       76.075        0.046      346.525       24.833      860.723
09/15/2014  21:08:00     -426.301      -92.330      -31.906      132.150      154.617       75.659    17463.616    23906.462     5724.249       11.918        2.355      436.185       63.630        0.021      346.587       24.939      860.740
09/15/2014  21:09:00     -369.573      -47.365      -27.151      199.807      102.219       65.766    39922.676    10448.659     4325.213        9.712        2.735      372.596       86.632        0.054      346.583       24.931      860.764
09/15/2014  21:10:00     -395.194      -52.463      -31.823      114.859      134.578       64.567    13192.492    18111.142     4168.836        9.770        1.774      398.661       46.205        0.013      346.581       24.926      860.788
09/15/2014  21:11:00     -354.960        5.040      -21.765      168.532      122.318       67.394    28403.144    14961.573     4541.998        8.719        2.395      354.996       72.159        0.041      346.574       24.916      860.814
09/15/2014  21:12:00     -267.165      -58.112      -34.326       91.708       99.140       53.001     8410.299     9828.807     2809.106        4.849        1.052      273.412       41.023        0.023      346.553       24.879      860.829
09/15/2014  21:13:00     -300.256      -89.926      -18.892      128.758      101.569       55.781    16578.726    10316.249     3111.564        6.430        1.500      313.434       66.422        0.045      346.548       24.872      860.858
09/15/2014  21:14:00     -292.587     -116.087       -6.634      179.212      132.580       68.436    32116.895    17577.386     4683.465        7.674        2.719      314.775       78.510        0.062      346.518       24.821      860.821
09/15/2014  21:15:00     -204.363       -5.690        2.966      158.291      110.911       57.213    25056.123    12301.252     3273.280        4.121        2.032      204.442       56.820        0.077      346.469       24.738      860.816
09/15/2014  21:16:00     -324.206     -101.203      -19.490      173.640      102.210       55.750    30150.681    10446.797     3108.025        7.971        2.185      339.635       61.372        0.033      346.477       24.751      860.826
09/15/2014  21:17:00     -371.051      -50.698      -11.026      136.171      125.867       59.792    18542.501    15842.404     3575.055        8.916        1.898      374.499       58.728        0.025      346.486       24.764      860.860
09/15/2014  21:18:00     -222.101      -53.338       -4.733      141.867       89.985       57.432    20126.332     8097.337     3298.394        4.185        1.576      228.416       58.956        0.067      346.534       24.848      860.883
09/15/2014  21:19:00     -163.446       37.791      -19.795       54.328       47.331       32.293     2951.514     2240.266     1042.818        1.738        0.312      167.758       18.992        0.013      346.499       24.790      860.867
09/15/2014  21:20:00     -151.217      -59.243      -12.163      106.196       75.757       46.121    11277.593     5739.113     2127.187        2.283        0.957      162.408       36.978        0.052      346.444       24.695      860.851
09/15/2014  21:21:00     -297.996      -88.755       -7.882      130.478       94.550       56.507    17024.496     8939.626     3193.018        6.294        1.458      310.932       57.188        0.034      346.420       24.651      860.858
09/15/2014  21:22:00     -360.085      -72.560      -17.558      122.474      105.267       61.500    14999.862    11081.100     3782.254        8.254        1.493      367.323       53.463        0.021      346.498       24.785      860.866
09/15/2014  21:23:00     -303.302      -62.615      -34.252      108.022       98.833       42.449    11668.700     9767.905     1801.940        6.016        1.162      309.698       42.021        0.018      346.576       24.918      860.895
09/15/2014  21:24:00     -156.855      -50.862      -13.843      100.789       88.542       40.126    10158.497     7839.679     1610.099        2.349        0.980      164.895       39.990        0.059      346.520       24.824      860.884
09/15/2014  21:25:00     -221.425     -116.298       -6.305       86.330       72.882       44.378     7452.871     5311.800     1969.392        3.866        0.737      250.109       47.662        0.036      346.441       24.686      860.875
09/15/2014  21:26:00     -165.669      -85.843       -4.322      121.155       94.452       50.995    14678.621     8921.198     2600.516        3.051        1.310      186.588       56.177        0.091      346.367       24.561      860.864
09/15/2014  21:27:00     -282.495      -32.846      -11.910      150.247       96.424       58.351    22574.248     9297.675     3404.889        5.814        1.764      284.398       64.747        0.052      346.403       24.622      860.848
09/15/2014  21:28:00     -256.094      -88.949       -5.112      144.132      137.885       68.770    20773.927    19012.218     4729.253        5.901        2.226      271.101       84.516        0.097      346.468       24.734      860.871
09/15/2014  21:29:00     -331.813      -35.222      -26.340       76.570       79.576       43.220     5862.933     6332.304     1867.952        6.305        0.703      333.678       37.245        0.012      346.444       24.691      860.906
09/15/2014  21:30:00     -218.934       16.965      -33.004       66.175       91.441       44.207     4379.113     8361.544     1954.220        3.200        0.735      219.590       39.228        0.032      346.564       24.898      860.906
09/15/2014  21:31:00     -268.861     -123.336      -12.374       93.680       90.590       59.641     8775.904     8206.551     3557.087        5.409        1.027      295.801       50.658        0.029      346.475       24.746      860.872
09/15/2014  21:32:00     -238.046     -101.261        1.036      164.186      121.750       69.795    26956.958    14823.135     4871.375        5.678        2.333      258.688       63.423        0.060      346.449       24.702      860.864
09/15/2014  21:33:00     -439.868      -69.676      -35.667      120.455      126.421       66.695    14509.418    15982.336     4448.206       11.727        1.747      445.353       54.959        0.015      346.462       24.724      860.879
09/15/2014  21:34:00     -344.318      -79.446      -30.891       90.982       88.260       57.938     8277.746     7789.820     3356.843        7.262        0.971      353.365       37.647        0.011      346.508       24.804      860.921
09/15/2014  21:35:00     -216.177      -95.254      -13.314      100.503       68.996       52.625    10100.885     4760.435     2769.355        3.680        0.882      236.232       60.641        0.066      346.446       24.697      860.938
09/15/2014  21:36:00     -213.281       23.069      -27.506       89.625       79.474       42.242     8032.582     6316.049     1784.422        3.145        0.807      214.525       38.769        0.033      346.390       24.600      860.920
09/15/2014  21:37:00     -394.640        0.143      -24.481      129.743      133.641       74.552    16833.126    17859.970     5557.989        9.829        2.013      394.640       74.072        0.035      346.446       24.695      860.878
09/15/2014  21:38:00     -264.694      -98.522       -2.816      255.557      112.902       68.249    65309.432    12746.803     4657.937        8.123        4.136      282.435       89.164        0.100      346.550       24.877      860.878
09/15/2014  21:39:00     -145.624       -9.595       -4.504       64.861       56.329       34.200     4206.996     3172.988     1169.608        1.493        0.427      145.940       33.765        0.054      346.498       24.788      860.904
09/15/2014  21:40:00     -117.371      -23.093        3.396       77.147       51.734       31.408     5951.670     2676.418      986.442        1.197        0.481      119.621       36.546        0.093      346.386       24.594      860.910
09/15/2014  21:41:00     -274.839     -121.859       -3.356      137.673      112.446       61.203    18953.846    12644.156     3745.818        6.286        1.767      300.643       60.140        0.040      346.416       24.645      860.915
09/15/2014  21:42:00     -217.021     -111.462      -13.167      123.850       91.569       56.611    15338.933     8384.944     3204.843        4.331        1.346      243.971       56.960        0.055      346.422       24.655      860.920
09/15/2014  21:43:00     -357.930      -43.396      -23.681      174.644      100.168       74.818    30500.430    10033.649     5597.779        8.834        2.307      360.551       86.227        0.057      346.464       24.727      860.930
09/15/2014  21:44:00     -348.891      -24.785      -27.464      111.990       90.556       48.157    12541.812     8200.387     2319.083        7.307        1.153      349.770       42.591        0.015      346.418       24.647      860.947
09/15/2014  21:45:00     -325.976      -36.679      -14.412      102.050       70.575       55.375    10414.256     4980.767     3066.336        6.313        0.923      328.033       42.889        0.017      346.426       24.661      860.977
09/15/2014  21:46:00     -389.908      -58.992      -22.072      119.399      132.112       63.273    14256.074    17453.689     4003.479        9.585        1.786      394.346       69.191        0.031      346.396       24.609      860.993
09/15/2014  21:47:00     -201.465      -73.530      -17.076      147.150       70.068       47.743    21653.132     4909.548     2279.439        3.756        1.442      214.464       67.889        0.100      346.355       24.540      861.012
09/15/2014  21:48:00     -182.222       -3.937      -22.348       83.936       79.963       35.415     7045.177     6394.033     1254.231        2.420        0.735      182.265       40.118        0.048      346.341       24.516      861.000
09/15/2014  21:49:00     -173.459      -33.904       -3.711      111.735       66.463       35.080    12484.755     4417.371     1230.594        2.469        0.907      176.742       41.365        0.055      346.292       24.432      860.995
09/15/2014  21:50:00     -139.060      -68.575       -0.673       70.568       70.207       42.845     4979.790     4929.079     1835.654        1.789        0.587      155.049       38.856        0.063      346.270       24.396      861.003
09/15/2014  21:51:00     -150.532      -59.163       -5.137       90.422       53.285       33.145     8176.164     2839.334     1098.616        1.915        0.606      161.741       35.597        0.048      346.241       24.344      861.017
09/15/2014  21:52:00     -340.200     -117.876      -20.081       90.352       73.385       46.849     8163.522     5385.395     2194.816        7.289        0.787      360.043       36.681        0.010      346.287       24.423      861.026
09/15/2014  21:53:00     -171.676      -96.561        0.408       87.772       61.636       46.228     7703.861     3798.982     2137.029        2.622        0.682      196.969       47.035        0.057      346.216       24.301      861.032
09/15/2014  21:54:00     -227.605      -85.328       -7.669       78.365       46.999       36.825     6141.120     2208.930     1356.117        3.442        0.485      243.074       38.533        0.025      346.229       24.320      861.042
09/15/2014  21:55:00     -193.274      -30.843       -5.614      110.029       65.661       44.206    12106.396     4311.392     1954.168        2.835        0.919      195.719       52.111        0.071      346.181       24.241      861.063
09/15/2014  21:56:00      -95.630      -52.719        4.446       82.686       68.257       37.463     6836.924     4658.984     1403.500        1.242        0.645      109.199       38.280        0.123      346.211       24.295      861.056
09/15/2014  21:57:00     -167.187       12.478      -19.171      106.662       54.756       39.134    11376.743     2998.214     1531.455        2.219        0.795      167.652       48.572        0.084      346.281       24.413      861.044
09/15/2014  21:58:00     -166.406        8.735      -13.092       71.792       91.271       37.112     5154.107     8330.306     1377.295        2.140        0.743      166.635       36.206        0.047      346.270       24.394      861.041
09/15/2014  21:59:00     -199.974       31.175      -19.964       51.008       48.265       26.391     2601.793     2329.478      696.470        2.349        0.281      202.389       19.140        0.009      346.270       24.395      861.042
09/15/2014  22:00:00     -146.478        0.174      -11.443       55.887       50.028       23.323     3123.314     2502.770      543.945        1.388        0.309      146.478       20.479        0.020      346.205       24.284      861.052
09/15/2014  22:01:00     -169.044      -47.046       -3.131       65.767       51.569       32.895     4325.288     2659.412     1082.052        1.943        0.403      175.469       33.460        0.036      346.179       24.239      861.070
09/15/2014  22:02:00     -197.486      -35.816       -1.055      101.680       61.602       39.186    10338.890     3794.746     1535.543        2.797        0.783      200.708       45.116        0.051      346.308       24.457      861.069
09/15/2014  22:03:00     -182.968      -58.414      -10.120       92.190       77.753       40.833     8498.993     6045.457     1667.329        2.660        0.811      192.066       40.442        0.044      346.263       24.381      861.042
09/15/2014  22:04:00     -330.579      -91.048      -18.791      154.390       98.649       66.540    23836.178     9731.615     4427.575        7.795        1.900      342.888       74.722        0.047      346.351       24.534      861.041
09/15/2014  22:05:00     -287.845      -89.363      -10.600      141.675       92.348       56.629    20071.921     8528.070     3206.883        6.137        1.590      301.398       64.276        0.045      346.420       24.652      861.050
09/15/2014  22:06:00     -345.548     -111.959        2.166      139.053      117.028       71.522    19335.613    13695.486     5115.343        8.504        1.907      363.233       76.407        0.044      346.445       24.695      861.053
09/15/2014  22:07:00     -262.753      -91.918       -3.462      153.738       95.766       58.030    23635.378     9171.174     3367.438        5.683        1.809      278.367       71.820        0.067      346.426       24.661      861.063
09/15/2014  22:08:00     -138.029      -18.829       -4.532       79.785       97.573       39.247     6365.670     9520.553     1540.306        1.842        0.871      139.308       37.401        0.072      346.449       24.703      861.059
09/15/2014  22:09:00     -163.877     -141.225      -10.965       73.972       74.960       44.695     5471.789     5619.033     1997.629        3.000        0.654      216.333       33.496        0.024      346.434       24.675      861.044
09/15/2014  22:10:00     -173.992     -161.938       -5.748      107.606      120.463       46.134    11578.951    14511.376     2128.370        4.237        1.411      237.691       38.115        0.026      346.470       24.736      861.033
09/15/2014  22:11:00     -152.737      -29.083        6.305       93.255       78.173       43.115     8696.405     6111.011     1858.881        2.044        0.833      155.481       44.922        0.083      346.322       24.485      861.050
09/15/2014  22:12:00     -200.556      -56.816       -8.711      111.266       68.961       42.490    12380.205     4755.624     1805.424        3.123        0.947      208.448       48.474        0.054      346.286       24.421      861.041
09/15/2014  22:13:00     -247.008      -33.329      -11.074       89.997       68.088       39.396     8099.389     4636.002     1552.077        3.826        0.714      249.246       38.292        0.024      346.316       24.472      861.036
09/15/2014  22:14:00     -234.039      -65.025       -8.964       69.950       70.078       43.399     4892.978     4910.906     1883.510        3.538        0.584      242.904       32.928        0.018      346.310       24.462      861.039
09/15/2014  22:15:00     -213.881      -10.405      -12.683       72.658       58.969       38.767     5279.188     3477.323     1502.852        2.813        0.513      214.134       39.889        0.035      346.263       24.382      861.041
09/15/2014  22:16:00     -203.505      -62.110       -8.981       86.782       50.202       39.677     7531.163     2520.247     1574.297        2.849        0.581      212.772       42.381        0.040      346.239       24.340      861.041
09/15/2014  22:17:00     -258.826      -89.647       -6.507       75.129       66.409       46.198     5644.405     4410.126     2134.223        4.363        0.609      273.911       39.929        0.021      346.220       24.306      861.070
09/15/2014  22:18:00     -188.058      -69.607       -2.181       89.480       75.475       41.675     8006.717     5696.520     1736.787        2.782        0.772      200.526       36.783        0.034      346.188       24.253      861.105
09/15/2014  22:19:00     -267.758      -35.969      -13.430       97.599       92.503       55.272     9525.620     8556.721     3054.968        4.715        1.057      270.163       53.865        0.040      346.257       24.370      861.125
09/15/2014  22:20:00     -186.820      -67.571       -8.444      101.574       86.551       41.385    10317.211     7491.095     1712.691        2.953        0.976      198.664       42.826        0.046      346.254       24.365      861.147
09/15/2014  22:21:00     -205.202      -42.635       -4.627       97.405       67.698       38.437     9487.685     4582.965     1477.435        2.974        0.777      209.584       41.779        0.040      346.208       24.286      861.142
09/15/2014  22:22:00     -189.180      -61.969       10.433      102.916       88.502       44.121    10591.701     7832.572     1946.690        3.005        1.019      199.071       52.008        0.068      346.164       24.212      861.147
09/15/2014  22:23:00     -174.157      -79.747       -5.848       74.069       49.234       34.062     5486.241     2423.945     1160.192        2.290        0.454      191.547       27.186        0.020      346.177       24.235      861.146
09/15/2014  22:24:00     -179.255      -44.112       -6.554       59.040       50.242       32.020     3485.688     2524.298     1025.312        2.058        0.352      184.603       25.815        0.020      346.138       24.168      861.126
09/15/2014  22:25:00     -204.595      -25.221       -0.495       83.627       51.447       38.776     6993.398     2646.786     1503.597        2.682        0.557      206.144       43.569        0.045      346.203       24.278      861.097
09/15/2014  22:26:00     -206.451      -19.458      -11.981       77.841       48.806       39.423     6059.270     2381.992     1554.164        2.657        0.500      207.366       37.403        0.033      346.310       24.463      861.094
09/15/2014  22:27:00     -146.466      -30.697      -11.268       58.055       72.352       31.880     3370.370     5234.808     1016.348        1.607        0.481      149.648       24.969        0.028      346.240       24.343      861.107
09/15/2014  22:28:00     -139.198      -64.938      -12.478       61.396       42.637       36.218     3769.441     1817.891     1311.742        1.532        0.345      153.600       29.776        0.038      346.183       24.247      861.148
09/15/2014  22:29:00     -186.400      -58.347       -6.837       82.356       49.359       38.359     6782.527     2436.330     1471.432        2.444        0.535      195.319       45.113        0.053      346.158       24.201      861.182
09/15/2014  22:30:00     -185.651      -26.612       -3.903       52.848       47.847       30.427     2792.942     2289.328      925.818        2.060        0.300      187.549       26.588        0.020      346.110       24.122      861.193
09/15/2014  22:31:00     -209.342      -47.554      -15.174       82.366       63.335       38.758     6784.173     4011.305     1502.176        2.930        0.615      214.675       34.557        0.026      346.147       24.182      861.183
09/15/2014  22:32:00     -237.846      -62.911      -14.812       64.518       47.108       36.040     4162.536     2219.191     1298.901        3.421        0.384      246.026       26.839        0.012      346.281       24.411      861.171
09/15/2014  22:33:00     -171.187      -55.343      -12.306       46.196       67.195       32.320     2134.050     4515.198     1044.598        2.011        0.385      179.911       28.458        0.025      346.171       24.225      861.174
09/15/2014  22:34:00     -131.272      -20.625       -6.876       46.084       45.927       26.185     2123.737     2109.246      685.643        1.131        0.246      132.883       24.586        0.034      346.154       24.196      861.185
09/15/2014  22:35:00     -105.055      -24.553      -10.375       38.204       29.956       24.097     1459.574      897.382      580.647        0.734        0.147      107.886       23.301        0.047      346.113       24.127      861.188
09/15/2014  22:36:00     -178.584      -24.890       -5.440       54.089       36.751       28.040     2925.625     1350.660      786.234        1.880        0.253      180.311       28.470        0.025      346.209       24.290      861.171
09/15/2014  22:37:00     -148.093      -31.592       -4.237       46.550       35.251       23.983     2166.879     1242.655      575.187        1.347        0.199      151.425       19.325        0.016      346.097       24.098      861.158
09/15/2014  22:38:00      -87.531      -41.472        5.572       47.342       32.714       26.961     2241.268     1070.186      726.920        0.672        0.202       96.859       27.903        0.083      346.011       23.953      861.165
09/15/2014  22:39:00     -130.576      -36.640       -1.797       49.630       29.637       18.942     2463.141      878.326      358.789        1.105        0.185      135.619       23.284        0.029      346.056       24.028      861.175
09/15/2014  22:40:00     -187.706      -28.327       -6.019       41.264       30.942       21.710     1702.681      957.408      471.321        1.960        0.157      189.832       23.673        0.016      346.089       24.083      861.185
09/15/2014  22:41:00     -132.056      -59.951       -1.368       46.676       41.361       22.297     2178.689     1710.701      497.160        1.271        0.219      145.027       19.115        0.017      346.093       24.092      861.202
09/15/2014  22:42:00     -139.180      -18.827      -10.399       74.206       43.417       24.419     5506.604     1885.044      596.266        1.391        0.399      140.448       31.992        0.052      346.108       24.117      861.203
09/15/2014  22:43:00      -81.548      -43.219       -5.219       32.837       33.606       17.657     1078.254     1129.354      311.757        0.553        0.126       92.292       14.032        0.023      346.085       24.079      861.208
09/15/2014  22:44:00      -23.185      -32.833        8.088       33.884       19.063       19.357     1148.113      363.417      374.710        0.178        0.094       40.194       18.659        0.215      346.058       24.033      861.210
09/15/2014  22:45:00        6.379      -10.048        4.417       41.013       43.962       17.848     1682.071     1932.666      318.566        0.205        0.197       11.901       10.638        0.799      346.014       23.957      861.234
09/15/2014  22:46:00       52.334       20.207       49.591       74.819       63.741       41.508     5597.911     4062.929     1722.899        0.849        0.569       56.099       37.487        0.447      345.871       23.710      861.232
09/15/2014  22:47:00       77.969       69.375       71.955       82.551       54.314       38.729     6814.711     2949.984     1499.898        1.366        0.563      104.365       34.222        0.108      345.649       23.328      861.227
09/15/2014  22:48:00      154.547      109.560       67.127       71.179       46.152       40.505     5066.402     2129.966     1640.643        2.461        0.442      189.442       34.022        0.032      345.572       23.195      861.221
09/15/2014  22:49:00       63.597       59.432       52.387       56.127       42.416       29.481     3150.236     1799.151      869.137        0.807        0.291       87.045       16.109        0.034      345.481       23.041      861.246
09/15/2014  22:50:00      132.959       61.297       44.990       60.029       39.164       39.065     3603.534     1533.790     1526.079        1.506        0.333      146.408       35.457        0.059      345.496       23.066      861.272
09/15/2014  22:51:00      138.026       51.114       32.923       69.683       46.328       50.850     4855.654     2146.277     2585.732        1.617        0.479      147.187       42.322        0.083      345.491       23.058      861.290
09/15/2014  22:52:00      117.855       36.314        1.686       61.113       47.318       38.995     3734.738     2238.974     1520.623        1.135        0.375      123.323       26.605        0.047      345.479       23.038      861.302
09/15/2014  22:53:00      120.402       37.159        3.187       62.117       48.385       38.499     3858.475     2341.134     1482.173        1.178        0.384      126.005       27.188        0.047      345.682       23.386      861.303
09/15/2014  22:54:00       95.915       41.988        4.507       56.011       36.256       27.922     3137.225     1314.524      779.653        0.811        0.262      104.703       24.975        0.057      345.811       23.607      861.314
09/15/2014  22:55:00      111.156       72.931       38.545       26.733       22.239       28.214      714.672      494.579      796.022        1.058        0.100      132.945       16.369        0.015      346.006       23.943      861.320
09/15/2014  22:56:00       91.184       57.058       29.163       27.658       17.177       24.092      764.989      295.039      580.433        0.703        0.082      107.565       21.226        0.039      345.970       23.882      861.312
09/15/2014  22:57:00       52.253       30.294        8.835       29.189       24.632       17.949      851.972      606.750      322.155        0.275        0.089       60.400       13.159        0.047      345.791       23.574      861.302
09/15/2014  22:58:00       65.677       50.876       20.698       26.098       16.791       17.601      681.110      281.944      309.797        0.430        0.064       83.077       12.248        0.022      345.748       23.499      861.297
09/15/2014  22:59:00       67.328       49.230       11.876       22.569       14.578       16.985      509.367      212.530      288.478        0.405        0.051       83.407        9.429        0.013      345.880       23.728      861.301
09/15/2014  23:00:00       88.958       51.383       13.195       26.704       20.814       18.408      713.080      433.208      338.856        0.611        0.074      102.731       12.073        0.014      346.089       24.086      861.311
09/15/2014  23:01:00       78.340       54.325       21.064       34.584       18.274       17.977     1196.033      333.930      323.185        0.569        0.093       95.333       11.051        0.013      345.964       23.870      861.318
09/15/2014  23:02:00      102.057       46.794       14.942       27.572       17.526       25.934      760.219      307.159      672.554        0.728        0.087      112.273       13.042        0.013      345.723       23.458      861.336
09/15/2014  23:03:00       89.736       57.458       22.086       36.564       27.271       28.191     1336.944      743.714      794.706        0.736        0.144      106.555       24.771        0.054      345.549       23.158      861.345
09/15/2014  23:04:00       96.562       52.664       32.237       34.070       29.944       34.893     1160.747      896.664     1217.502        0.821        0.164      109.990       24.994        0.052      345.575       23.203      861.355
09/15/2014  23:05:00      104.695       53.662       20.375       39.961       34.652       30.494     1596.893     1200.767      929.873        0.899        0.186      117.646       21.272        0.033      345.614       23.271      861.360
09/15/2014  23:06:00      112.521       56.366       25.765       35.077       21.419       23.973     1230.381      458.779      574.714        0.938        0.113      125.850       15.854        0.016      345.753       23.508      861.358
09/15/2014  23:07:00       97.658       63.920       16.293       32.616       29.200       18.243     1063.802      852.613      332.800        0.807        0.112      116.717        7.929        0.005      345.782       23.557      861.336
09/15/2014  23:08:00       71.146       58.867       18.076       16.179       16.873       16.135      261.769      284.688      260.324        0.483        0.040       92.342        8.450        0.008      345.657       23.343      861.308
09/15/2014  23:09:00       54.284       30.621        6.446       27.626       24.396       17.388      763.187      595.162      302.336        0.279        0.083       62.325        6.938        0.012      345.598       23.243      861.304
09/15/2014  23:10:00       13.042        8.536       -1.309       23.505       16.712       12.283      552.474      279.299      150.863        0.061        0.049       15.587        8.749        0.315      345.595       23.236      861.320
09/15/2014  23:11:00        3.554       -5.535       -2.482        8.631       16.935        8.491       74.502      286.779       72.103        0.024        0.022        6.578        7.883        1.436      345.572       23.200      861.331
09/15/2014  23:12:00       -1.925      -17.855        5.507       11.173       12.521        8.642      124.835      156.787       74.685        0.035        0.018       17.958        7.730        0.185      345.610       23.262      861.325
09/15/2014  23:13:00        4.267       18.601       16.257       26.080       10.860       10.543      680.148      117.943      111.151        0.077        0.045       19.085        7.913        0.172      345.603       23.250      861.307
09/15/2014  23:14:00        2.178       43.705       -8.486       22.682       14.305        7.249      514.467      204.635       52.542        0.138        0.039       43.759        5.398        0.015      345.737       23.481      861.289
09/15/2014  23:15:00      -18.246       32.632      -10.924       11.544       21.517        7.896      133.266      462.980       62.352        0.109        0.033       37.387        7.375        0.039      345.710       23.437      861.281
09/15/2014  23:16:00      -54.155       17.284       -6.700        9.536        7.464        8.585       90.942       55.708       73.704        0.175        0.011       56.846        2.495        0.002      345.568       23.192      861.294
09/15/2014  23:17:00      -31.077       17.255       -3.716       25.046       10.175       11.691      627.308      103.534      136.678        0.107        0.043       35.545       13.472        0.144      345.572       23.199      861.303
09/15/2014  23:18:00      -49.245        0.857       -8.883        8.620        6.715        7.491       74.306       45.093       56.110        0.134        0.009       49.252        4.924        0.010      345.511       23.093      861.306
09/15/2014  23:19:00      -55.644        7.691       -7.920        9.471       11.775        6.111       89.695      138.648       37.341        0.174        0.013       56.173        4.322        0.006      345.512       23.096      861.302
09/15/2014  23:20:00      -61.125      -12.617       -8.512       12.910       14.614        7.626      166.663      213.577       58.156        0.220        0.022       62.414        4.360        0.005      345.387       22.881      861.291
09/15/2014  23:21:00      -80.890      -11.671       -6.998       15.857       13.055       11.080      251.449      170.443      122.768        0.364        0.027       81.728        7.055        0.007      345.332       22.787      861.291
09/15/2014  23:22:00      -91.207      -35.854       -7.459       10.611       11.507        8.832      112.590      132.409       78.001        0.499        0.016       98.001        6.019        0.004      345.314       22.755      861.290
09/15/2014  23:23:00     -104.913      -47.767       -8.951       14.624       13.254        9.342      213.860      175.673       87.266        0.692        0.024      115.276        6.879        0.004      345.256       22.658      861.300
09/15/2014  23:24:00      -84.092      -46.617       -7.012       28.136       17.105       14.215      791.637      292.580      202.079        0.529        0.064       96.148        5.967        0.004      345.194       22.551      861.309
09/15/2014  23:25:00      -72.192      -42.980        2.096       30.191       19.598       19.323      911.466      384.064      373.393        0.437        0.083       84.017       13.589        0.026      345.165       22.501      861.322
09/15/2014  23:26:00      -87.141      -52.181      -12.583       25.337       18.641       19.669      641.963      347.492      386.864        0.593        0.069      101.570       12.693        0.016      345.269       22.678      861.316
09/15/2014  23:27:00      -94.190      -31.838      -13.358       20.074       25.522       14.730      402.950      651.368      216.969        0.567        0.064       99.425       11.401        0.013      345.186       22.537      861.315
09/15/2014  23:28:00     -124.961      -19.697      -10.689       27.358       28.343       17.549      748.441      803.304      307.979        0.899        0.093      126.504       16.809        0.018      345.042       22.290      861.317
09/15/2014  23:29:00     -144.777       -7.053      -14.917       50.719       46.936       25.985     2572.465     2202.956      675.214        1.334        0.273      144.949       26.280        0.033      345.019       22.251      861.322
09/15/2014  23:30:00     -155.851      -34.546       -3.597       49.425       44.694       26.751     2442.841     1997.524      715.593        1.532        0.258      159.633       21.006        0.017      344.944       22.122      861.323
09/15/2014  23:31:00     -159.474      -39.592       -5.443       45.079       31.033       28.664     2032.089      963.076      821.622        1.542        0.191      164.315       25.815        0.025      345.023       22.258      861.308
09/15/2014  23:32:00     -210.359      -54.362      -14.387       27.772       30.686       18.279      771.310      941.623      334.128        2.473        0.102      217.270       14.083        0.004      345.007       22.227      861.315
09/15/2014  23:33:00     -211.536      -61.455      -13.701       21.060       23.113       16.649      443.519      534.195      277.186        2.498        0.063      220.282       13.710        0.004      345.179       22.522      861.336
09/15/2014  23:34:00     -181.455      -48.784       -7.592       51.517       32.669       20.503     2654.018     1067.290      420.373        1.975        0.207      187.898       25.194        0.018      345.064       22.327      861.347
09/15/2014  23:35:00     -173.073      -80.442      -10.569       38.039       30.642       24.624     1446.955      938.907      606.364        1.976        0.150      190.854       19.607        0.011      345.025       22.262      861.352
09/15/2014  23:36:00     -160.953      -66.771       -5.868       32.186       35.902       20.889     1035.936     1288.959      436.363        1.658        0.138      174.253       17.647        0.010      345.039       22.285      861.354
09/15/2014  23:37:00     -166.371      -48.879      -14.036       31.902       32.871       19.902     1017.769     1080.489      396.078        1.638        0.125      173.403       16.993        0.010      345.163       22.496      861.357
09/15/2014  23:38:00     -152.804      -20.107      -14.700       38.261       31.213       18.338     1463.907      974.236      336.273        1.337        0.139      154.121       15.089        0.010      345.002       22.220      861.361
09/15/2014  23:39:00     -170.767       -4.849      -22.629       32.552       34.309       18.445     1059.631     1177.130      340.213        1.614        0.129      170.836       18.836        0.012      345.009       22.232      861.352
09/15/2014  23:40:00     -150.284       11.812      -19.516       27.603       28.668       17.188      761.912      821.826      295.423        1.249        0.094      150.747        5.819        0.001      344.989       22.199      861.356
09/15/2014  23:41:00     -118.118        5.420      -26.106       39.127       33.351       25.243     1530.896     1112.299      637.199        0.897        0.164      118.242       10.220        0.007      344.904       22.051      861.360
09/15/2014  23:42:00      -94.384      -33.117      -13.061       38.793       35.041       23.808     1504.892     1227.866      566.807        0.674        0.165      100.025       21.724        0.047      344.840       21.945      861.371
09/15/2014  23:43:00     -128.998      -29.452       -8.264       47.595       46.842       20.261     2265.299     2194.214      410.488        1.122        0.244      132.317       20.055        0.023      344.716       21.733      861.387
09/15/2014  23:44:00     -112.858      -15.250       -8.620       35.597       27.112       18.249     1267.134      735.081      333.027        0.769        0.117      113.883        9.451        0.007      344.642       21.604      861.395
09/15/2014  23:45:00      -53.483      -53.138       -1.450       32.367       22.167       18.789     1047.596      491.358      353.032        0.379        0.095       75.393       15.676        0.043      344.654       21.627      861.403
09/15/2014  23:46:00      -44.548      -24.601        7.787       38.539       25.607       19.806     1485.227      655.701      392.296        0.259        0.127       50.889       18.408        0.131      344.703       21.707      861.402
09/15/2014  23:47:00        0.150      -21.325       16.593       32.592       28.588       17.069     1062.270      817.293      291.335        0.145        0.109       21.326       14.307        0.450      344.634       21.591      861.397
09/15/2014  23:48:00      -33.265       -5.556       -1.936       18.528       19.746       10.451      343.292      389.895      109.213        0.099        0.042       33.726       10.088        0.089      344.659       21.636      861.385
09/15/2014  23:49:00      -51.294      -18.815       -6.459       19.037       22.373       15.483      362.403      500.533      239.729        0.206        0.055       54.636       11.855        0.047      344.723       21.743      861.386
09/15/2014  23:50:00        7.669      -26.171       -8.225       17.870       17.634        9.809      319.321      310.961       96.210        0.077        0.036       27.272       10.174        0.139      344.743       21.777      861.394
09/15/2014  23:51:00      -39.150       -9.904        0.070       13.511       13.617        7.914      182.541      185.428       62.629        0.103        0.022       40.384        5.797        0.021      344.737       21.766      861.384
09/15/2014  23:52:00      -73.127       26.065      -17.269       24.044       24.623       16.247      578.121      606.303      263.976        0.389        0.072       77.633       15.101        0.038      344.610       21.551      861.350
09/15/2014  23:53:00      -87.752       36.926      -12.606       25.979       35.556       23.992      674.899     1264.251      575.619        0.587        0.126       95.205       16.156        0.029      344.465       21.301      861.327
09/15/2014  23:54:00      -89.683       -5.589        3.718       46.533       38.021       28.909     2165.304     1445.618      835.752        0.627        0.222       89.857       31.508        0.123      344.413       21.214      861.324
09/15/2014  23:55:00      -11.711       15.509       11.778       15.448       13.399       17.849      238.632      179.538      318.598        0.063        0.037       19.434       10.594        0.297      344.301       21.021      861.326
09/15/2014  23:56:00      -11.835       14.552       -8.458       16.734       21.247       15.814      280.013      451.440      250.084        0.070        0.049       18.757       16.176        0.744      344.346       21.101      861.323
09/15/2014  23:57:00      -49.616       11.613      -18.159       12.354       14.318        9.217      152.615      205.011       84.953        0.168        0.022       50.957        6.102        0.014      344.426       21.236      861.317
09/15/2014  23:58:00      -66.857        2.771      -16.508       28.902       24.005       10.718      835.352      576.224      114.872        0.314        0.076       66.914       10.119        0.023      344.416       21.218      861.300
09/15/2014  23:59:00      -42.012       15.613      -15.715       17.585       17.723       11.736      309.222      314.115      137.731        0.151        0.038       44.820        5.498        0.015      344.413       21.214      861.311
